<?xml version="1.0" encoding="UTF-8" standalone="no" ?>
<gpx xmlns="http://www.topografix.com/GPX/1/1" xmlns:xsi="http://www.w3.org/2001/XMLSchema-instance" xsi:schemaLocation="http://www.topografix.com/GPX/1/1 http://www.topografix.com/GPX/1/1/gpx.xsd" version="1.1" creator="VisuGPX - https://www.visugpx.com">
  <metadata>
    <name>Roller à Parilly</name>
    <desc><![CDATA[sortie roller à Parilly - un tour sur le parc technologique Porte des Alpes.]]></desc>
  </metadata>
  <trk>
    <name><![CDATA[Parilly]]></name>
    <cmt><![CDATA[un tour sur le parc porte des alpes avec un bitume tout neuf]]></cmt>
    <trkseg>
      <trkpt lat="45.74693" lon="4.87181">
        <ele>180</ele>
        <time>2010-11-28T13:24:40Z</time>
      </trkpt>
      <trkpt lat="45.74693" lon="4.87181">
        <ele>180</ele>
        <time>2010-11-28T13:24:41Z</time>
      </trkpt>
      <trkpt lat="45.74693" lon="4.87181">
        <ele>180</ele>
        <time>2010-11-28T13:24:43Z</time>
      </trkpt>
      <trkpt lat="45.74693" lon="4.87181">
        <ele>180</ele>
        <time>2010-11-28T13:24:44Z</time>
      </trkpt>
      <trkpt lat="45.74693" lon="4.87181">
        <ele>180</ele>
        <time>2010-11-28T13:24:45Z</time>
      </trkpt>
      <trkpt lat="45.74692" lon="4.87182">
        <ele>180</ele>
        <time>2010-11-28T13:24:48Z</time>
      </trkpt>
      <trkpt lat="45.74699" lon="4.87178">
        <ele>180</ele>
        <time>2010-11-28T13:24:57Z</time>
      </trkpt>
      <trkpt lat="45.74674" lon="4.87176">
        <ele>179</ele>
        <time>2010-11-28T13:25:01Z</time>
      </trkpt>
      <trkpt lat="45.74648" lon="4.87165">
        <ele>178</ele>
        <time>2010-11-28T13:25:07Z</time>
      </trkpt>
      <trkpt lat="45.74635" lon="4.87157">
        <ele>178</ele>
        <time>2010-11-28T13:25:11Z</time>
      </trkpt>
      <trkpt lat="45.74619" lon="4.87151">
        <ele>178</ele>
        <time>2010-11-28T13:25:15Z</time>
      </trkpt>
      <trkpt lat="45.74602" lon="4.87145">
        <ele>178</ele>
        <time>2010-11-28T13:25:20Z</time>
      </trkpt>
      <trkpt lat="45.74601" lon="4.87135">
        <ele>178</ele>
        <time>2010-11-28T13:25:25Z</time>
      </trkpt>
      <trkpt lat="45.74575" lon="4.87128">
        <ele>178</ele>
        <time>2010-11-28T13:25:31Z</time>
      </trkpt>
      <trkpt lat="45.74574" lon="4.87128">
        <ele>178</ele>
        <time>2010-11-28T13:25:32Z</time>
      </trkpt>
      <trkpt lat="45.74552" lon="4.87139">
        <ele>178</ele>
        <time>2010-11-28T13:25:38Z</time>
      </trkpt>
      <trkpt lat="45.74532" lon="4.87143">
        <ele>178</ele>
        <time>2010-11-28T13:25:43Z</time>
      </trkpt>
      <trkpt lat="45.74527" lon="4.87142">
        <ele>178</ele>
        <time>2010-11-28T13:25:45Z</time>
      </trkpt>
      <trkpt lat="45.74521" lon="4.87131">
        <ele>178</ele>
        <time>2010-11-28T13:25:50Z</time>
      </trkpt>
      <trkpt lat="45.74503" lon="4.87125">
        <ele>178</ele>
        <time>2010-11-28T13:25:56Z</time>
      </trkpt>
      <trkpt lat="45.74503" lon="4.87125">
        <ele>178</ele>
        <time>2010-11-28T13:25:59Z</time>
      </trkpt>
      <trkpt lat="45.74501" lon="4.87114">
        <ele>178</ele>
        <time>2010-11-28T13:26:04Z</time>
      </trkpt>
      <trkpt lat="45.74503" lon="4.87111">
        <ele>178</ele>
        <time>2010-11-28T13:26:08Z</time>
      </trkpt>
      <trkpt lat="45.74504" lon="4.8711">
        <ele>178</ele>
        <time>2010-11-28T13:26:09Z</time>
      </trkpt>
      <trkpt lat="45.74504" lon="4.87106">
        <ele>178</ele>
        <time>2010-11-28T13:26:15Z</time>
      </trkpt>
      <trkpt lat="45.74509" lon="4.87108">
        <ele>178</ele>
        <time>2010-11-28T13:26:17Z</time>
      </trkpt>
      <trkpt lat="45.74513" lon="4.87105">
        <ele>178</ele>
        <time>2010-11-28T13:26:20Z</time>
      </trkpt>
      <trkpt lat="45.74507" lon="4.87098">
        <ele>178</ele>
        <time>2010-11-28T13:26:26Z</time>
      </trkpt>
      <trkpt lat="45.74504" lon="4.87098">
        <ele>178</ele>
        <time>2010-11-28T13:26:27Z</time>
      </trkpt>
      <trkpt lat="45.74474" lon="4.87101">
        <ele>179</ele>
        <time>2010-11-28T13:26:33Z</time>
      </trkpt>
      <trkpt lat="45.74462" lon="4.87097">
        <ele>179</ele>
        <time>2010-11-28T13:26:37Z</time>
      </trkpt>
      <trkpt lat="45.74445" lon="4.87087">
        <ele>179</ele>
        <time>2010-11-28T13:26:42Z</time>
      </trkpt>
      <trkpt lat="45.74428" lon="4.87074">
        <ele>179</ele>
        <time>2010-11-28T13:26:47Z</time>
      </trkpt>
      <trkpt lat="45.74429" lon="4.87055">
        <ele>178</ele>
        <time>2010-11-28T13:26:52Z</time>
      </trkpt>
      <trkpt lat="45.74432" lon="4.87044">
        <ele>178</ele>
        <time>2010-11-28T13:26:54Z</time>
      </trkpt>
      <trkpt lat="45.74427" lon="4.87038">
        <ele>178</ele>
        <time>2010-11-28T13:26:57Z</time>
      </trkpt>
      <trkpt lat="45.74399" lon="4.87047">
        <ele>178</ele>
        <time>2010-11-28T13:27:03Z</time>
      </trkpt>
      <trkpt lat="45.74369" lon="4.87046">
        <ele>178</ele>
        <time>2010-11-28T13:27:07Z</time>
      </trkpt>
      <trkpt lat="45.74353" lon="4.87045">
        <ele>178</ele>
        <time>2010-11-28T13:27:09Z</time>
      </trkpt>
      <trkpt lat="45.7433" lon="4.87014">
        <ele>177</ele>
        <time>2010-11-28T13:27:14Z</time>
      </trkpt>
      <trkpt lat="45.74314" lon="4.87002">
        <ele>177</ele>
        <time>2010-11-28T13:27:16Z</time>
      </trkpt>
      <trkpt lat="45.74303" lon="4.86997">
        <ele>178</ele>
        <time>2010-11-28T13:27:18Z</time>
      </trkpt>
      <trkpt lat="45.74286" lon="4.86996">
        <ele>178</ele>
        <time>2010-11-28T13:27:22Z</time>
      </trkpt>
      <trkpt lat="45.74277" lon="4.86995">
        <ele>178</ele>
        <time>2010-11-28T13:27:24Z</time>
      </trkpt>
      <trkpt lat="45.74258" lon="4.86979">
        <ele>178</ele>
        <time>2010-11-28T13:27:28Z</time>
      </trkpt>
      <trkpt lat="45.74247" lon="4.86957">
        <ele>179</ele>
        <time>2010-11-28T13:27:32Z</time>
      </trkpt>
      <trkpt lat="45.7424" lon="4.86945">
        <ele>179</ele>
        <time>2010-11-28T13:27:34Z</time>
      </trkpt>
      <trkpt lat="45.74213" lon="4.86943">
        <ele>179</ele>
        <time>2010-11-28T13:27:39Z</time>
      </trkpt>
      <trkpt lat="45.74206" lon="4.86941">
        <ele>179</ele>
        <time>2010-11-28T13:27:41Z</time>
      </trkpt>
      <trkpt lat="45.7419" lon="4.86935">
        <ele>178</ele>
        <time>2010-11-28T13:27:46Z</time>
      </trkpt>
      <trkpt lat="45.74168" lon="4.86917">
        <ele>177</ele>
        <time>2010-11-28T13:27:51Z</time>
      </trkpt>
      <trkpt lat="45.7416" lon="4.86907">
        <ele>177</ele>
        <time>2010-11-28T13:27:53Z</time>
      </trkpt>
      <trkpt lat="45.74147" lon="4.86881">
        <ele>177</ele>
        <time>2010-11-28T13:27:58Z</time>
      </trkpt>
      <trkpt lat="45.74119" lon="4.86874">
        <ele>176</ele>
        <time>2010-11-28T13:28:03Z</time>
      </trkpt>
      <trkpt lat="45.74105" lon="4.86877">
        <ele>177</ele>
        <time>2010-11-28T13:28:06Z</time>
      </trkpt>
      <trkpt lat="45.74073" lon="4.86872">
        <ele>176</ele>
        <time>2010-11-28T13:28:12Z</time>
      </trkpt>
      <trkpt lat="45.74052" lon="4.86842">
        <ele>176</ele>
        <time>2010-11-28T13:28:18Z</time>
      </trkpt>
      <trkpt lat="45.74041" lon="4.86839">
        <ele>176</ele>
        <time>2010-11-28T13:28:20Z</time>
      </trkpt>
      <trkpt lat="45.74043" lon="4.86769">
        <ele>177</ele>
        <time>2010-11-28T13:28:24Z</time>
      </trkpt>
      <trkpt lat="45.74022" lon="4.86766">
        <ele>178</ele>
        <time>2010-11-28T13:28:27Z</time>
      </trkpt>
      <trkpt lat="45.74012" lon="4.86762">
        <ele>178</ele>
        <time>2010-11-28T13:28:29Z</time>
      </trkpt>
      <trkpt lat="45.73932" lon="4.86677">
        <ele>178</ele>
        <time>2010-11-28T13:28:56Z</time>
      </trkpt>
      <trkpt lat="45.73922" lon="4.86663">
        <ele>178</ele>
        <time>2010-11-28T13:29:01Z</time>
      </trkpt>
      <trkpt lat="45.73921" lon="4.8666">
        <ele>178</ele>
        <time>2010-11-28T13:29:04Z</time>
      </trkpt>
      <trkpt lat="45.73915" lon="4.86666">
        <ele>178</ele>
        <time>2010-11-28T13:29:08Z</time>
      </trkpt>
      <trkpt lat="45.73904" lon="4.86672">
        <ele>178</ele>
        <time>2010-11-28T13:29:12Z</time>
      </trkpt>
      <trkpt lat="45.73903" lon="4.86673">
        <ele>178</ele>
        <time>2010-11-28T13:29:15Z</time>
      </trkpt>
      <trkpt lat="45.73906" lon="4.86668">
        <ele>178</ele>
        <time>2010-11-28T13:29:21Z</time>
      </trkpt>
      <trkpt lat="45.73907" lon="4.86666">
        <ele>178</ele>
        <time>2010-11-28T13:29:22Z</time>
      </trkpt>
      <trkpt lat="45.73893" lon="4.86658">
        <ele>178</ele>
        <time>2010-11-28T13:29:27Z</time>
      </trkpt>
      <trkpt lat="45.73886" lon="4.86658">
        <ele>177</ele>
        <time>2010-11-28T13:29:30Z</time>
      </trkpt>
      <trkpt lat="45.7387" lon="4.86678">
        <ele>177</ele>
        <time>2010-11-28T13:29:35Z</time>
      </trkpt>
      <trkpt lat="45.73852" lon="4.86699">
        <ele>177</ele>
        <time>2010-11-28T13:29:40Z</time>
      </trkpt>
      <trkpt lat="45.73843" lon="4.8671">
        <ele>177</ele>
        <time>2010-11-28T13:29:42Z</time>
      </trkpt>
      <trkpt lat="45.73817" lon="4.86737">
        <ele>176</ele>
        <time>2010-11-28T13:29:47Z</time>
      </trkpt>
      <trkpt lat="45.73785" lon="4.86768">
        <ele>176</ele>
        <time>2010-11-28T13:29:53Z</time>
      </trkpt>
      <trkpt lat="45.73771" lon="4.86802">
        <ele>176</ele>
        <time>2010-11-28T13:29:59Z</time>
      </trkpt>
      <trkpt lat="45.73767" lon="4.86818">
        <ele>176</ele>
        <time>2010-11-28T13:30:03Z</time>
      </trkpt>
      <trkpt lat="45.73766" lon="4.86823">
        <ele>176</ele>
        <time>2010-11-28T13:30:04Z</time>
      </trkpt>
      <trkpt lat="45.73741" lon="4.86845">
        <ele>176</ele>
        <time>2010-11-28T13:30:08Z</time>
      </trkpt>
      <trkpt lat="45.73727" lon="4.86861">
        <ele>176</ele>
        <time>2010-11-28T13:30:11Z</time>
      </trkpt>
      <trkpt lat="45.73709" lon="4.86877">
        <ele>176</ele>
        <time>2010-11-28T13:30:16Z</time>
      </trkpt>
      <trkpt lat="45.73705" lon="4.86874">
        <ele>176</ele>
        <time>2010-11-28T13:30:18Z</time>
      </trkpt>
      <trkpt lat="45.73708" lon="4.8687">
        <ele>176</ele>
        <time>2010-11-28T13:30:23Z</time>
      </trkpt>
      <trkpt lat="45.73711" lon="4.86865">
        <ele>176</ele>
        <time>2010-11-28T13:30:27Z</time>
      </trkpt>
      <trkpt lat="45.73703" lon="4.86872">
        <ele>176</ele>
        <time>2010-11-28T13:30:30Z</time>
      </trkpt>
      <trkpt lat="45.73683" lon="4.86877">
        <ele>176</ele>
        <time>2010-11-28T13:30:34Z</time>
      </trkpt>
      <trkpt lat="45.7367" lon="4.86894">
        <ele>176</ele>
        <time>2010-11-28T13:30:39Z</time>
      </trkpt>
      <trkpt lat="45.7365" lon="4.86905">
        <ele>176</ele>
        <time>2010-11-28T13:30:43Z</time>
      </trkpt>
      <trkpt lat="45.7364" lon="4.8691">
        <ele>176</ele>
        <time>2010-11-28T13:30:45Z</time>
      </trkpt>
      <trkpt lat="45.73628" lon="4.86916">
        <ele>176</ele>
        <time>2010-11-28T13:30:47Z</time>
      </trkpt>
      <trkpt lat="45.73613" lon="4.86922">
        <ele>177</ele>
        <time>2010-11-28T13:30:51Z</time>
      </trkpt>
      <trkpt lat="45.73631" lon="4.86946">
        <ele>176</ele>
        <time>2010-11-28T13:30:56Z</time>
      </trkpt>
      <trkpt lat="45.73637" lon="4.86956">
        <ele>176</ele>
        <time>2010-11-28T13:31:00Z</time>
      </trkpt>
      <trkpt lat="45.73639" lon="4.86958">
        <ele>176</ele>
        <time>2010-11-28T13:31:01Z</time>
      </trkpt>
      <trkpt lat="45.73657" lon="4.86973">
        <ele>176</ele>
        <time>2010-11-28T13:31:05Z</time>
      </trkpt>
      <trkpt lat="45.73661" lon="4.86972">
        <ele>176</ele>
        <time>2010-11-28T13:31:09Z</time>
      </trkpt>
      <trkpt lat="45.73656" lon="4.86965">
        <ele>176</ele>
        <time>2010-11-28T13:31:17Z</time>
      </trkpt>
      <trkpt lat="45.73655" lon="4.86964">
        <ele>176</ele>
        <time>2010-11-28T13:31:18Z</time>
      </trkpt>
      <trkpt lat="45.73639" lon="4.86969">
        <ele>176</ele>
        <time>2010-11-28T13:31:24Z</time>
      </trkpt>
      <trkpt lat="45.73632" lon="4.86972">
        <ele>176</ele>
        <time>2010-11-28T13:31:25Z</time>
      </trkpt>
      <trkpt lat="45.73606" lon="4.86985">
        <ele>177</ele>
        <time>2010-11-28T13:31:29Z</time>
      </trkpt>
      <trkpt lat="45.7359" lon="4.86999">
        <ele>177</ele>
        <time>2010-11-28T13:31:32Z</time>
      </trkpt>
      <trkpt lat="45.73572" lon="4.87035">
        <ele>177</ele>
        <time>2010-11-28T13:31:37Z</time>
      </trkpt>
      <trkpt lat="45.7356" lon="4.87046">
        <ele>177</ele>
        <time>2010-11-28T13:31:40Z</time>
      </trkpt>
      <trkpt lat="45.73559" lon="4.87057">
        <ele>177</ele>
        <time>2010-11-28T13:31:42Z</time>
      </trkpt>
      <trkpt lat="45.7356" lon="4.87096">
        <ele>176</ele>
        <time>2010-11-28T13:31:48Z</time>
      </trkpt>
      <trkpt lat="45.7356" lon="4.87122">
        <ele>176</ele>
        <time>2010-11-28T13:31:52Z</time>
      </trkpt>
      <trkpt lat="45.73546" lon="4.87157">
        <ele>176</ele>
        <time>2010-11-28T13:31:58Z</time>
      </trkpt>
      <trkpt lat="45.7354" lon="4.87176">
        <ele>176</ele>
        <time>2010-11-28T13:32:01Z</time>
      </trkpt>
      <trkpt lat="45.73513" lon="4.87195">
        <ele>177</ele>
        <time>2010-11-28T13:32:05Z</time>
      </trkpt>
      <trkpt lat="45.73508" lon="4.87218">
        <ele>177</ele>
        <time>2010-11-28T13:32:09Z</time>
      </trkpt>
      <trkpt lat="45.73494" lon="4.87241">
        <ele>177</ele>
        <time>2010-11-28T13:32:14Z</time>
      </trkpt>
      <trkpt lat="45.73483" lon="4.8725">
        <ele>177</ele>
        <time>2010-11-28T13:32:17Z</time>
      </trkpt>
      <trkpt lat="45.73468" lon="4.87278">
        <ele>176</ele>
        <time>2010-11-28T13:32:22Z</time>
      </trkpt>
      <trkpt lat="45.73452" lon="4.87298">
        <ele>175</ele>
        <time>2010-11-28T13:32:26Z</time>
      </trkpt>
      <trkpt lat="45.73445" lon="4.87306">
        <ele>175</ele>
        <time>2010-11-28T13:32:28Z</time>
      </trkpt>
      <trkpt lat="45.73429" lon="4.87321">
        <ele>175</ele>
        <time>2010-11-28T13:32:32Z</time>
      </trkpt>
      <trkpt lat="45.73412" lon="4.87333">
        <ele>175</ele>
        <time>2010-11-28T13:32:36Z</time>
      </trkpt>
      <trkpt lat="45.73408" lon="4.87354">
        <ele>176</ele>
        <time>2010-11-28T13:32:42Z</time>
      </trkpt>
      <trkpt lat="45.73391" lon="4.87374">
        <ele>176</ele>
        <time>2010-11-28T13:32:47Z</time>
      </trkpt>
      <trkpt lat="45.73388" lon="4.87378">
        <ele>176</ele>
        <time>2010-11-28T13:32:48Z</time>
      </trkpt>
      <trkpt lat="45.73371" lon="4.87404">
        <ele>177</ele>
        <time>2010-11-28T13:32:54Z</time>
      </trkpt>
      <trkpt lat="45.73361" lon="4.87413">
        <ele>177</ele>
        <time>2010-11-28T13:32:56Z</time>
      </trkpt>
      <trkpt lat="45.73349" lon="4.87427">
        <ele>177</ele>
        <time>2010-11-28T13:33:01Z</time>
      </trkpt>
      <trkpt lat="45.73351" lon="4.87448">
        <ele>176</ele>
        <time>2010-11-28T13:33:05Z</time>
      </trkpt>
      <trkpt lat="45.73347" lon="4.87453">
        <ele>176</ele>
        <time>2010-11-28T13:33:07Z</time>
      </trkpt>
      <trkpt lat="45.73348" lon="4.87463">
        <ele>176</ele>
        <time>2010-11-28T13:33:12Z</time>
      </trkpt>
      <trkpt lat="45.73329" lon="4.87481">
        <ele>176</ele>
        <time>2010-11-28T13:33:17Z</time>
      </trkpt>
      <trkpt lat="45.73322" lon="4.87491">
        <ele>176</ele>
        <time>2010-11-28T13:33:19Z</time>
      </trkpt>
      <trkpt lat="45.73302" lon="4.87508">
        <ele>176</ele>
        <time>2010-11-28T13:33:24Z</time>
      </trkpt>
      <trkpt lat="45.73298" lon="4.87514">
        <ele>176</ele>
        <time>2010-11-28T13:33:26Z</time>
      </trkpt>
      <trkpt lat="45.73284" lon="4.87528">
        <ele>177</ele>
        <time>2010-11-28T13:33:31Z</time>
      </trkpt>
      <trkpt lat="45.73263" lon="4.87539">
        <ele>177</ele>
        <time>2010-11-28T13:33:36Z</time>
      </trkpt>
      <trkpt lat="45.73254" lon="4.87547">
        <ele>177</ele>
        <time>2010-11-28T13:33:39Z</time>
      </trkpt>
      <trkpt lat="45.73249" lon="4.87552">
        <ele>178</ele>
        <time>2010-11-28T13:33:44Z</time>
      </trkpt>
      <trkpt lat="45.73305" lon="4.8758">
        <ele>176</ele>
        <time>2010-11-28T13:33:49Z</time>
      </trkpt>
      <trkpt lat="45.73341" lon="4.87598">
        <ele>176</ele>
        <time>2010-11-28T13:33:55Z</time>
      </trkpt>
      <trkpt lat="45.73345" lon="4.876">
        <ele>177</ele>
        <time>2010-11-28T13:33:57Z</time>
      </trkpt>
      <trkpt lat="45.73356" lon="4.87609">
        <ele>177</ele>
        <time>2010-11-28T13:34:01Z</time>
      </trkpt>
      <trkpt lat="45.7339" lon="4.87642">
        <ele>178</ele>
        <time>2010-11-28T13:34:07Z</time>
      </trkpt>
      <trkpt lat="45.73395" lon="4.87652">
        <ele>178</ele>
        <time>2010-11-28T13:34:09Z</time>
      </trkpt>
      <trkpt lat="45.73389" lon="4.87663">
        <ele>178</ele>
        <time>2010-11-28T13:34:13Z</time>
      </trkpt>
      <trkpt lat="45.73392" lon="4.87667">
        <ele>179</ele>
        <time>2010-11-28T13:34:15Z</time>
      </trkpt>
      <trkpt lat="45.73371" lon="4.8767">
        <ele>179</ele>
        <time>2010-11-28T13:34:20Z</time>
      </trkpt>
      <trkpt lat="45.73343" lon="4.87683">
        <ele>180</ele>
        <time>2010-11-28T13:34:26Z</time>
      </trkpt>
      <trkpt lat="45.73331" lon="4.8769">
        <ele>181</ele>
        <time>2010-11-28T13:34:29Z</time>
      </trkpt>
      <trkpt lat="45.73322" lon="4.87674">
        <ele>181</ele>
        <time>2010-11-28T13:34:35Z</time>
      </trkpt>
      <trkpt lat="45.73311" lon="4.87666">
        <ele>180</ele>
        <time>2010-11-28T13:34:40Z</time>
      </trkpt>
      <trkpt lat="45.73296" lon="4.87659">
        <ele>180</ele>
        <time>2010-11-28T13:34:45Z</time>
      </trkpt>
      <trkpt lat="45.73291" lon="4.87653">
        <ele>180</ele>
        <time>2010-11-28T13:34:47Z</time>
      </trkpt>
      <trkpt lat="45.73286" lon="4.87613">
        <ele>179</ele>
        <time>2010-11-28T13:34:52Z</time>
      </trkpt>
      <trkpt lat="45.73279" lon="4.87586">
        <ele>179</ele>
        <time>2010-11-28T13:34:55Z</time>
      </trkpt>
      <trkpt lat="45.73275" lon="4.87562">
        <ele>177</ele>
        <time>2010-11-28T13:34:59Z</time>
      </trkpt>
      <trkpt lat="45.73272" lon="4.87528">
        <ele>177</ele>
        <time>2010-11-28T13:35:04Z</time>
      </trkpt>
      <trkpt lat="45.73262" lon="4.87511">
        <ele>177</ele>
        <time>2010-11-28T13:35:08Z</time>
      </trkpt>
      <trkpt lat="45.73237" lon="4.87531">
        <ele>178</ele>
        <time>2010-11-28T13:35:14Z</time>
      </trkpt>
      <trkpt lat="45.73234" lon="4.87545">
        <ele>178</ele>
        <time>2010-11-28T13:35:18Z</time>
      </trkpt>
      <trkpt lat="45.73219" lon="4.87565">
        <ele>179</ele>
        <time>2010-11-28T13:35:23Z</time>
      </trkpt>
      <trkpt lat="45.73215" lon="4.87579">
        <ele>179</ele>
        <time>2010-11-28T13:35:27Z</time>
      </trkpt>
      <trkpt lat="45.73222" lon="4.87591">
        <ele>180</ele>
        <time>2010-11-28T13:35:32Z</time>
      </trkpt>
      <trkpt lat="45.73222" lon="4.8759">
        <ele>180</ele>
        <time>2010-11-28T13:35:33Z</time>
      </trkpt>
      <trkpt lat="45.73218" lon="4.87572">
        <ele>179</ele>
        <time>2010-11-28T13:35:38Z</time>
      </trkpt>
      <trkpt lat="45.73209" lon="4.87546">
        <ele>178</ele>
        <time>2010-11-28T13:35:43Z</time>
      </trkpt>
      <trkpt lat="45.73196" lon="4.87515">
        <ele>178</ele>
        <time>2010-11-28T13:35:48Z</time>
      </trkpt>
      <trkpt lat="45.73192" lon="4.87501">
        <ele>177</ele>
        <time>2010-11-28T13:35:50Z</time>
      </trkpt>
      <trkpt lat="45.73181" lon="4.87468">
        <ele>177</ele>
        <time>2010-11-28T13:35:55Z</time>
      </trkpt>
      <trkpt lat="45.73178" lon="4.87452">
        <ele>178</ele>
        <time>2010-11-28T13:35:57Z</time>
      </trkpt>
      <trkpt lat="45.73174" lon="4.87428">
        <ele>177</ele>
        <time>2010-11-28T13:36:00Z</time>
      </trkpt>
      <trkpt lat="45.73165" lon="4.87404">
        <ele>177</ele>
        <time>2010-11-28T13:36:03Z</time>
      </trkpt>
      <trkpt lat="45.73159" lon="4.87383">
        <ele>177</ele>
        <time>2010-11-28T13:36:06Z</time>
      </trkpt>
      <trkpt lat="45.73143" lon="4.87342">
        <ele>178</ele>
        <time>2010-11-28T13:36:12Z</time>
      </trkpt>
      <trkpt lat="45.73133" lon="4.8732">
        <ele>178</ele>
        <time>2010-11-28T13:36:16Z</time>
      </trkpt>
      <trkpt lat="45.7313" lon="4.87311">
        <ele>178</ele>
        <time>2010-11-28T13:36:17Z</time>
      </trkpt>
      <trkpt lat="45.73113" lon="4.87267">
        <ele>178</ele>
        <time>2010-11-28T13:36:23Z</time>
      </trkpt>
      <trkpt lat="45.73107" lon="4.87252">
        <ele>178</ele>
        <time>2010-11-28T13:36:26Z</time>
      </trkpt>
      <trkpt lat="45.73098" lon="4.87219">
        <ele>178</ele>
        <time>2010-11-28T13:36:31Z</time>
      </trkpt>
      <trkpt lat="45.7309" lon="4.87195">
        <ele>178</ele>
        <time>2010-11-28T13:36:35Z</time>
      </trkpt>
      <trkpt lat="45.7308" lon="4.8717">
        <ele>178</ele>
        <time>2010-11-28T13:36:39Z</time>
      </trkpt>
      <trkpt lat="45.73077" lon="4.87161">
        <ele>178</ele>
        <time>2010-11-28T13:36:40Z</time>
      </trkpt>
      <trkpt lat="45.73061" lon="4.87133">
        <ele>178</ele>
        <time>2010-11-28T13:36:45Z</time>
      </trkpt>
      <trkpt lat="45.73056" lon="4.87104">
        <ele>177</ele>
        <time>2010-11-28T13:36:49Z</time>
      </trkpt>
      <trkpt lat="45.73048" lon="4.87075">
        <ele>177</ele>
        <time>2010-11-28T13:36:54Z</time>
      </trkpt>
      <trkpt lat="45.73041" lon="4.87057">
        <ele>177</ele>
        <time>2010-11-28T13:36:56Z</time>
      </trkpt>
      <trkpt lat="45.73032" lon="4.87013">
        <ele>176</ele>
        <time>2010-11-28T13:37:01Z</time>
      </trkpt>
      <trkpt lat="45.73027" lon="4.87">
        <ele>176</ele>
        <time>2010-11-28T13:37:03Z</time>
      </trkpt>
      <trkpt lat="45.73019" lon="4.86973">
        <ele>176</ele>
        <time>2010-11-28T13:37:07Z</time>
      </trkpt>
      <trkpt lat="45.73016" lon="4.8696">
        <ele>176</ele>
        <time>2010-11-28T13:37:09Z</time>
      </trkpt>
      <trkpt lat="45.73011" lon="4.86932">
        <ele>176</ele>
        <time>2010-11-28T13:37:13Z</time>
      </trkpt>
      <trkpt lat="45.73007" lon="4.86919">
        <ele>176</ele>
        <time>2010-11-28T13:37:15Z</time>
      </trkpt>
      <trkpt lat="45.72995" lon="4.86892">
        <ele>177</ele>
        <time>2010-11-28T13:37:20Z</time>
      </trkpt>
      <trkpt lat="45.72977" lon="4.86856">
        <ele>177</ele>
        <time>2010-11-28T13:37:28Z</time>
      </trkpt>
      <trkpt lat="45.72964" lon="4.8682">
        <ele>177</ele>
        <time>2010-11-28T13:37:35Z</time>
      </trkpt>
      <trkpt lat="45.72956" lon="4.86788">
        <ele>177</ele>
        <time>2010-11-28T13:37:41Z</time>
      </trkpt>
      <trkpt lat="45.7295" lon="4.86773">
        <ele>177</ele>
        <time>2010-11-28T13:37:46Z</time>
      </trkpt>
      <trkpt lat="45.72941" lon="4.86785">
        <ele>178</ele>
        <time>2010-11-28T13:37:51Z</time>
      </trkpt>
      <trkpt lat="45.7294" lon="4.86786">
        <ele>178</ele>
        <time>2010-11-28T13:37:52Z</time>
      </trkpt>
      <trkpt lat="45.72929" lon="4.86795">
        <ele>178</ele>
        <time>2010-11-28T13:37:57Z</time>
      </trkpt>
      <trkpt lat="45.72912" lon="4.86809">
        <ele>179</ele>
        <time>2010-11-28T13:38:02Z</time>
      </trkpt>
      <trkpt lat="45.7289" lon="4.86823">
        <ele>178</ele>
        <time>2010-11-28T13:38:07Z</time>
      </trkpt>
      <trkpt lat="45.7287" lon="4.86839">
        <ele>178</ele>
        <time>2010-11-28T13:38:11Z</time>
      </trkpt>
      <trkpt lat="45.72836" lon="4.86862">
        <ele>177</ele>
        <time>2010-11-28T13:38:17Z</time>
      </trkpt>
      <trkpt lat="45.72822" lon="4.86872">
        <ele>177</ele>
        <time>2010-11-28T13:38:20Z</time>
      </trkpt>
      <trkpt lat="45.72812" lon="4.86885">
        <ele>177</ele>
        <time>2010-11-28T13:38:24Z</time>
      </trkpt>
      <trkpt lat="45.72803" lon="4.86889">
        <ele>177</ele>
        <time>2010-11-28T13:38:26Z</time>
      </trkpt>
      <trkpt lat="45.72776" lon="4.86904">
        <ele>177</ele>
        <time>2010-11-28T13:38:32Z</time>
      </trkpt>
      <trkpt lat="45.72755" lon="4.86925">
        <ele>177</ele>
        <time>2010-11-28T13:38:38Z</time>
      </trkpt>
      <trkpt lat="45.72747" lon="4.86936">
        <ele>177</ele>
        <time>2010-11-28T13:38:42Z</time>
      </trkpt>
      <trkpt lat="45.72728" lon="4.86946">
        <ele>177</ele>
        <time>2010-11-28T13:38:47Z</time>
      </trkpt>
      <trkpt lat="45.72714" lon="4.86958">
        <ele>177</ele>
        <time>2010-11-28T13:38:50Z</time>
      </trkpt>
      <trkpt lat="45.72691" lon="4.86972">
        <ele>177</ele>
        <time>2010-11-28T13:38:55Z</time>
      </trkpt>
      <trkpt lat="45.72671" lon="4.86986">
        <ele>177</ele>
        <time>2010-11-28T13:39:00Z</time>
      </trkpt>
      <trkpt lat="45.72652" lon="4.87003">
        <ele>178</ele>
        <time>2010-11-28T13:39:06Z</time>
      </trkpt>
      <trkpt lat="45.7264" lon="4.87017">
        <ele>178</ele>
        <time>2010-11-28T13:39:11Z</time>
      </trkpt>
      <trkpt lat="45.72626" lon="4.87028">
        <ele>178</ele>
        <time>2010-11-28T13:39:14Z</time>
      </trkpt>
      <trkpt lat="45.72589" lon="4.87054">
        <ele>179</ele>
        <time>2010-11-28T13:39:22Z</time>
      </trkpt>
      <trkpt lat="45.7257" lon="4.87064">
        <ele>179</ele>
        <time>2010-11-28T13:39:26Z</time>
      </trkpt>
      <trkpt lat="45.72561" lon="4.87071">
        <ele>179</ele>
        <time>2010-11-28T13:39:29Z</time>
      </trkpt>
      <trkpt lat="45.72537" lon="4.87087">
        <ele>179</ele>
        <time>2010-11-28T13:39:33Z</time>
      </trkpt>
      <trkpt lat="45.72525" lon="4.87099">
        <ele>179</ele>
        <time>2010-11-28T13:39:37Z</time>
      </trkpt>
      <trkpt lat="45.7252" lon="4.87105">
        <ele>179</ele>
        <time>2010-11-28T13:39:40Z</time>
      </trkpt>
      <trkpt lat="45.72511" lon="4.87117">
        <ele>179</ele>
        <time>2010-11-28T13:39:44Z</time>
      </trkpt>
      <trkpt lat="45.72482" lon="4.87132">
        <ele>179</ele>
        <time>2010-11-28T13:39:50Z</time>
      </trkpt>
      <trkpt lat="45.72464" lon="4.87144">
        <ele>179</ele>
        <time>2010-11-28T13:39:54Z</time>
      </trkpt>
      <trkpt lat="45.72456" lon="4.87166">
        <ele>179</ele>
        <time>2010-11-28T13:39:59Z</time>
      </trkpt>
      <trkpt lat="45.72453" lon="4.87169">
        <ele>179</ele>
        <time>2010-11-28T13:40:00Z</time>
      </trkpt>
      <trkpt lat="45.72449" lon="4.87175">
        <ele>179</ele>
        <time>2010-11-28T13:40:03Z</time>
      </trkpt>
      <trkpt lat="45.72433" lon="4.87184">
        <ele>179</ele>
        <time>2010-11-28T13:40:07Z</time>
      </trkpt>
      <trkpt lat="45.72399" lon="4.87202">
        <ele>180</ele>
        <time>2010-11-28T13:40:15Z</time>
      </trkpt>
      <trkpt lat="45.72376" lon="4.87223">
        <ele>180</ele>
        <time>2010-11-28T13:40:22Z</time>
      </trkpt>
      <trkpt lat="45.72345" lon="4.87238">
        <ele>180</ele>
        <time>2010-11-28T13:40:28Z</time>
      </trkpt>
      <trkpt lat="45.72314" lon="4.87246">
        <ele>180</ele>
        <time>2010-11-28T13:40:33Z</time>
      </trkpt>
      <trkpt lat="45.7231" lon="4.87249">
        <ele>180</ele>
        <time>2010-11-28T13:40:34Z</time>
      </trkpt>
      <trkpt lat="45.72303" lon="4.87272">
        <ele>181</ele>
        <time>2010-11-28T13:40:40Z</time>
      </trkpt>
      <trkpt lat="45.72287" lon="4.87287">
        <ele>181</ele>
        <time>2010-11-28T13:40:44Z</time>
      </trkpt>
      <trkpt lat="45.72272" lon="4.87299">
        <ele>182</ele>
        <time>2010-11-28T13:40:47Z</time>
      </trkpt>
      <trkpt lat="45.7224" lon="4.87309">
        <ele>182</ele>
        <time>2010-11-28T13:40:52Z</time>
      </trkpt>
      <trkpt lat="45.72203" lon="4.8732">
        <ele>181</ele>
        <time>2010-11-28T13:40:58Z</time>
      </trkpt>
      <trkpt lat="45.72184" lon="4.8733">
        <ele>181</ele>
        <time>2010-11-28T13:41:03Z</time>
      </trkpt>
      <trkpt lat="45.72168" lon="4.87338">
        <ele>180</ele>
        <time>2010-11-28T13:41:07Z</time>
      </trkpt>
      <trkpt lat="45.72165" lon="4.87356">
        <ele>180</ele>
        <time>2010-11-28T13:41:11Z</time>
      </trkpt>
      <trkpt lat="45.7216" lon="4.87373">
        <ele>179</ele>
        <time>2010-11-28T13:41:15Z</time>
      </trkpt>
      <trkpt lat="45.72151" lon="4.8739">
        <ele>179</ele>
        <time>2010-11-28T13:41:20Z</time>
      </trkpt>
      <trkpt lat="45.72134" lon="4.87401">
        <ele>179</ele>
        <time>2010-11-28T13:41:24Z</time>
      </trkpt>
      <trkpt lat="45.72122" lon="4.87414">
        <ele>179</ele>
        <time>2010-11-28T13:41:28Z</time>
      </trkpt>
      <trkpt lat="45.72115" lon="4.87425">
        <ele>179</ele>
        <time>2010-11-28T13:41:31Z</time>
      </trkpt>
      <trkpt lat="45.72097" lon="4.87438">
        <ele>180</ele>
        <time>2010-11-28T13:41:36Z</time>
      </trkpt>
      <trkpt lat="45.72079" lon="4.8745">
        <ele>180</ele>
        <time>2010-11-28T13:41:42Z</time>
      </trkpt>
      <trkpt lat="45.72063" lon="4.87466">
        <ele>180</ele>
        <time>2010-11-28T13:41:47Z</time>
      </trkpt>
      <trkpt lat="45.72052" lon="4.87479">
        <ele>180</ele>
        <time>2010-11-28T13:41:52Z</time>
      </trkpt>
      <trkpt lat="45.72043" lon="4.87478">
        <ele>180</ele>
        <time>2010-11-28T13:41:57Z</time>
      </trkpt>
      <trkpt lat="45.72037" lon="4.87484">
        <ele>180</ele>
        <time>2010-11-28T13:42:00Z</time>
      </trkpt>
      <trkpt lat="45.7203" lon="4.87494">
        <ele>180</ele>
        <time>2010-11-28T13:42:04Z</time>
      </trkpt>
      <trkpt lat="45.72012" lon="4.87503">
        <ele>181</ele>
        <time>2010-11-28T13:42:09Z</time>
      </trkpt>
      <trkpt lat="45.71985" lon="4.87524">
        <ele>180</ele>
        <time>2010-11-28T13:42:16Z</time>
      </trkpt>
      <trkpt lat="45.7197" lon="4.87536">
        <ele>180</ele>
        <time>2010-11-28T13:42:21Z</time>
      </trkpt>
      <trkpt lat="45.71962" lon="4.87541">
        <ele>180</ele>
        <time>2010-11-28T13:42:23Z</time>
      </trkpt>
      <trkpt lat="45.71944" lon="4.87566">
        <ele>180</ele>
        <time>2010-11-28T13:42:28Z</time>
      </trkpt>
      <trkpt lat="45.71933" lon="4.87573">
        <ele>180</ele>
        <time>2010-11-28T13:42:31Z</time>
      </trkpt>
      <trkpt lat="45.71928" lon="4.87576">
        <ele>179</ele>
        <time>2010-11-28T13:42:32Z</time>
      </trkpt>
      <trkpt lat="45.71899" lon="4.87592">
        <ele>179</ele>
        <time>2010-11-28T13:42:40Z</time>
      </trkpt>
      <trkpt lat="45.71893" lon="4.87597">
        <ele>179</ele>
        <time>2010-11-28T13:42:42Z</time>
      </trkpt>
      <trkpt lat="45.71868" lon="4.87622">
        <ele>179</ele>
        <time>2010-11-28T13:42:47Z</time>
      </trkpt>
      <trkpt lat="45.71842" lon="4.87636">
        <ele>179</ele>
        <time>2010-11-28T13:42:52Z</time>
      </trkpt>
      <trkpt lat="45.71831" lon="4.87649">
        <ele>180</ele>
        <time>2010-11-28T13:42:56Z</time>
      </trkpt>
      <trkpt lat="45.71824" lon="4.87658">
        <ele>180</ele>
        <time>2010-11-28T13:42:59Z</time>
      </trkpt>
      <trkpt lat="45.71814" lon="4.87656">
        <ele>180</ele>
        <time>2010-11-28T13:43:04Z</time>
      </trkpt>
      <trkpt lat="45.71808" lon="4.8766">
        <ele>180</ele>
        <time>2010-11-28T13:43:06Z</time>
      </trkpt>
      <trkpt lat="45.71785" lon="4.87679">
        <ele>180</ele>
        <time>2010-11-28T13:43:14Z</time>
      </trkpt>
      <trkpt lat="45.71764" lon="4.87694">
        <ele>180</ele>
        <time>2010-11-28T13:43:21Z</time>
      </trkpt>
      <trkpt lat="45.71746" lon="4.87707">
        <ele>181</ele>
        <time>2010-11-28T13:43:27Z</time>
      </trkpt>
      <trkpt lat="45.71724" lon="4.87724">
        <ele>181</ele>
        <time>2010-11-28T13:43:34Z</time>
      </trkpt>
      <trkpt lat="45.71707" lon="4.87736">
        <ele>182</ele>
        <time>2010-11-28T13:43:40Z</time>
      </trkpt>
      <trkpt lat="45.71693" lon="4.87753">
        <ele>182</ele>
        <time>2010-11-28T13:43:46Z</time>
      </trkpt>
      <trkpt lat="45.71689" lon="4.87762">
        <ele>182</ele>
        <time>2010-11-28T13:43:48Z</time>
      </trkpt>
      <trkpt lat="45.71666" lon="4.87776">
        <ele>183</ele>
        <time>2010-11-28T13:43:55Z</time>
      </trkpt>
      <trkpt lat="45.71648" lon="4.87791">
        <ele>183</ele>
        <time>2010-11-28T13:44:00Z</time>
      </trkpt>
      <trkpt lat="45.71636" lon="4.878">
        <ele>183</ele>
        <time>2010-11-28T13:44:03Z</time>
      </trkpt>
      <trkpt lat="45.71598" lon="4.8783">
        <ele>182</ele>
        <time>2010-11-28T13:44:13Z</time>
      </trkpt>
      <trkpt lat="45.71576" lon="4.87846">
        <ele>181</ele>
        <time>2010-11-28T13:44:19Z</time>
      </trkpt>
      <trkpt lat="45.71547" lon="4.87866">
        <ele>181</ele>
        <time>2010-11-28T13:44:26Z</time>
      </trkpt>
      <trkpt lat="45.71544" lon="4.8787">
        <ele>181</ele>
        <time>2010-11-28T13:44:27Z</time>
      </trkpt>
      <trkpt lat="45.71532" lon="4.87881">
        <ele>181</ele>
        <time>2010-11-28T13:44:30Z</time>
      </trkpt>
      <trkpt lat="45.7152" lon="4.87891">
        <ele>181</ele>
        <time>2010-11-28T13:44:33Z</time>
      </trkpt>
      <trkpt lat="45.715" lon="4.87905">
        <ele>182</ele>
        <time>2010-11-28T13:44:38Z</time>
      </trkpt>
      <trkpt lat="45.71485" lon="4.87918">
        <ele>182</ele>
        <time>2010-11-28T13:44:42Z</time>
      </trkpt>
      <trkpt lat="45.71472" lon="4.87932">
        <ele>182</ele>
        <time>2010-11-28T13:44:46Z</time>
      </trkpt>
      <trkpt lat="45.7146" lon="4.87956">
        <ele>182</ele>
        <time>2010-11-28T13:44:51Z</time>
      </trkpt>
      <trkpt lat="45.71459" lon="4.87961">
        <ele>182</ele>
        <time>2010-11-28T13:44:52Z</time>
      </trkpt>
      <trkpt lat="45.71473" lon="4.87988">
        <ele>182</ele>
        <time>2010-11-28T13:44:56Z</time>
      </trkpt>
      <trkpt lat="45.71484" lon="4.88012">
        <ele>183</ele>
        <time>2010-11-28T13:45:01Z</time>
      </trkpt>
      <trkpt lat="45.71494" lon="4.88028">
        <ele>183</ele>
        <time>2010-11-28T13:45:04Z</time>
      </trkpt>
      <trkpt lat="45.71511" lon="4.88064">
        <ele>183</ele>
        <time>2010-11-28T13:45:11Z</time>
      </trkpt>
      <trkpt lat="45.71517" lon="4.88077">
        <ele>183</ele>
        <time>2010-11-28T13:45:15Z</time>
      </trkpt>
      <trkpt lat="45.71531" lon="4.88098">
        <ele>184</ele>
        <time>2010-11-28T13:45:20Z</time>
      </trkpt>
      <trkpt lat="45.71547" lon="4.88123">
        <ele>184</ele>
        <time>2010-11-28T13:45:25Z</time>
      </trkpt>
      <trkpt lat="45.71555" lon="4.88144">
        <ele>184</ele>
        <time>2010-11-28T13:45:29Z</time>
      </trkpt>
      <trkpt lat="45.71574" lon="4.88165">
        <ele>184</ele>
        <time>2010-11-28T13:45:34Z</time>
      </trkpt>
      <trkpt lat="45.71589" lon="4.88188">
        <ele>184</ele>
        <time>2010-11-28T13:45:39Z</time>
      </trkpt>
      <trkpt lat="45.71598" lon="4.88205">
        <ele>184</ele>
        <time>2010-11-28T13:45:43Z</time>
      </trkpt>
      <trkpt lat="45.71614" lon="4.88227">
        <ele>184</ele>
        <time>2010-11-28T13:45:48Z</time>
      </trkpt>
      <trkpt lat="45.7162" lon="4.88237">
        <ele>184</ele>
        <time>2010-11-28T13:45:50Z</time>
      </trkpt>
      <trkpt lat="45.71645" lon="4.88272">
        <ele>184</ele>
        <time>2010-11-28T13:45:57Z</time>
      </trkpt>
      <trkpt lat="45.71656" lon="4.88304">
        <ele>183</ele>
        <time>2010-11-28T13:46:02Z</time>
      </trkpt>
      <trkpt lat="45.71667" lon="4.88323">
        <ele>182</ele>
        <time>2010-11-28T13:46:08Z</time>
      </trkpt>
      <trkpt lat="45.71685" lon="4.88349">
        <ele>182</ele>
        <time>2010-11-28T13:46:12Z</time>
      </trkpt>
      <trkpt lat="45.71689" lon="4.88358">
        <ele>182</ele>
        <time>2010-11-28T13:46:14Z</time>
      </trkpt>
      <trkpt lat="45.71703" lon="4.88378">
        <ele>183</ele>
        <time>2010-11-28T13:46:19Z</time>
      </trkpt>
      <trkpt lat="45.71721" lon="4.88401">
        <ele>183</ele>
        <time>2010-11-28T13:46:24Z</time>
      </trkpt>
      <trkpt lat="45.71734" lon="4.88418">
        <ele>183</ele>
        <time>2010-11-28T13:46:28Z</time>
      </trkpt>
      <trkpt lat="45.71746" lon="4.88435">
        <ele>183</ele>
        <time>2010-11-28T13:46:32Z</time>
      </trkpt>
      <trkpt lat="45.71761" lon="4.88454">
        <ele>183</ele>
        <time>2010-11-28T13:46:37Z</time>
      </trkpt>
      <trkpt lat="45.71786" lon="4.88488">
        <ele>183</ele>
        <time>2010-11-28T13:46:43Z</time>
      </trkpt>
      <trkpt lat="45.71807" lon="4.88517">
        <ele>184</ele>
        <time>2010-11-28T13:46:48Z</time>
      </trkpt>
      <trkpt lat="45.71809" lon="4.88522">
        <ele>184</ele>
        <time>2010-11-28T13:46:49Z</time>
      </trkpt>
      <trkpt lat="45.71827" lon="4.88548">
        <ele>183</ele>
        <time>2010-11-28T13:46:54Z</time>
      </trkpt>
      <trkpt lat="45.7184" lon="4.88572">
        <ele>182</ele>
        <time>2010-11-28T13:46:59Z</time>
      </trkpt>
      <trkpt lat="45.71862" lon="4.88607">
        <ele>183</ele>
        <time>2010-11-28T13:47:06Z</time>
      </trkpt>
      <trkpt lat="45.7188" lon="4.88633">
        <ele>184</ele>
        <time>2010-11-28T13:47:12Z</time>
      </trkpt>
      <trkpt lat="45.71891" lon="4.88649">
        <ele>184</ele>
        <time>2010-11-28T13:47:17Z</time>
      </trkpt>
      <trkpt lat="45.71901" lon="4.88665">
        <ele>184</ele>
        <time>2010-11-28T13:47:22Z</time>
      </trkpt>
      <trkpt lat="45.71905" lon="4.88669">
        <ele>184</ele>
        <time>2010-11-28T13:47:24Z</time>
      </trkpt>
      <trkpt lat="45.71902" lon="4.88689">
        <ele>184</ele>
        <time>2010-11-28T13:47:30Z</time>
      </trkpt>
      <trkpt lat="45.71896" lon="4.88711">
        <ele>185</ele>
        <time>2010-11-28T13:47:35Z</time>
      </trkpt>
      <trkpt lat="45.71889" lon="4.88728">
        <ele>185</ele>
        <time>2010-11-28T13:47:40Z</time>
      </trkpt>
      <trkpt lat="45.7188" lon="4.88737">
        <ele>185</ele>
        <time>2010-11-28T13:47:45Z</time>
      </trkpt>
      <trkpt lat="45.71889" lon="4.88754">
        <ele>184</ele>
        <time>2010-11-28T13:47:50Z</time>
      </trkpt>
      <trkpt lat="45.7192" lon="4.88795">
        <ele>184</ele>
        <time>2010-11-28T13:47:57Z</time>
      </trkpt>
      <trkpt lat="45.71935" lon="4.88816">
        <ele>184</ele>
        <time>2010-11-28T13:48:03Z</time>
      </trkpt>
      <trkpt lat="45.7195" lon="4.88831">
        <ele>184</ele>
        <time>2010-11-28T13:48:08Z</time>
      </trkpt>
      <trkpt lat="45.71956" lon="4.88835">
        <ele>183</ele>
        <time>2010-11-28T13:48:13Z</time>
      </trkpt>
      <trkpt lat="45.71957" lon="4.88836">
        <ele>183</ele>
        <time>2010-11-28T13:48:19Z</time>
      </trkpt>
      <trkpt lat="45.7196" lon="4.88847">
        <ele>183</ele>
        <time>2010-11-28T13:48:24Z</time>
      </trkpt>
      <trkpt lat="45.71953" lon="4.88864">
        <ele>183</ele>
        <time>2010-11-28T13:48:29Z</time>
      </trkpt>
      <trkpt lat="45.71951" lon="4.88869">
        <ele>183</ele>
        <time>2010-11-28T13:48:30Z</time>
      </trkpt>
      <trkpt lat="45.71939" lon="4.88895">
        <ele>183</ele>
        <time>2010-11-28T13:48:36Z</time>
      </trkpt>
      <trkpt lat="45.71933" lon="4.88904">
        <ele>183</ele>
        <time>2010-11-28T13:48:41Z</time>
      </trkpt>
      <trkpt lat="45.71923" lon="4.88916">
        <ele>182</ele>
        <time>2010-11-28T13:48:45Z</time>
      </trkpt>
      <trkpt lat="45.71914" lon="4.88938">
        <ele>183</ele>
        <time>2010-11-28T13:48:50Z</time>
      </trkpt>
      <trkpt lat="45.71907" lon="4.88956">
        <ele>183</ele>
        <time>2010-11-28T13:48:55Z</time>
      </trkpt>
      <trkpt lat="45.71898" lon="4.88975">
        <ele>183</ele>
        <time>2010-11-28T13:49:00Z</time>
      </trkpt>
      <trkpt lat="45.71888" lon="4.88991">
        <ele>183</ele>
        <time>2010-11-28T13:49:04Z</time>
      </trkpt>
      <trkpt lat="45.71872" lon="4.89014">
        <ele>184</ele>
        <time>2010-11-28T13:49:09Z</time>
      </trkpt>
      <trkpt lat="45.71863" lon="4.89038">
        <ele>184</ele>
        <time>2010-11-28T13:49:14Z</time>
      </trkpt>
      <trkpt lat="45.71851" lon="4.89056">
        <ele>184</ele>
        <time>2010-11-28T13:49:19Z</time>
      </trkpt>
      <trkpt lat="45.71844" lon="4.89084">
        <ele>184</ele>
        <time>2010-11-28T13:49:25Z</time>
      </trkpt>
      <trkpt lat="45.71837" lon="4.89105">
        <ele>184</ele>
        <time>2010-11-28T13:49:30Z</time>
      </trkpt>
      <trkpt lat="45.7183" lon="4.89126">
        <ele>184</ele>
        <time>2010-11-28T13:49:35Z</time>
      </trkpt>
      <trkpt lat="45.71828" lon="4.89146">
        <ele>184</ele>
        <time>2010-11-28T13:49:39Z</time>
      </trkpt>
      <trkpt lat="45.71821" lon="4.89161">
        <ele>184</ele>
        <time>2010-11-28T13:49:42Z</time>
      </trkpt>
      <trkpt lat="45.71811" lon="4.89188">
        <ele>184</ele>
        <time>2010-11-28T13:49:47Z</time>
      </trkpt>
      <trkpt lat="45.71809" lon="4.89204">
        <ele>184</ele>
        <time>2010-11-28T13:49:51Z</time>
      </trkpt>
      <trkpt lat="45.7182" lon="4.89217">
        <ele>184</ele>
        <time>2010-11-28T13:49:56Z</time>
      </trkpt>
      <trkpt lat="45.71824" lon="4.89217">
        <ele>184</ele>
        <time>2010-11-28T13:49:57Z</time>
      </trkpt>
      <trkpt lat="45.71852" lon="4.89236">
        <ele>184</ele>
        <time>2010-11-28T13:50:04Z</time>
      </trkpt>
      <trkpt lat="45.71874" lon="4.89243">
        <ele>183</ele>
        <time>2010-11-28T13:50:09Z</time>
      </trkpt>
      <trkpt lat="45.71888" lon="4.8925">
        <ele>183</ele>
        <time>2010-11-28T13:50:14Z</time>
      </trkpt>
      <trkpt lat="45.71891" lon="4.8925">
        <ele>183</ele>
        <time>2010-11-28T13:50:17Z</time>
      </trkpt>
      <trkpt lat="45.71894" lon="4.89258">
        <ele>183</ele>
        <time>2010-11-28T13:50:20Z</time>
      </trkpt>
      <trkpt lat="45.71895" lon="4.89268">
        <ele>183</ele>
        <time>2010-11-28T13:50:23Z</time>
      </trkpt>
      <trkpt lat="45.71891" lon="4.89279">
        <ele>183</ele>
        <time>2010-11-28T13:50:29Z</time>
      </trkpt>
      <trkpt lat="45.71891" lon="4.89278">
        <ele>183</ele>
        <time>2010-11-28T13:50:30Z</time>
      </trkpt>
      <trkpt lat="45.71878" lon="4.89274">
        <ele>183</ele>
        <time>2010-11-28T13:50:36Z</time>
      </trkpt>
      <trkpt lat="45.71864" lon="4.89269">
        <ele>184</ele>
        <time>2010-11-28T13:50:42Z</time>
      </trkpt>
      <trkpt lat="45.71844" lon="4.89267">
        <ele>184</ele>
        <time>2010-11-28T13:50:48Z</time>
      </trkpt>
      <trkpt lat="45.71827" lon="4.8927">
        <ele>185</ele>
        <time>2010-11-28T13:50:52Z</time>
      </trkpt>
      <trkpt lat="45.71817" lon="4.89271">
        <ele>185</ele>
        <time>2010-11-28T13:50:56Z</time>
      </trkpt>
      <trkpt lat="45.71804" lon="4.89274">
        <ele>185</ele>
        <time>2010-11-28T13:51:00Z</time>
      </trkpt>
      <trkpt lat="45.71778" lon="4.89281">
        <ele>185</ele>
        <time>2010-11-28T13:51:05Z</time>
      </trkpt>
      <trkpt lat="45.71752" lon="4.89292">
        <ele>186</ele>
        <time>2010-11-28T13:51:11Z</time>
      </trkpt>
      <trkpt lat="45.71727" lon="4.89303">
        <ele>186</ele>
        <time>2010-11-28T13:51:16Z</time>
      </trkpt>
      <trkpt lat="45.717" lon="4.89316">
        <ele>186</ele>
        <time>2010-11-28T13:51:21Z</time>
      </trkpt>
      <trkpt lat="45.71695" lon="4.89319">
        <ele>186</ele>
        <time>2010-11-28T13:51:22Z</time>
      </trkpt>
      <trkpt lat="45.71663" lon="4.89349">
        <ele>185</ele>
        <time>2010-11-28T13:51:30Z</time>
      </trkpt>
      <trkpt lat="45.71651" lon="4.89365">
        <ele>185</ele>
        <time>2010-11-28T13:51:34Z</time>
      </trkpt>
      <trkpt lat="45.71632" lon="4.89386">
        <ele>185</ele>
        <time>2010-11-28T13:51:39Z</time>
      </trkpt>
      <trkpt lat="45.7161" lon="4.89424">
        <ele>185</ele>
        <time>2010-11-28T13:51:47Z</time>
      </trkpt>
      <trkpt lat="45.71601" lon="4.89443">
        <ele>186</ele>
        <time>2010-11-28T13:51:51Z</time>
      </trkpt>
      <trkpt lat="45.71591" lon="4.89464">
        <ele>186</ele>
        <time>2010-11-28T13:51:55Z</time>
      </trkpt>
      <trkpt lat="45.71583" lon="4.89485">
        <ele>186</ele>
        <time>2010-11-28T13:51:59Z</time>
      </trkpt>
      <trkpt lat="45.71572" lon="4.89507">
        <ele>187</ele>
        <time>2010-11-28T13:52:03Z</time>
      </trkpt>
      <trkpt lat="45.71568" lon="4.89517">
        <ele>187</ele>
        <time>2010-11-28T13:52:05Z</time>
      </trkpt>
      <trkpt lat="45.71558" lon="4.89546">
        <ele>188</ele>
        <time>2010-11-28T13:52:10Z</time>
      </trkpt>
      <trkpt lat="45.71546" lon="4.89586">
        <ele>190</ele>
        <time>2010-11-28T13:52:17Z</time>
      </trkpt>
      <trkpt lat="45.71542" lon="4.89606">
        <ele>190</ele>
        <time>2010-11-28T13:52:22Z</time>
      </trkpt>
      <trkpt lat="45.71543" lon="4.89629">
        <ele>190</ele>
        <time>2010-11-28T13:52:26Z</time>
      </trkpt>
      <trkpt lat="45.71548" lon="4.89657">
        <ele>190</ele>
        <time>2010-11-28T13:52:31Z</time>
      </trkpt>
      <trkpt lat="45.71549" lon="4.89684">
        <ele>190</ele>
        <time>2010-11-28T13:52:36Z</time>
      </trkpt>
      <trkpt lat="45.7155" lon="4.89714">
        <ele>190</ele>
        <time>2010-11-28T13:52:41Z</time>
      </trkpt>
      <trkpt lat="45.71547" lon="4.89739">
        <ele>190</ele>
        <time>2010-11-28T13:52:45Z</time>
      </trkpt>
      <trkpt lat="45.71548" lon="4.89769">
        <ele>189</ele>
        <time>2010-11-28T13:52:50Z</time>
      </trkpt>
      <trkpt lat="45.71549" lon="4.89813">
        <ele>189</ele>
        <time>2010-11-28T13:52:57Z</time>
      </trkpt>
      <trkpt lat="45.71547" lon="4.89837">
        <ele>188</ele>
        <time>2010-11-28T13:53:02Z</time>
      </trkpt>
      <trkpt lat="45.71548" lon="4.89864">
        <ele>188</ele>
        <time>2010-11-28T13:53:07Z</time>
      </trkpt>
      <trkpt lat="45.71556" lon="4.89898">
        <ele>188</ele>
        <time>2010-11-28T13:53:13Z</time>
      </trkpt>
      <trkpt lat="45.71568" lon="4.89923">
        <ele>188</ele>
        <time>2010-11-28T13:53:18Z</time>
      </trkpt>
      <trkpt lat="45.71586" lon="4.8994">
        <ele>187</ele>
        <time>2010-11-28T13:53:23Z</time>
      </trkpt>
      <trkpt lat="45.7161" lon="4.89953">
        <ele>187</ele>
        <time>2010-11-28T13:53:29Z</time>
      </trkpt>
      <trkpt lat="45.71634" lon="4.89958">
        <ele>187</ele>
        <time>2010-11-28T13:53:35Z</time>
      </trkpt>
      <trkpt lat="45.71643" lon="4.89959">
        <ele>187</ele>
        <time>2010-11-28T13:53:37Z</time>
      </trkpt>
      <trkpt lat="45.71659" lon="4.89956">
        <ele>187</ele>
        <time>2010-11-28T13:53:41Z</time>
      </trkpt>
      <trkpt lat="45.71673" lon="4.89944">
        <ele>186</ele>
        <time>2010-11-28T13:53:46Z</time>
      </trkpt>
      <trkpt lat="45.71677" lon="4.89938">
        <ele>185</ele>
        <time>2010-11-28T13:53:48Z</time>
      </trkpt>
      <trkpt lat="45.71687" lon="4.89922">
        <ele>185</ele>
        <time>2010-11-28T13:53:52Z</time>
      </trkpt>
      <trkpt lat="45.71702" lon="4.89906">
        <ele>184</ele>
        <time>2010-11-28T13:53:57Z</time>
      </trkpt>
      <trkpt lat="45.71719" lon="4.89889">
        <ele>185</ele>
        <time>2010-11-28T13:54:01Z</time>
      </trkpt>
      <trkpt lat="45.71751" lon="4.89863">
        <ele>188</ele>
        <time>2010-11-28T13:54:08Z</time>
      </trkpt>
      <trkpt lat="45.71776" lon="4.89846">
        <ele>187</ele>
        <time>2010-11-28T13:54:14Z</time>
      </trkpt>
      <trkpt lat="45.71806" lon="4.89833">
        <ele>185</ele>
        <time>2010-11-28T13:54:20Z</time>
      </trkpt>
      <trkpt lat="45.7181" lon="4.8983">
        <ele>185</ele>
        <time>2010-11-28T13:54:21Z</time>
      </trkpt>
      <trkpt lat="45.71825" lon="4.89824">
        <ele>185</ele>
        <time>2010-11-28T13:54:24Z</time>
      </trkpt>
      <trkpt lat="45.71855" lon="4.89816">
        <ele>184</ele>
        <time>2010-11-28T13:54:30Z</time>
      </trkpt>
      <trkpt lat="45.71873" lon="4.89827">
        <ele>183</ele>
        <time>2010-11-28T13:54:35Z</time>
      </trkpt>
      <trkpt lat="45.71878" lon="4.8983">
        <ele>183</ele>
        <time>2010-11-28T13:54:37Z</time>
      </trkpt>
      <trkpt lat="45.71886" lon="4.89837">
        <ele>185</ele>
        <time>2010-11-28T13:54:43Z</time>
      </trkpt>
      <trkpt lat="45.71883" lon="4.89834">
        <ele>185</ele>
        <time>2010-11-28T13:54:49Z</time>
      </trkpt>
      <trkpt lat="45.71886" lon="4.89835">
        <ele>185</ele>
        <time>2010-11-28T13:54:55Z</time>
      </trkpt>
      <trkpt lat="45.71879" lon="4.89827">
        <ele>183</ele>
        <time>2010-11-28T13:55:08Z</time>
      </trkpt>
      <trkpt lat="45.71876" lon="4.89826">
        <ele>183</ele>
        <time>2010-11-28T13:55:14Z</time>
      </trkpt>
      <trkpt lat="45.71876" lon="4.89826">
        <ele>183</ele>
        <time>2010-11-28T13:55:15Z</time>
      </trkpt>
      <trkpt lat="45.71872" lon="4.89818">
        <ele>183</ele>
        <time>2010-11-28T13:55:20Z</time>
      </trkpt>
      <trkpt lat="45.71882" lon="4.89812">
        <ele>183</ele>
        <time>2010-11-28T13:55:25Z</time>
      </trkpt>
      <trkpt lat="45.7189" lon="4.89814">
        <ele>183</ele>
        <time>2010-11-28T13:55:27Z</time>
      </trkpt>
      <trkpt lat="45.71922" lon="4.89814">
        <ele>183</ele>
        <time>2010-11-28T13:55:34Z</time>
      </trkpt>
      <trkpt lat="45.71932" lon="4.89813">
        <ele>183</ele>
        <time>2010-11-28T13:55:36Z</time>
      </trkpt>
      <trkpt lat="45.71962" lon="4.89811">
        <ele>183</ele>
        <time>2010-11-28T13:55:42Z</time>
      </trkpt>
      <trkpt lat="45.71991" lon="4.89811">
        <ele>183</ele>
        <time>2010-11-28T13:55:48Z</time>
      </trkpt>
      <trkpt lat="45.72009" lon="4.89812">
        <ele>184</ele>
        <time>2010-11-28T13:55:52Z</time>
      </trkpt>
      <trkpt lat="45.72047" lon="4.89812">
        <ele>184</ele>
        <time>2010-11-28T13:56:00Z</time>
      </trkpt>
      <trkpt lat="45.72065" lon="4.89811">
        <ele>184</ele>
        <time>2010-11-28T13:56:04Z</time>
      </trkpt>
      <trkpt lat="45.72097" lon="4.89798">
        <ele>187</ele>
        <time>2010-11-28T13:56:11Z</time>
      </trkpt>
      <trkpt lat="45.72119" lon="4.89788">
        <ele>187</ele>
        <time>2010-11-28T13:56:17Z</time>
      </trkpt>
      <trkpt lat="45.72137" lon="4.89773">
        <ele>188</ele>
        <time>2010-11-28T13:56:22Z</time>
      </trkpt>
      <trkpt lat="45.72152" lon="4.89752">
        <ele>189</ele>
        <time>2010-11-28T13:56:27Z</time>
      </trkpt>
      <trkpt lat="45.72157" lon="4.89745">
        <ele>188</ele>
        <time>2010-11-28T13:56:28Z</time>
      </trkpt>
      <trkpt lat="45.72166" lon="4.89728">
        <ele>187</ele>
        <time>2010-11-28T13:56:31Z</time>
      </trkpt>
      <trkpt lat="45.72179" lon="4.89703">
        <ele>190</ele>
        <time>2010-11-28T13:56:35Z</time>
      </trkpt>
      <trkpt lat="45.72188" lon="4.89688">
        <ele>190</ele>
        <time>2010-11-28T13:56:38Z</time>
      </trkpt>
      <trkpt lat="45.72197" lon="4.89671">
        <ele>190</ele>
        <time>2010-11-28T13:56:41Z</time>
      </trkpt>
      <trkpt lat="45.72209" lon="4.89652">
        <ele>190</ele>
        <time>2010-11-28T13:56:45Z</time>
      </trkpt>
      <trkpt lat="45.72222" lon="4.89654">
        <ele>191</ele>
        <time>2010-11-28T13:56:49Z</time>
      </trkpt>
      <trkpt lat="45.72225" lon="4.89656">
        <ele>191</ele>
        <time>2010-11-28T13:56:50Z</time>
      </trkpt>
      <trkpt lat="45.72246" lon="4.89676">
        <ele>193</ele>
        <time>2010-11-28T13:56:57Z</time>
      </trkpt>
      <trkpt lat="45.72258" lon="4.89685">
        <ele>196</ele>
        <time>2010-11-28T13:57:01Z</time>
      </trkpt>
      <trkpt lat="45.72266" lon="4.89691">
        <ele>197</ele>
        <time>2010-11-28T13:57:06Z</time>
      </trkpt>
      <trkpt lat="45.72277" lon="4.89692">
        <ele>198</ele>
        <time>2010-11-28T13:57:11Z</time>
      </trkpt>
      <trkpt lat="45.72293" lon="4.89691">
        <ele>199</ele>
        <time>2010-11-28T13:57:16Z</time>
      </trkpt>
      <trkpt lat="45.72294" lon="4.89694">
        <ele>199</ele>
        <time>2010-11-28T13:57:17Z</time>
      </trkpt>
      <trkpt lat="45.72284" lon="4.89718">
        <ele>198</ele>
        <time>2010-11-28T13:57:23Z</time>
      </trkpt>
      <trkpt lat="45.72283" lon="4.89738">
        <ele>198</ele>
        <time>2010-11-28T13:57:27Z</time>
      </trkpt>
      <trkpt lat="45.72279" lon="4.89761">
        <ele>198</ele>
        <time>2010-11-28T13:57:32Z</time>
      </trkpt>
      <trkpt lat="45.72277" lon="4.89776">
        <ele>199</ele>
        <time>2010-11-28T13:57:35Z</time>
      </trkpt>
      <trkpt lat="45.7228" lon="4.89806">
        <ele>199</ele>
        <time>2010-11-28T13:57:39Z</time>
      </trkpt>
      <trkpt lat="45.72278" lon="4.89824">
        <ele>199</ele>
        <time>2010-11-28T13:57:42Z</time>
      </trkpt>
      <trkpt lat="45.72264" lon="4.89849">
        <ele>199</ele>
        <time>2010-11-28T13:57:47Z</time>
      </trkpt>
      <trkpt lat="45.72253" lon="4.8987">
        <ele>199</ele>
        <time>2010-11-28T13:57:52Z</time>
      </trkpt>
      <trkpt lat="45.72252" lon="4.89875">
        <ele>199</ele>
        <time>2010-11-28T13:57:53Z</time>
      </trkpt>
      <trkpt lat="45.72249" lon="4.89908">
        <ele>194</ele>
        <time>2010-11-28T13:57:58Z</time>
      </trkpt>
      <trkpt lat="45.72247" lon="4.89915">
        <ele>195</ele>
        <time>2010-11-28T13:57:59Z</time>
      </trkpt>
      <trkpt lat="45.72253" lon="4.89953">
        <ele>201</ele>
        <time>2010-11-28T13:58:03Z</time>
      </trkpt>
      <trkpt lat="45.72253" lon="4.89961">
        <ele>201</ele>
        <time>2010-11-28T13:58:04Z</time>
      </trkpt>
      <trkpt lat="45.72243" lon="4.89996">
        <ele>197</ele>
        <time>2010-11-28T13:58:09Z</time>
      </trkpt>
      <trkpt lat="45.72233" lon="4.90014">
        <ele>198</ele>
        <time>2010-11-28T13:58:13Z</time>
      </trkpt>
      <trkpt lat="45.72224" lon="4.90034">
        <ele>198</ele>
        <time>2010-11-28T13:58:17Z</time>
      </trkpt>
      <trkpt lat="45.72212" lon="4.90062">
        <ele>198</ele>
        <time>2010-11-28T13:58:23Z</time>
      </trkpt>
      <trkpt lat="45.72208" lon="4.90081">
        <ele>198</ele>
        <time>2010-11-28T13:58:27Z</time>
      </trkpt>
      <trkpt lat="45.72203" lon="4.90093">
        <ele>199</ele>
        <time>2010-11-28T13:58:30Z</time>
      </trkpt>
      <trkpt lat="45.72205" lon="4.90121">
        <ele>199</ele>
        <time>2010-11-28T13:58:33Z</time>
      </trkpt>
      <trkpt lat="45.72198" lon="4.90149">
        <ele>198</ele>
        <time>2010-11-28T13:58:37Z</time>
      </trkpt>
      <trkpt lat="45.72194" lon="4.90178">
        <ele>197</ele>
        <time>2010-11-28T13:58:43Z</time>
      </trkpt>
      <trkpt lat="45.72194" lon="4.902">
        <ele>197</ele>
        <time>2010-11-28T13:58:47Z</time>
      </trkpt>
      <trkpt lat="45.72198" lon="4.9023">
        <ele>197</ele>
        <time>2010-11-28T13:58:53Z</time>
      </trkpt>
      <trkpt lat="45.72201" lon="4.90255">
        <ele>197</ele>
        <time>2010-11-28T13:58:57Z</time>
      </trkpt>
      <trkpt lat="45.72199" lon="4.90272">
        <ele>197</ele>
        <time>2010-11-28T13:59:00Z</time>
      </trkpt>
      <trkpt lat="45.722" lon="4.903">
        <ele>197</ele>
        <time>2010-11-28T13:59:03Z</time>
      </trkpt>
      <trkpt lat="45.72202" lon="4.90321">
        <ele>197</ele>
        <time>2010-11-28T13:59:05Z</time>
      </trkpt>
      <trkpt lat="45.72201" lon="4.90391">
        <ele>196</ele>
        <time>2010-11-28T13:59:09Z</time>
      </trkpt>
      <trkpt lat="45.72219" lon="4.9042">
        <ele>195</ele>
        <time>2010-11-28T13:59:13Z</time>
      </trkpt>
      <trkpt lat="45.7224" lon="4.90443">
        <ele>195</ele>
        <time>2010-11-28T13:59:19Z</time>
      </trkpt>
      <trkpt lat="45.72254" lon="4.90463">
        <ele>198</ele>
        <time>2010-11-28T13:59:24Z</time>
      </trkpt>
      <trkpt lat="45.7226" lon="4.90481">
        <ele>197</ele>
        <time>2010-11-28T13:59:29Z</time>
      </trkpt>
      <trkpt lat="45.72271" lon="4.905">
        <ele>197</ele>
        <time>2010-11-28T13:59:33Z</time>
      </trkpt>
      <trkpt lat="45.72286" lon="4.90526">
        <ele>196</ele>
        <time>2010-11-28T13:59:37Z</time>
      </trkpt>
      <trkpt lat="45.72302" lon="4.90558">
        <ele>196</ele>
        <time>2010-11-28T13:59:42Z</time>
      </trkpt>
      <trkpt lat="45.7231" lon="4.90579">
        <ele>197</ele>
        <time>2010-11-28T13:59:46Z</time>
      </trkpt>
      <trkpt lat="45.72313" lon="4.90587">
        <ele>196</ele>
        <time>2010-11-28T13:59:47Z</time>
      </trkpt>
      <trkpt lat="45.72321" lon="4.90616">
        <ele>195</ele>
        <time>2010-11-28T13:59:51Z</time>
      </trkpt>
      <trkpt lat="45.72324" lon="4.90642">
        <ele>195</ele>
        <time>2010-11-28T13:59:56Z</time>
      </trkpt>
      <trkpt lat="45.72335" lon="4.90667">
        <ele>196</ele>
        <time>2010-11-28T14:00:02Z</time>
      </trkpt>
      <trkpt lat="45.72346" lon="4.90687">
        <ele>198</ele>
        <time>2010-11-28T14:00:08Z</time>
      </trkpt>
      <trkpt lat="45.72353" lon="4.90702">
        <ele>199</ele>
        <time>2010-11-28T14:00:13Z</time>
      </trkpt>
      <trkpt lat="45.72364" lon="4.90717">
        <ele>199</ele>
        <time>2010-11-28T14:00:18Z</time>
      </trkpt>
      <trkpt lat="45.72369" lon="4.90729">
        <ele>199</ele>
        <time>2010-11-28T14:00:24Z</time>
      </trkpt>
      <trkpt lat="45.72373" lon="4.90749">
        <ele>200</ele>
        <time>2010-11-28T14:00:29Z</time>
      </trkpt>
      <trkpt lat="45.72376" lon="4.90762">
        <ele>198</ele>
        <time>2010-11-28T14:00:32Z</time>
      </trkpt>
      <trkpt lat="45.72394" lon="4.90796">
        <ele>198</ele>
        <time>2010-11-28T14:00:38Z</time>
      </trkpt>
      <trkpt lat="45.72403" lon="4.90814">
        <ele>199</ele>
        <time>2010-11-28T14:00:42Z</time>
      </trkpt>
      <trkpt lat="45.72408" lon="4.90835">
        <ele>198</ele>
        <time>2010-11-28T14:00:47Z</time>
      </trkpt>
      <trkpt lat="45.7242" lon="4.90847">
        <ele>201</ele>
        <time>2010-11-28T14:00:52Z</time>
      </trkpt>
      <trkpt lat="45.72424" lon="4.90851">
        <ele>201</ele>
        <time>2010-11-28T14:00:56Z</time>
      </trkpt>
      <trkpt lat="45.72425" lon="4.90851">
        <ele>201</ele>
        <time>2010-11-28T14:00:57Z</time>
      </trkpt>
      <trkpt lat="45.72434" lon="4.90849">
        <ele>201</ele>
        <time>2010-11-28T14:01:02Z</time>
      </trkpt>
      <trkpt lat="45.72451" lon="4.90854">
        <ele>201</ele>
        <time>2010-11-28T14:01:07Z</time>
      </trkpt>
      <trkpt lat="45.72466" lon="4.9085">
        <ele>202</ele>
        <time>2010-11-28T14:01:12Z</time>
      </trkpt>
      <trkpt lat="45.72484" lon="4.90848">
        <ele>202</ele>
        <time>2010-11-28T14:01:16Z</time>
      </trkpt>
      <trkpt lat="45.72492" lon="4.90848">
        <ele>202</ele>
        <time>2010-11-28T14:01:20Z</time>
      </trkpt>
      <trkpt lat="45.7249" lon="4.9088">
        <ele>202</ele>
        <time>2010-11-28T14:01:26Z</time>
      </trkpt>
      <trkpt lat="45.72488" lon="4.90907">
        <ele>203</ele>
        <time>2010-11-28T14:01:31Z</time>
      </trkpt>
      <trkpt lat="45.72482" lon="4.90927">
        <ele>204</ele>
        <time>2010-11-28T14:01:36Z</time>
      </trkpt>
      <trkpt lat="45.72483" lon="4.90949">
        <ele>204</ele>
        <time>2010-11-28T14:01:41Z</time>
      </trkpt>
      <trkpt lat="45.72484" lon="4.90971">
        <ele>205</ele>
        <time>2010-11-28T14:01:45Z</time>
      </trkpt>
      <trkpt lat="45.72487" lon="4.90991">
        <ele>206</ele>
        <time>2010-11-28T14:01:50Z</time>
      </trkpt>
      <trkpt lat="45.72491" lon="4.91012">
        <ele>207</ele>
        <time>2010-11-28T14:01:55Z</time>
      </trkpt>
      <trkpt lat="45.7249" lon="4.91024">
        <ele>206</ele>
        <time>2010-11-28T14:01:58Z</time>
      </trkpt>
      <trkpt lat="45.72482" lon="4.91057">
        <ele>206</ele>
        <time>2010-11-28T14:02:05Z</time>
      </trkpt>
      <trkpt lat="45.72478" lon="4.9108">
        <ele>206</ele>
        <time>2010-11-28T14:02:10Z</time>
      </trkpt>
      <trkpt lat="45.7247" lon="4.91098">
        <ele>205</ele>
        <time>2010-11-28T14:02:15Z</time>
      </trkpt>
      <trkpt lat="45.72465" lon="4.91119">
        <ele>204</ele>
        <time>2010-11-28T14:02:20Z</time>
      </trkpt>
      <trkpt lat="45.72457" lon="4.91136">
        <ele>204</ele>
        <time>2010-11-28T14:02:25Z</time>
      </trkpt>
      <trkpt lat="45.72455" lon="4.91143">
        <ele>204</ele>
        <time>2010-11-28T14:02:27Z</time>
      </trkpt>
      <trkpt lat="45.72459" lon="4.91172">
        <ele>205</ele>
        <time>2010-11-28T14:02:32Z</time>
      </trkpt>
      <trkpt lat="45.72467" lon="4.91208">
        <ele>206</ele>
        <time>2010-11-28T14:02:36Z</time>
      </trkpt>
      <trkpt lat="45.72468" lon="4.91249">
        <ele>207</ele>
        <time>2010-11-28T14:02:40Z</time>
      </trkpt>
      <trkpt lat="45.72474" lon="4.91287">
        <ele>208</ele>
        <time>2010-11-28T14:02:44Z</time>
      </trkpt>
      <trkpt lat="45.72469" lon="4.91333">
        <ele>208</ele>
        <time>2010-11-28T14:02:48Z</time>
      </trkpt>
      <trkpt lat="45.72467" lon="4.91343">
        <ele>206</ele>
        <time>2010-11-28T14:02:49Z</time>
      </trkpt>
      <trkpt lat="45.72468" lon="4.91373">
        <ele>205</ele>
        <time>2010-11-28T14:02:53Z</time>
      </trkpt>
      <trkpt lat="45.72451" lon="4.91363">
        <ele>205</ele>
        <time>2010-11-28T14:02:57Z</time>
      </trkpt>
      <trkpt lat="45.72437" lon="4.91372">
        <ele>204</ele>
        <time>2010-11-28T14:03:01Z</time>
      </trkpt>
      <trkpt lat="45.72435" lon="4.91378">
        <ele>204</ele>
        <time>2010-11-28T14:03:05Z</time>
      </trkpt>
      <trkpt lat="45.72433" lon="4.91377">
        <ele>204</ele>
        <time>2010-11-28T14:03:06Z</time>
      </trkpt>
      <trkpt lat="45.72419" lon="4.9138">
        <ele>204</ele>
        <time>2010-11-28T14:03:13Z</time>
      </trkpt>
      <trkpt lat="45.72414" lon="4.91378">
        <ele>200</ele>
        <time>2010-11-28T14:03:15Z</time>
      </trkpt>
      <trkpt lat="45.72401" lon="4.9136">
        <ele>201</ele>
        <time>2010-11-28T14:03:20Z</time>
      </trkpt>
      <trkpt lat="45.72394" lon="4.91335">
        <ele>201</ele>
        <time>2010-11-28T14:03:24Z</time>
      </trkpt>
      <trkpt lat="45.72385" lon="4.91336">
        <ele>200</ele>
        <time>2010-11-28T14:03:25Z</time>
      </trkpt>
      <trkpt lat="45.72355" lon="4.91352">
        <ele>197</ele>
        <time>2010-11-28T14:03:29Z</time>
      </trkpt>
      <trkpt lat="45.72336" lon="4.91388">
        <ele>197</ele>
        <time>2010-11-28T14:03:33Z</time>
      </trkpt>
      <trkpt lat="45.72324" lon="4.91399">
        <ele>194</ele>
        <time>2010-11-28T14:03:34Z</time>
      </trkpt>
      <trkpt lat="45.723" lon="4.91417">
        <ele>193</ele>
        <time>2010-11-28T14:03:39Z</time>
      </trkpt>
      <trkpt lat="45.72298" lon="4.91402">
        <ele>193</ele>
        <time>2010-11-28T14:03:41Z</time>
      </trkpt>
      <trkpt lat="45.72293" lon="4.91398">
        <ele>193</ele>
        <time>2010-11-28T14:03:42Z</time>
      </trkpt>
      <trkpt lat="45.7227" lon="4.91376">
        <ele>193</ele>
        <time>2010-11-28T14:03:48Z</time>
      </trkpt>
      <trkpt lat="45.72259" lon="4.91352">
        <ele>192</ele>
        <time>2010-11-28T14:03:53Z</time>
      </trkpt>
      <trkpt lat="45.72238" lon="4.91343">
        <ele>190</ele>
        <time>2010-11-28T14:03:57Z</time>
      </trkpt>
      <trkpt lat="45.72223" lon="4.91338">
        <ele>190</ele>
        <time>2010-11-28T14:04:01Z</time>
      </trkpt>
      <trkpt lat="45.72202" lon="4.91332">
        <ele>188</ele>
        <time>2010-11-28T14:04:05Z</time>
      </trkpt>
      <trkpt lat="45.72182" lon="4.91328">
        <ele>188</ele>
        <time>2010-11-28T14:04:08Z</time>
      </trkpt>
      <trkpt lat="45.72147" lon="4.91314">
        <ele>188</ele>
        <time>2010-11-28T14:04:14Z</time>
      </trkpt>
      <trkpt lat="45.72113" lon="4.91294">
        <ele>188</ele>
        <time>2010-11-28T14:04:21Z</time>
      </trkpt>
      <trkpt lat="45.72083" lon="4.91274">
        <ele>189</ele>
        <time>2010-11-28T14:04:27Z</time>
      </trkpt>
      <trkpt lat="45.72057" lon="4.91251">
        <ele>189</ele>
        <time>2010-11-28T14:04:33Z</time>
      </trkpt>
      <trkpt lat="45.72038" lon="4.91225">
        <ele>189</ele>
        <time>2010-11-28T14:04:38Z</time>
      </trkpt>
      <trkpt lat="45.72015" lon="4.91191">
        <ele>189</ele>
        <time>2010-11-28T14:04:45Z</time>
      </trkpt>
      <trkpt lat="45.72009" lon="4.91182">
        <ele>188</ele>
        <time>2010-11-28T14:04:47Z</time>
      </trkpt>
      <trkpt lat="45.71993" lon="4.9116">
        <ele>188</ele>
        <time>2010-11-28T14:04:52Z</time>
      </trkpt>
      <trkpt lat="45.71971" lon="4.91129">
        <ele>188</ele>
        <time>2010-11-28T14:04:59Z</time>
      </trkpt>
      <trkpt lat="45.7195" lon="4.91099">
        <ele>188</ele>
        <time>2010-11-28T14:05:06Z</time>
      </trkpt>
      <trkpt lat="45.71935" lon="4.91085">
        <ele>188</ele>
        <time>2010-11-28T14:05:10Z</time>
      </trkpt>
      <trkpt lat="45.71922" lon="4.91066">
        <ele>189</ele>
        <time>2010-11-28T14:05:14Z</time>
      </trkpt>
      <trkpt lat="45.71907" lon="4.91029">
        <ele>189</ele>
        <time>2010-11-28T14:05:20Z</time>
      </trkpt>
      <trkpt lat="45.71902" lon="4.91008">
        <ele>189</ele>
        <time>2010-11-28T14:05:23Z</time>
      </trkpt>
      <trkpt lat="45.719" lon="4.90952">
        <ele>189</ele>
        <time>2010-11-28T14:05:31Z</time>
      </trkpt>
      <trkpt lat="45.71901" lon="4.90945">
        <ele>189</ele>
        <time>2010-11-28T14:05:32Z</time>
      </trkpt>
      <trkpt lat="45.71901" lon="4.90914">
        <ele>190</ele>
        <time>2010-11-28T14:05:38Z</time>
      </trkpt>
      <trkpt lat="45.71901" lon="4.90901">
        <ele>190</ele>
        <time>2010-11-28T14:05:39Z</time>
      </trkpt>
      <trkpt lat="45.71906" lon="4.90867">
        <ele>190</ele>
        <time>2010-11-28T14:05:44Z</time>
      </trkpt>
      <trkpt lat="45.71906" lon="4.90841">
        <ele>190</ele>
        <time>2010-11-28T14:05:50Z</time>
      </trkpt>
      <trkpt lat="45.7191" lon="4.9082">
        <ele>190</ele>
        <time>2010-11-28T14:05:52Z</time>
      </trkpt>
      <trkpt lat="45.71912" lon="4.90787">
        <ele>190</ele>
        <time>2010-11-28T14:05:56Z</time>
      </trkpt>
      <trkpt lat="45.71909" lon="4.90732">
        <ele>189</ele>
        <time>2010-11-28T14:06:04Z</time>
      </trkpt>
      <trkpt lat="45.71906" lon="4.90719">
        <ele>189</ele>
        <time>2010-11-28T14:06:06Z</time>
      </trkpt>
      <trkpt lat="45.719" lon="4.90701">
        <ele>189</ele>
        <time>2010-11-28T14:06:09Z</time>
      </trkpt>
      <trkpt lat="45.71891" lon="4.90672">
        <ele>189</ele>
        <time>2010-11-28T14:06:14Z</time>
      </trkpt>
      <trkpt lat="45.71877" lon="4.90634">
        <ele>189</ele>
        <time>2010-11-28T14:06:21Z</time>
      </trkpt>
      <trkpt lat="45.71868" lon="4.90614">
        <ele>189</ele>
        <time>2010-11-28T14:06:25Z</time>
      </trkpt>
      <trkpt lat="45.71854" lon="4.90587">
        <ele>190</ele>
        <time>2010-11-28T14:06:30Z</time>
      </trkpt>
      <trkpt lat="45.71845" lon="4.90566">
        <ele>190</ele>
        <time>2010-11-28T14:06:34Z</time>
      </trkpt>
      <trkpt lat="45.71832" lon="4.90535">
        <ele>192</ele>
        <time>2010-11-28T14:06:39Z</time>
      </trkpt>
      <trkpt lat="45.71815" lon="4.90499">
        <ele>193</ele>
        <time>2010-11-28T14:06:45Z</time>
      </trkpt>
      <trkpt lat="45.71801" lon="4.9047">
        <ele>192</ele>
        <time>2010-11-28T14:06:50Z</time>
      </trkpt>
      <trkpt lat="45.7179" lon="4.90445">
        <ele>191</ele>
        <time>2010-11-28T14:06:54Z</time>
      </trkpt>
      <trkpt lat="45.71772" lon="4.90455">
        <ele>191</ele>
        <time>2010-11-28T14:06:57Z</time>
      </trkpt>
      <trkpt lat="45.71739" lon="4.90479">
        <ele>192</ele>
        <time>2010-11-28T14:07:03Z</time>
      </trkpt>
      <trkpt lat="45.71733" lon="4.90483">
        <ele>192</ele>
        <time>2010-11-28T14:07:04Z</time>
      </trkpt>
      <trkpt lat="45.71718" lon="4.90489">
        <ele>192</ele>
        <time>2010-11-28T14:07:07Z</time>
      </trkpt>
      <trkpt lat="45.71696" lon="4.90492">
        <ele>191</ele>
        <time>2010-11-28T14:07:12Z</time>
      </trkpt>
      <trkpt lat="45.71678" lon="4.9049">
        <ele>191</ele>
        <time>2010-11-28T14:07:17Z</time>
      </trkpt>
      <trkpt lat="45.71658" lon="4.90486">
        <ele>191</ele>
        <time>2010-11-28T14:07:22Z</time>
      </trkpt>
      <trkpt lat="45.71643" lon="4.90483">
        <ele>192</ele>
        <time>2010-11-28T14:07:26Z</time>
      </trkpt>
      <trkpt lat="45.7163" lon="4.90486">
        <ele>192</ele>
        <time>2010-11-28T14:07:28Z</time>
      </trkpt>
      <trkpt lat="45.71606" lon="4.90515">
        <ele>190</ele>
        <time>2010-11-28T14:07:33Z</time>
      </trkpt>
      <trkpt lat="45.71598" lon="4.90535">
        <ele>190</ele>
        <time>2010-11-28T14:07:36Z</time>
      </trkpt>
      <trkpt lat="45.71582" lon="4.90568">
        <ele>191</ele>
        <time>2010-11-28T14:07:42Z</time>
      </trkpt>
      <trkpt lat="45.7157" lon="4.90594">
        <ele>191</ele>
        <time>2010-11-28T14:07:47Z</time>
      </trkpt>
      <trkpt lat="45.71551" lon="4.90608">
        <ele>191</ele>
        <time>2010-11-28T14:07:52Z</time>
      </trkpt>
      <trkpt lat="45.71548" lon="4.9061">
        <ele>191</ele>
        <time>2010-11-28T14:07:53Z</time>
      </trkpt>
      <trkpt lat="45.7154" lon="4.9059">
        <ele>191</ele>
        <time>2010-11-28T14:07:57Z</time>
      </trkpt>
      <trkpt lat="45.71521" lon="4.90566">
        <ele>191</ele>
        <time>2010-11-28T14:08:03Z</time>
      </trkpt>
      <trkpt lat="45.71506" lon="4.90551">
        <ele>191</ele>
        <time>2010-11-28T14:08:07Z</time>
      </trkpt>
      <trkpt lat="45.7149" lon="4.90526">
        <ele>191</ele>
        <time>2010-11-28T14:08:13Z</time>
      </trkpt>
      <trkpt lat="45.71467" lon="4.90499">
        <ele>192</ele>
        <time>2010-11-28T14:08:19Z</time>
      </trkpt>
      <trkpt lat="45.71446" lon="4.90468">
        <ele>191</ele>
        <time>2010-11-28T14:08:24Z</time>
      </trkpt>
      <trkpt lat="45.71431" lon="4.90461">
        <ele>191</ele>
        <time>2010-11-28T14:08:27Z</time>
      </trkpt>
      <trkpt lat="45.71408" lon="4.90459">
        <ele>191</ele>
        <time>2010-11-28T14:08:31Z</time>
      </trkpt>
      <trkpt lat="45.71399" lon="4.9043">
        <ele>192</ele>
        <time>2010-11-28T14:08:36Z</time>
      </trkpt>
      <trkpt lat="45.71387" lon="4.90409">
        <ele>192</ele>
        <time>2010-11-28T14:08:40Z</time>
      </trkpt>
      <trkpt lat="45.71385" lon="4.90404">
        <ele>192</ele>
        <time>2010-11-28T14:08:41Z</time>
      </trkpt>
      <trkpt lat="45.71366" lon="4.90385">
        <ele>192</ele>
        <time>2010-11-28T14:08:46Z</time>
      </trkpt>
      <trkpt lat="45.71354" lon="4.90372">
        <ele>192</ele>
        <time>2010-11-28T14:08:49Z</time>
      </trkpt>
      <trkpt lat="45.71345" lon="4.90341">
        <ele>191</ele>
        <time>2010-11-28T14:08:54Z</time>
      </trkpt>
      <trkpt lat="45.71337" lon="4.90325">
        <ele>191</ele>
        <time>2010-11-28T14:08:57Z</time>
      </trkpt>
      <trkpt lat="45.7132" lon="4.90294">
        <ele>191</ele>
        <time>2010-11-28T14:09:03Z</time>
      </trkpt>
      <trkpt lat="45.71317" lon="4.90288">
        <ele>192</ele>
        <time>2010-11-28T14:09:04Z</time>
      </trkpt>
      <trkpt lat="45.71289" lon="4.90261">
        <ele>192</ele>
        <time>2010-11-28T14:09:11Z</time>
      </trkpt>
      <trkpt lat="45.71273" lon="4.90242">
        <ele>192</ele>
        <time>2010-11-28T14:09:16Z</time>
      </trkpt>
      <trkpt lat="45.71261" lon="4.90235">
        <ele>192</ele>
        <time>2010-11-28T14:09:20Z</time>
      </trkpt>
      <trkpt lat="45.71254" lon="4.90236">
        <ele>192</ele>
        <time>2010-11-28T14:09:22Z</time>
      </trkpt>
      <trkpt lat="45.71247" lon="4.90207">
        <ele>191</ele>
        <time>2010-11-28T14:09:27Z</time>
      </trkpt>
      <trkpt lat="45.71252" lon="4.90198">
        <ele>191</ele>
        <time>2010-11-28T14:09:29Z</time>
      </trkpt>
      <trkpt lat="45.71258" lon="4.9019">
        <ele>191</ele>
        <time>2010-11-28T14:09:31Z</time>
      </trkpt>
      <trkpt lat="45.71266" lon="4.90178">
        <ele>191</ele>
        <time>2010-11-28T14:09:33Z</time>
      </trkpt>
      <trkpt lat="45.71279" lon="4.90156">
        <ele>190</ele>
        <time>2010-11-28T14:09:38Z</time>
      </trkpt>
      <trkpt lat="45.71283" lon="4.90151">
        <ele>191</ele>
        <time>2010-11-28T14:09:39Z</time>
      </trkpt>
      <trkpt lat="45.71305" lon="4.90114">
        <ele>191</ele>
        <time>2010-11-28T14:09:46Z</time>
      </trkpt>
      <trkpt lat="45.71312" lon="4.90096">
        <ele>191</ele>
        <time>2010-11-28T14:09:49Z</time>
      </trkpt>
      <trkpt lat="45.71326" lon="4.90072">
        <ele>192</ele>
        <time>2010-11-28T14:09:54Z</time>
      </trkpt>
      <trkpt lat="45.71342" lon="4.90048">
        <ele>193</ele>
        <time>2010-11-28T14:09:59Z</time>
      </trkpt>
      <trkpt lat="45.7135" lon="4.90036">
        <ele>193</ele>
        <time>2010-11-28T14:10:02Z</time>
      </trkpt>
      <trkpt lat="45.71355" lon="4.90027">
        <ele>193</ele>
        <time>2010-11-28T14:10:04Z</time>
      </trkpt>
      <trkpt lat="45.71368" lon="4.90002">
        <ele>193</ele>
        <time>2010-11-28T14:10:08Z</time>
      </trkpt>
      <trkpt lat="45.71374" lon="4.89992">
        <ele>194</ele>
        <time>2010-11-28T14:10:10Z</time>
      </trkpt>
      <trkpt lat="45.71391" lon="4.89964">
        <ele>194</ele>
        <time>2010-11-28T14:10:16Z</time>
      </trkpt>
      <trkpt lat="45.71398" lon="4.89955">
        <ele>194</ele>
        <time>2010-11-28T14:10:18Z</time>
      </trkpt>
      <trkpt lat="45.7142" lon="4.89916">
        <ele>193</ele>
        <time>2010-11-28T14:10:25Z</time>
      </trkpt>
      <trkpt lat="45.71427" lon="4.89906">
        <ele>192</ele>
        <time>2010-11-28T14:10:27Z</time>
      </trkpt>
      <trkpt lat="45.71448" lon="4.89875">
        <ele>192</ele>
        <time>2010-11-28T14:10:33Z</time>
      </trkpt>
      <trkpt lat="45.71457" lon="4.89864">
        <ele>192</ele>
        <time>2010-11-28T14:10:35Z</time>
      </trkpt>
      <trkpt lat="45.71469" lon="4.89837">
        <ele>192</ele>
        <time>2010-11-28T14:10:40Z</time>
      </trkpt>
      <trkpt lat="45.71486" lon="4.89812">
        <ele>192</ele>
        <time>2010-11-28T14:10:45Z</time>
      </trkpt>
      <trkpt lat="45.71495" lon="4.89797">
        <ele>192</ele>
        <time>2010-11-28T14:10:49Z</time>
      </trkpt>
      <trkpt lat="45.71513" lon="4.89778">
        <ele>191</ele>
        <time>2010-11-28T14:10:54Z</time>
      </trkpt>
      <trkpt lat="45.71524" lon="4.89771">
        <ele>190</ele>
        <time>2010-11-28T14:10:56Z</time>
      </trkpt>
      <trkpt lat="45.71551" lon="4.89778">
        <ele>189</ele>
        <time>2010-11-28T14:11:01Z</time>
      </trkpt>
      <trkpt lat="45.71552" lon="4.89795">
        <ele>189</ele>
        <time>2010-11-28T14:11:04Z</time>
      </trkpt>
      <trkpt lat="45.71552" lon="4.8981">
        <ele>188</ele>
        <time>2010-11-28T14:11:06Z</time>
      </trkpt>
      <trkpt lat="45.71555" lon="4.89843">
        <ele>188</ele>
        <time>2010-11-28T14:11:11Z</time>
      </trkpt>
      <trkpt lat="45.71557" lon="4.89865">
        <ele>188</ele>
        <time>2010-11-28T14:11:14Z</time>
      </trkpt>
      <trkpt lat="45.71562" lon="4.89896">
        <ele>188</ele>
        <time>2010-11-28T14:11:19Z</time>
      </trkpt>
      <trkpt lat="45.71569" lon="4.89915">
        <ele>187</ele>
        <time>2010-11-28T14:11:22Z</time>
      </trkpt>
      <trkpt lat="45.71587" lon="4.89941">
        <ele>187</ele>
        <time>2010-11-28T14:11:27Z</time>
      </trkpt>
      <trkpt lat="45.71601" lon="4.89951">
        <ele>187</ele>
        <time>2010-11-28T14:11:30Z</time>
      </trkpt>
      <trkpt lat="45.71609" lon="4.89956">
        <ele>187</ele>
        <time>2010-11-28T14:11:32Z</time>
      </trkpt>
      <trkpt lat="45.71626" lon="4.89959">
        <ele>187</ele>
        <time>2010-11-28T14:11:36Z</time>
      </trkpt>
      <trkpt lat="45.71636" lon="4.89959">
        <ele>187</ele>
        <time>2010-11-28T14:11:38Z</time>
      </trkpt>
      <trkpt lat="45.71656" lon="4.89955">
        <ele>186</ele>
        <time>2010-11-28T14:11:42Z</time>
      </trkpt>
      <trkpt lat="45.7167" lon="4.89941">
        <ele>185</ele>
        <time>2010-11-28T14:11:46Z</time>
      </trkpt>
      <trkpt lat="45.71688" lon="4.89917">
        <ele>185</ele>
        <time>2010-11-28T14:11:52Z</time>
      </trkpt>
      <trkpt lat="45.71706" lon="4.89893">
        <ele>184</ele>
        <time>2010-11-28T14:11:57Z</time>
      </trkpt>
      <trkpt lat="45.7171" lon="4.89888">
        <ele>184</ele>
        <time>2010-11-28T14:11:58Z</time>
      </trkpt>
      <trkpt lat="45.71719" lon="4.8988">
        <ele>184</ele>
        <time>2010-11-28T14:12:00Z</time>
      </trkpt>
      <trkpt lat="45.71735" lon="4.89864">
        <ele>185</ele>
        <time>2010-11-28T14:12:04Z</time>
      </trkpt>
      <trkpt lat="45.71748" lon="4.89855">
        <ele>185</ele>
        <time>2010-11-28T14:12:07Z</time>
      </trkpt>
      <trkpt lat="45.71768" lon="4.89849">
        <ele>187</ele>
        <time>2010-11-28T14:12:11Z</time>
      </trkpt>
      <trkpt lat="45.71787" lon="4.8984">
        <ele>187</ele>
        <time>2010-11-28T14:12:15Z</time>
      </trkpt>
      <trkpt lat="45.71807" lon="4.89831">
        <ele>185</ele>
        <time>2010-11-28T14:12:19Z</time>
      </trkpt>
      <trkpt lat="45.71842" lon="4.89819">
        <ele>184</ele>
        <time>2010-11-28T14:12:26Z</time>
      </trkpt>
      <trkpt lat="45.71846" lon="4.89819">
        <ele>184</ele>
        <time>2010-11-28T14:12:27Z</time>
      </trkpt>
      <trkpt lat="45.71856" lon="4.89818">
        <ele>184</ele>
        <time>2010-11-28T14:12:29Z</time>
      </trkpt>
      <trkpt lat="45.7187" lon="4.89819">
        <ele>183</ele>
        <time>2010-11-28T14:12:32Z</time>
      </trkpt>
      <trkpt lat="45.71885" lon="4.89819">
        <ele>183</ele>
        <time>2010-11-28T14:12:35Z</time>
      </trkpt>
      <trkpt lat="45.71915" lon="4.89816">
        <ele>183</ele>
        <time>2010-11-28T14:12:41Z</time>
      </trkpt>
      <trkpt lat="45.71951" lon="4.89812">
        <ele>183</ele>
        <time>2010-11-28T14:12:48Z</time>
      </trkpt>
      <trkpt lat="45.71986" lon="4.89813">
        <ele>183</ele>
        <time>2010-11-28T14:12:55Z</time>
      </trkpt>
      <trkpt lat="45.71991" lon="4.89813">
        <ele>183</ele>
        <time>2010-11-28T14:12:56Z</time>
      </trkpt>
      <trkpt lat="45.72014" lon="4.89813">
        <ele>184</ele>
        <time>2010-11-28T14:13:01Z</time>
      </trkpt>
      <trkpt lat="45.72027" lon="4.89815">
        <ele>184</ele>
        <time>2010-11-28T14:13:04Z</time>
      </trkpt>
      <trkpt lat="45.72063" lon="4.89812">
        <ele>184</ele>
        <time>2010-11-28T14:13:12Z</time>
      </trkpt>
      <trkpt lat="45.72068" lon="4.89811">
        <ele>184</ele>
        <time>2010-11-28T14:13:13Z</time>
      </trkpt>
      <trkpt lat="45.72099" lon="4.89797">
        <ele>187</ele>
        <time>2010-11-28T14:13:20Z</time>
      </trkpt>
      <trkpt lat="45.72122" lon="4.89783">
        <ele>187</ele>
        <time>2010-11-28T14:13:26Z</time>
      </trkpt>
      <trkpt lat="45.72139" lon="4.89768">
        <ele>188</ele>
        <time>2010-11-28T14:13:31Z</time>
      </trkpt>
      <trkpt lat="45.72145" lon="4.89761">
        <ele>188</ele>
        <time>2010-11-28T14:13:33Z</time>
      </trkpt>
      <trkpt lat="45.72163" lon="4.89726">
        <ele>187</ele>
        <time>2010-11-28T14:13:39Z</time>
      </trkpt>
      <trkpt lat="45.72178" lon="4.897">
        <ele>190</ele>
        <time>2010-11-28T14:13:45Z</time>
      </trkpt>
      <trkpt lat="45.7219" lon="4.8968">
        <ele>190</ele>
        <time>2010-11-28T14:13:49Z</time>
      </trkpt>
      <trkpt lat="45.722" lon="4.89655">
        <ele>189</ele>
        <time>2010-11-28T14:13:54Z</time>
      </trkpt>
      <trkpt lat="45.72208" lon="4.89648">
        <ele>190</ele>
        <time>2010-11-28T14:13:56Z</time>
      </trkpt>
      <trkpt lat="45.72223" lon="4.89658">
        <ele>191</ele>
        <time>2010-11-28T14:14:00Z</time>
      </trkpt>
      <trkpt lat="45.72237" lon="4.89671">
        <ele>193</ele>
        <time>2010-11-28T14:14:04Z</time>
      </trkpt>
      <trkpt lat="45.72258" lon="4.89684">
        <ele>196</ele>
        <time>2010-11-28T14:14:10Z</time>
      </trkpt>
      <trkpt lat="45.72268" lon="4.89689">
        <ele>197</ele>
        <time>2010-11-28T14:14:14Z</time>
      </trkpt>
      <trkpt lat="45.72281" lon="4.89699">
        <ele>198</ele>
        <time>2010-11-28T14:14:19Z</time>
      </trkpt>
      <trkpt lat="45.72292" lon="4.89703">
        <ele>199</ele>
        <time>2010-11-28T14:14:25Z</time>
      </trkpt>
      <trkpt lat="45.72289" lon="4.89721">
        <ele>199</ele>
        <time>2010-11-28T14:14:30Z</time>
      </trkpt>
      <trkpt lat="45.72289" lon="4.89739">
        <ele>199</ele>
        <time>2010-11-28T14:14:34Z</time>
      </trkpt>
      <trkpt lat="45.72286" lon="4.89754">
        <ele>199</ele>
        <time>2010-11-28T14:14:37Z</time>
      </trkpt>
      <trkpt lat="45.72274" lon="4.89785">
        <ele>199</ele>
        <time>2010-11-28T14:14:43Z</time>
      </trkpt>
      <trkpt lat="45.72276" lon="4.89824">
        <ele>199</ele>
        <time>2010-11-28T14:14:48Z</time>
      </trkpt>
      <trkpt lat="45.72276" lon="4.8983">
        <ele>198</ele>
        <time>2010-11-28T14:14:49Z</time>
      </trkpt>
      <trkpt lat="45.72272" lon="4.89853">
        <ele>200</ele>
        <time>2010-11-28T14:14:54Z</time>
      </trkpt>
      <trkpt lat="45.72272" lon="4.89876">
        <ele>200</ele>
        <time>2010-11-28T14:14:58Z</time>
      </trkpt>
      <trkpt lat="45.72269" lon="4.89887">
        <ele>200</ele>
        <time>2010-11-28T14:15:00Z</time>
      </trkpt>
      <trkpt lat="45.72258" lon="4.89906">
        <ele>198</ele>
        <time>2010-11-28T14:15:05Z</time>
      </trkpt>
      <trkpt lat="45.72253" lon="4.89939">
        <ele>200</ele>
        <time>2010-11-28T14:15:10Z</time>
      </trkpt>
      <trkpt lat="45.72249" lon="4.89959">
        <ele>195</ele>
        <time>2010-11-28T14:15:13Z</time>
      </trkpt>
      <trkpt lat="45.72247" lon="4.89976">
        <ele>196</ele>
        <time>2010-11-28T14:15:15Z</time>
      </trkpt>
      <trkpt lat="45.72242" lon="4.90005">
        <ele>198</ele>
        <time>2010-11-28T14:15:18Z</time>
      </trkpt>
      <trkpt lat="45.72228" lon="4.90029">
        <ele>198</ele>
        <time>2010-11-28T14:15:22Z</time>
      </trkpt>
      <trkpt lat="45.72219" lon="4.90047">
        <ele>198</ele>
        <time>2010-11-28T14:15:25Z</time>
      </trkpt>
      <trkpt lat="45.72209" lon="4.9007">
        <ele>198</ele>
        <time>2010-11-28T14:15:30Z</time>
      </trkpt>
      <trkpt lat="45.72201" lon="4.90087">
        <ele>199</ele>
        <time>2010-11-28T14:15:35Z</time>
      </trkpt>
      <trkpt lat="45.72197" lon="4.90106">
        <ele>199</ele>
        <time>2010-11-28T14:15:38Z</time>
      </trkpt>
      <trkpt lat="45.72197" lon="4.90144">
        <ele>198</ele>
        <time>2010-11-28T14:15:42Z</time>
      </trkpt>
      <trkpt lat="45.72199" lon="4.90155">
        <ele>198</ele>
        <time>2010-11-28T14:15:43Z</time>
      </trkpt>
      <trkpt lat="45.72203" lon="4.90199">
        <ele>198</ele>
        <time>2010-11-28T14:15:50Z</time>
      </trkpt>
      <trkpt lat="45.72207" lon="4.9023">
        <ele>198</ele>
        <time>2010-11-28T14:15:55Z</time>
      </trkpt>
      <trkpt lat="45.7221" lon="4.90252">
        <ele>198</ele>
        <time>2010-11-28T14:15:59Z</time>
      </trkpt>
      <trkpt lat="45.72216" lon="4.90307">
        <ele>198</ele>
        <time>2010-11-28T14:16:06Z</time>
      </trkpt>
      <trkpt lat="45.72216" lon="4.90343">
        <ele>198</ele>
        <time>2010-11-28T14:16:10Z</time>
      </trkpt>
      <trkpt lat="45.72215" lon="4.9037">
        <ele>197</ele>
        <time>2010-11-28T14:16:13Z</time>
      </trkpt>
      <trkpt lat="45.72218" lon="4.90417">
        <ele>195</ele>
        <time>2010-11-28T14:16:18Z</time>
      </trkpt>
      <trkpt lat="45.72229" lon="4.90425">
        <ele>196</ele>
        <time>2010-11-28T14:16:21Z</time>
      </trkpt>
      <trkpt lat="45.72244" lon="4.9045">
        <ele>195</ele>
        <time>2010-11-28T14:16:28Z</time>
      </trkpt>
      <trkpt lat="45.72248" lon="4.90461">
        <ele>194</ele>
        <time>2010-11-28T14:16:31Z</time>
      </trkpt>
      <trkpt lat="45.72264" lon="4.90485">
        <ele>197</ele>
        <time>2010-11-28T14:16:37Z</time>
      </trkpt>
      <trkpt lat="45.72281" lon="4.90515">
        <ele>196</ele>
        <time>2010-11-28T14:16:42Z</time>
      </trkpt>
      <trkpt lat="45.72289" lon="4.9053">
        <ele>196</ele>
        <time>2010-11-28T14:16:44Z</time>
      </trkpt>
      <trkpt lat="45.72309" lon="4.90577">
        <ele>197</ele>
        <time>2010-11-28T14:16:51Z</time>
      </trkpt>
      <trkpt lat="45.72316" lon="4.90595">
        <ele>196</ele>
        <time>2010-11-28T14:16:54Z</time>
      </trkpt>
      <trkpt lat="45.72322" lon="4.90628">
        <ele>195</ele>
        <time>2010-11-28T14:16:59Z</time>
      </trkpt>
      <trkpt lat="45.7233" lon="4.90657">
        <ele>195</ele>
        <time>2010-11-28T14:17:04Z</time>
      </trkpt>
      <trkpt lat="45.72336" lon="4.90667">
        <ele>196</ele>
        <time>2010-11-28T14:17:08Z</time>
      </trkpt>
      <trkpt lat="45.72345" lon="4.90674">
        <ele>197</ele>
        <time>2010-11-28T14:17:13Z</time>
      </trkpt>
      <trkpt lat="45.72348" lon="4.90676">
        <ele>198</ele>
        <time>2010-11-28T14:17:14Z</time>
      </trkpt>
      <trkpt lat="45.72354" lon="4.90689">
        <ele>198</ele>
        <time>2010-11-28T14:17:20Z</time>
      </trkpt>
      <trkpt lat="45.72352" lon="4.9069">
        <ele>198</ele>
        <time>2010-11-28T14:17:22Z</time>
      </trkpt>
      <trkpt lat="45.72356" lon="4.90698">
        <ele>199</ele>
        <time>2010-11-28T14:17:24Z</time>
      </trkpt>
      <trkpt lat="45.72359" lon="4.90711">
        <ele>199</ele>
        <time>2010-11-28T14:17:28Z</time>
      </trkpt>
      <trkpt lat="45.72362" lon="4.90715">
        <ele>199</ele>
        <time>2010-11-28T14:17:31Z</time>
      </trkpt>
      <trkpt lat="45.72368" lon="4.90734">
        <ele>199</ele>
        <time>2010-11-28T14:17:37Z</time>
      </trkpt>
      <trkpt lat="45.72374" lon="4.90758">
        <ele>198</ele>
        <time>2010-11-28T14:17:41Z</time>
      </trkpt>
      <trkpt lat="45.72379" lon="4.90774">
        <ele>198</ele>
        <time>2010-11-28T14:17:45Z</time>
      </trkpt>
      <trkpt lat="45.72384" lon="4.90789">
        <ele>198</ele>
        <time>2010-11-28T14:17:49Z</time>
      </trkpt>
      <trkpt lat="45.72394" lon="4.90812">
        <ele>198</ele>
        <time>2010-11-28T14:17:56Z</time>
      </trkpt>
      <trkpt lat="45.72404" lon="4.90835">
        <ele>198</ele>
        <time>2010-11-28T14:18:02Z</time>
      </trkpt>
      <trkpt lat="45.72429" lon="4.90841">
        <ele>201</ele>
        <time>2010-11-28T14:18:09Z</time>
      </trkpt>
      <trkpt lat="45.72445" lon="4.9085">
        <ele>201</ele>
        <time>2010-11-28T14:18:13Z</time>
      </trkpt>
      <trkpt lat="45.72466" lon="4.90851">
        <ele>202</ele>
        <time>2010-11-28T14:18:18Z</time>
      </trkpt>
      <trkpt lat="45.72482" lon="4.9085">
        <ele>202</ele>
        <time>2010-11-28T14:18:22Z</time>
      </trkpt>
      <trkpt lat="45.72495" lon="4.90847">
        <ele>202</ele>
        <time>2010-11-28T14:18:26Z</time>
      </trkpt>
      <trkpt lat="45.72494" lon="4.90849">
        <ele>202</ele>
        <time>2010-11-28T14:18:27Z</time>
      </trkpt>
      <trkpt lat="45.7249" lon="4.90865">
        <ele>202</ele>
        <time>2010-11-28T14:18:31Z</time>
      </trkpt>
      <trkpt lat="45.72489" lon="4.90901">
        <ele>203</ele>
        <time>2010-11-28T14:18:37Z</time>
      </trkpt>
      <trkpt lat="45.7249" lon="4.90933">
        <ele>204</ele>
        <time>2010-11-28T14:18:43Z</time>
      </trkpt>
      <trkpt lat="45.7249" lon="4.90947">
        <ele>204</ele>
        <time>2010-11-28T14:18:47Z</time>
      </trkpt>
      <trkpt lat="45.72487" lon="4.90968">
        <ele>205</ele>
        <time>2010-11-28T14:18:51Z</time>
      </trkpt>
      <trkpt lat="45.72493" lon="4.90987">
        <ele>207</ele>
        <time>2010-11-28T14:18:55Z</time>
      </trkpt>
      <trkpt lat="45.72499" lon="4.91003">
        <ele>209</ele>
        <time>2010-11-28T14:18:59Z</time>
      </trkpt>
      <trkpt lat="45.72496" lon="4.9104">
        <ele>206</ele>
        <time>2010-11-28T14:19:06Z</time>
      </trkpt>
      <trkpt lat="45.72486" lon="4.9106">
        <ele>206</ele>
        <time>2010-11-28T14:19:11Z</time>
      </trkpt>
      <trkpt lat="45.72486" lon="4.91094">
        <ele>206</ele>
        <time>2010-11-28T14:19:17Z</time>
      </trkpt>
      <trkpt lat="45.72486" lon="4.91107">
        <ele>205</ele>
        <time>2010-11-28T14:19:19Z</time>
      </trkpt>
      <trkpt lat="45.72487" lon="4.9114">
        <ele>205</ele>
        <time>2010-11-28T14:19:25Z</time>
      </trkpt>
      <trkpt lat="45.72488" lon="4.91167">
        <ele>206</ele>
        <time>2010-11-28T14:19:30Z</time>
      </trkpt>
      <trkpt lat="45.72491" lon="4.91181">
        <ele>206</ele>
        <time>2010-11-28T14:19:32Z</time>
      </trkpt>
      <trkpt lat="45.72501" lon="4.912">
        <ele>208</ele>
        <time>2010-11-28T14:19:34Z</time>
      </trkpt>
      <trkpt lat="45.72504" lon="4.91228">
        <ele>209</ele>
        <time>2010-11-28T14:19:39Z</time>
      </trkpt>
      <trkpt lat="45.72503" lon="4.9126">
        <ele>209</ele>
        <time>2010-11-28T14:19:43Z</time>
      </trkpt>
      <trkpt lat="45.72503" lon="4.91268">
        <ele>209</ele>
        <time>2010-11-28T14:19:44Z</time>
      </trkpt>
      <trkpt lat="45.72501" lon="4.91316">
        <ele>209</ele>
        <time>2010-11-28T14:19:50Z</time>
      </trkpt>
      <trkpt lat="45.72501" lon="4.91325">
        <ele>209</ele>
        <time>2010-11-28T14:19:51Z</time>
      </trkpt>
      <trkpt lat="45.72488" lon="4.91357">
        <ele>206</ele>
        <time>2010-11-28T14:19:55Z</time>
      </trkpt>
      <trkpt lat="45.72472" lon="4.91367">
        <ele>205</ele>
        <time>2010-11-28T14:19:58Z</time>
      </trkpt>
      <trkpt lat="45.72469" lon="4.91367">
        <ele>205</ele>
        <time>2010-11-28T14:19:59Z</time>
      </trkpt>
      <trkpt lat="45.72463" lon="4.91368">
        <ele>205</ele>
        <time>2010-11-28T14:20:01Z</time>
      </trkpt>
      <trkpt lat="45.72448" lon="4.91365">
        <ele>205</ele>
        <time>2010-11-28T14:20:04Z</time>
      </trkpt>
      <trkpt lat="45.72439" lon="4.91378">
        <ele>204</ele>
        <time>2010-11-28T14:20:08Z</time>
      </trkpt>
      <trkpt lat="45.72437" lon="4.91384">
        <ele>204</ele>
        <time>2010-11-28T14:20:10Z</time>
      </trkpt>
      <trkpt lat="45.72446" lon="4.91405">
        <ele>203</ele>
        <time>2010-11-28T14:20:15Z</time>
      </trkpt>
      <trkpt lat="45.72452" lon="4.91418">
        <ele>200</ele>
        <time>2010-11-28T14:20:18Z</time>
      </trkpt>
      <trkpt lat="45.72458" lon="4.91403">
        <ele>204</ele>
        <time>2010-11-28T14:20:22Z</time>
      </trkpt>
      <trkpt lat="45.72452" lon="4.91385">
        <ele>204</ele>
        <time>2010-11-28T14:20:29Z</time>
      </trkpt>
      <trkpt lat="45.72453" lon="4.91382">
        <ele>204</ele>
        <time>2010-11-28T14:20:31Z</time>
      </trkpt>
      <trkpt lat="45.72449" lon="4.91377">
        <ele>204</ele>
        <time>2010-11-28T14:20:38Z</time>
      </trkpt>
      <trkpt lat="45.72446" lon="4.91384">
        <ele>204</ele>
        <time>2010-11-28T14:21:06Z</time>
      </trkpt>
      <trkpt lat="45.72442" lon="4.91387">
        <ele>204</ele>
        <time>2010-11-28T14:21:11Z</time>
      </trkpt>
      <trkpt lat="45.72437" lon="4.91393">
        <ele>203</ele>
        <time>2010-11-28T14:21:20Z</time>
      </trkpt>
      <trkpt lat="45.72439" lon="4.91396">
        <ele>203</ele>
        <time>2010-11-28T14:21:32Z</time>
      </trkpt>
      <trkpt lat="45.7244" lon="4.91395">
        <ele>203</ele>
        <time>2010-11-28T14:21:39Z</time>
      </trkpt>
      <trkpt lat="45.72442" lon="4.91382">
        <ele>204</ele>
        <time>2010-11-28T14:21:58Z</time>
      </trkpt>
      <trkpt lat="45.7243" lon="4.91385">
        <ele>204</ele>
        <time>2010-11-28T14:22:03Z</time>
      </trkpt>
      <trkpt lat="45.72414" lon="4.91382">
        <ele>200</ele>
        <time>2010-11-28T14:22:08Z</time>
      </trkpt>
      <trkpt lat="45.72402" lon="4.91368">
        <ele>200</ele>
        <time>2010-11-28T14:22:11Z</time>
      </trkpt>
      <trkpt lat="45.72387" lon="4.91349">
        <ele>200</ele>
        <time>2010-11-28T14:22:14Z</time>
      </trkpt>
      <trkpt lat="45.72357" lon="4.91355">
        <ele>198</ele>
        <time>2010-11-28T14:22:18Z</time>
      </trkpt>
      <trkpt lat="45.72348" lon="4.91375">
        <ele>198</ele>
        <time>2010-11-28T14:22:20Z</time>
      </trkpt>
      <trkpt lat="45.72346" lon="4.91387">
        <ele>197</ele>
        <time>2010-11-28T14:22:21Z</time>
      </trkpt>
      <trkpt lat="45.72336" lon="4.914">
        <ele>197</ele>
        <time>2010-11-28T14:22:23Z</time>
      </trkpt>
      <trkpt lat="45.72293" lon="4.91432">
        <ele>193</ele>
        <time>2010-11-28T14:22:28Z</time>
      </trkpt>
      <trkpt lat="45.72269" lon="4.91413">
        <ele>193</ele>
        <time>2010-11-28T14:22:32Z</time>
      </trkpt>
      <trkpt lat="45.72254" lon="4.91406">
        <ele>193</ele>
        <time>2010-11-28T14:22:35Z</time>
      </trkpt>
      <trkpt lat="45.7225" lon="4.91395">
        <ele>191</ele>
        <time>2010-11-28T14:22:37Z</time>
      </trkpt>
      <trkpt lat="45.72252" lon="4.91371">
        <ele>192</ele>
        <time>2010-11-28T14:22:41Z</time>
      </trkpt>
      <trkpt lat="45.72253" lon="4.91356">
        <ele>192</ele>
        <time>2010-11-28T14:22:44Z</time>
      </trkpt>
      <trkpt lat="45.72233" lon="4.91351">
        <ele>190</ele>
        <time>2010-11-28T14:22:49Z</time>
      </trkpt>
      <trkpt lat="45.7223" lon="4.91351">
        <ele>190</ele>
        <time>2010-11-28T14:22:50Z</time>
      </trkpt>
      <trkpt lat="45.72209" lon="4.91348">
        <ele>189</ele>
        <time>2010-11-28T14:22:54Z</time>
      </trkpt>
      <trkpt lat="45.72181" lon="4.91342">
        <ele>188</ele>
        <time>2010-11-28T14:22:59Z</time>
      </trkpt>
      <trkpt lat="45.72176" lon="4.9134">
        <ele>188</ele>
        <time>2010-11-28T14:23:00Z</time>
      </trkpt>
      <trkpt lat="45.72128" lon="4.91318">
        <ele>188</ele>
        <time>2010-11-28T14:23:10Z</time>
      </trkpt>
      <trkpt lat="45.72105" lon="4.91304">
        <ele>188</ele>
        <time>2010-11-28T14:23:15Z</time>
      </trkpt>
      <trkpt lat="45.72083" lon="4.91287">
        <ele>189</ele>
        <time>2010-11-28T14:23:20Z</time>
      </trkpt>
      <trkpt lat="45.72079" lon="4.91283">
        <ele>189</ele>
        <time>2010-11-28T14:23:21Z</time>
      </trkpt>
      <trkpt lat="45.72057" lon="4.91259">
        <ele>189</ele>
        <time>2010-11-28T14:23:27Z</time>
      </trkpt>
      <trkpt lat="45.72034" lon="4.91229">
        <ele>189</ele>
        <time>2010-11-28T14:23:33Z</time>
      </trkpt>
      <trkpt lat="45.72013" lon="4.91198">
        <ele>189</ele>
        <time>2010-11-28T14:23:39Z</time>
      </trkpt>
      <trkpt lat="45.71999" lon="4.91179">
        <ele>188</ele>
        <time>2010-11-28T14:23:43Z</time>
      </trkpt>
      <trkpt lat="45.71984" lon="4.9116">
        <ele>188</ele>
        <time>2010-11-28T14:23:47Z</time>
      </trkpt>
      <trkpt lat="45.71974" lon="4.91146">
        <ele>188</ele>
        <time>2010-11-28T14:23:50Z</time>
      </trkpt>
      <trkpt lat="45.71968" lon="4.91137">
        <ele>188</ele>
        <time>2010-11-28T14:23:52Z</time>
      </trkpt>
      <trkpt lat="45.71944" lon="4.91105">
        <ele>188</ele>
        <time>2010-11-28T14:23:59Z</time>
      </trkpt>
      <trkpt lat="45.71925" lon="4.91078">
        <ele>189</ele>
        <time>2010-11-28T14:24:05Z</time>
      </trkpt>
      <trkpt lat="45.71914" lon="4.91056">
        <ele>189</ele>
        <time>2010-11-28T14:24:09Z</time>
      </trkpt>
      <trkpt lat="45.71908" lon="4.91046">
        <ele>189</ele>
        <time>2010-11-28T14:24:11Z</time>
      </trkpt>
      <trkpt lat="45.71897" lon="4.91013">
        <ele>189</ele>
        <time>2010-11-28T14:24:16Z</time>
      </trkpt>
      <trkpt lat="45.71895" lon="4.90979">
        <ele>189</ele>
        <time>2010-11-28T14:24:21Z</time>
      </trkpt>
      <trkpt lat="45.71897" lon="4.90938">
        <ele>189</ele>
        <time>2010-11-28T14:24:27Z</time>
      </trkpt>
      <trkpt lat="45.71899" lon="4.90907">
        <ele>190</ele>
        <time>2010-11-28T14:24:32Z</time>
      </trkpt>
      <trkpt lat="45.719" lon="4.90896">
        <ele>190</ele>
        <time>2010-11-28T14:24:34Z</time>
      </trkpt>
      <trkpt lat="45.71903" lon="4.90877">
        <ele>190</ele>
        <time>2010-11-28T14:24:37Z</time>
      </trkpt>
      <trkpt lat="45.71907" lon="4.90839">
        <ele>190</ele>
        <time>2010-11-28T14:24:42Z</time>
      </trkpt>
      <trkpt lat="45.7191" lon="4.90815">
        <ele>190</ele>
        <time>2010-11-28T14:24:47Z</time>
      </trkpt>
      <trkpt lat="45.7191" lon="4.90809">
        <ele>190</ele>
        <time>2010-11-28T14:24:48Z</time>
      </trkpt>
      <trkpt lat="45.71906" lon="4.90784">
        <ele>190</ele>
        <time>2010-11-28T14:24:52Z</time>
      </trkpt>
      <trkpt lat="45.71898" lon="4.90732">
        <ele>189</ele>
        <time>2010-11-28T14:24:59Z</time>
      </trkpt>
      <trkpt lat="45.71891" lon="4.90698">
        <ele>189</ele>
        <time>2010-11-28T14:25:05Z</time>
      </trkpt>
      <trkpt lat="45.71886" lon="4.9067">
        <ele>189</ele>
        <time>2010-11-28T14:25:10Z</time>
      </trkpt>
      <trkpt lat="45.71883" lon="4.9065">
        <ele>189</ele>
        <time>2010-11-28T14:25:14Z</time>
      </trkpt>
      <trkpt lat="45.71875" lon="4.90629">
        <ele>189</ele>
        <time>2010-11-28T14:25:18Z</time>
      </trkpt>
      <trkpt lat="45.71863" lon="4.90603">
        <ele>189</ele>
        <time>2010-11-28T14:25:23Z</time>
      </trkpt>
      <trkpt lat="45.71856" lon="4.90581">
        <ele>189</ele>
        <time>2010-11-28T14:25:27Z</time>
      </trkpt>
      <trkpt lat="45.7185" lon="4.90563">
        <ele>190</ele>
        <time>2010-11-28T14:25:29Z</time>
      </trkpt>
      <trkpt lat="45.71837" lon="4.90534">
        <ele>190</ele>
        <time>2010-11-28T14:25:35Z</time>
      </trkpt>
      <trkpt lat="45.71833" lon="4.90527">
        <ele>191</ele>
        <time>2010-11-28T14:25:36Z</time>
      </trkpt>
      <trkpt lat="45.71817" lon="4.90508">
        <ele>193</ele>
        <time>2010-11-28T14:25:41Z</time>
      </trkpt>
      <trkpt lat="45.71804" lon="4.9048">
        <ele>192</ele>
        <time>2010-11-28T14:25:46Z</time>
      </trkpt>
      <trkpt lat="45.71795" lon="4.90454">
        <ele>191</ele>
        <time>2010-11-28T14:25:51Z</time>
      </trkpt>
      <trkpt lat="45.71762" lon="4.90452">
        <ele>191</ele>
        <time>2010-11-28T14:25:55Z</time>
      </trkpt>
      <trkpt lat="45.71759" lon="4.90453">
        <ele>191</ele>
        <time>2010-11-28T14:25:56Z</time>
      </trkpt>
      <trkpt lat="45.71736" lon="4.90494">
        <ele>192</ele>
        <time>2010-11-28T14:26:04Z</time>
      </trkpt>
      <trkpt lat="45.71714" lon="4.905">
        <ele>192</ele>
        <time>2010-11-28T14:26:08Z</time>
      </trkpt>
      <trkpt lat="45.71701" lon="4.90498">
        <ele>192</ele>
        <time>2010-11-28T14:26:11Z</time>
      </trkpt>
      <trkpt lat="45.71682" lon="4.90489">
        <ele>191</ele>
        <time>2010-11-28T14:26:18Z</time>
      </trkpt>
      <trkpt lat="45.71674" lon="4.90486">
        <ele>191</ele>
        <time>2010-11-28T14:26:20Z</time>
      </trkpt>
      <trkpt lat="45.71643" lon="4.90482">
        <ele>192</ele>
        <time>2010-11-28T14:26:25Z</time>
      </trkpt>
      <trkpt lat="45.71621" lon="4.90487">
        <ele>192</ele>
        <time>2010-11-28T14:26:29Z</time>
      </trkpt>
      <trkpt lat="45.71607" lon="4.9051">
        <ele>190</ele>
        <time>2010-11-28T14:26:33Z</time>
      </trkpt>
      <trkpt lat="45.71605" lon="4.90515">
        <ele>190</ele>
        <time>2010-11-28T14:26:34Z</time>
      </trkpt>
      <trkpt lat="45.71591" lon="4.90544">
        <ele>190</ele>
        <time>2010-11-28T14:26:40Z</time>
      </trkpt>
      <trkpt lat="45.71583" lon="4.90573">
        <ele>190</ele>
        <time>2010-11-28T14:26:45Z</time>
      </trkpt>
      <trkpt lat="45.71573" lon="4.90589">
        <ele>191</ele>
        <time>2010-11-28T14:26:49Z</time>
      </trkpt>
      <trkpt lat="45.71556" lon="4.90608">
        <ele>191</ele>
        <time>2010-11-28T14:26:54Z</time>
      </trkpt>
      <trkpt lat="45.71551" lon="4.90611">
        <ele>191</ele>
        <time>2010-11-28T14:26:55Z</time>
      </trkpt>
      <trkpt lat="45.71544" lon="4.90597">
        <ele>191</ele>
        <time>2010-11-28T14:26:59Z</time>
      </trkpt>
      <trkpt lat="45.7154" lon="4.90586">
        <ele>191</ele>
        <time>2010-11-28T14:27:02Z</time>
      </trkpt>
      <trkpt lat="45.71521" lon="4.90567">
        <ele>191</ele>
        <time>2010-11-28T14:27:09Z</time>
      </trkpt>
      <trkpt lat="45.71506" lon="4.90556">
        <ele>191</ele>
        <time>2010-11-28T14:27:14Z</time>
      </trkpt>
      <trkpt lat="45.715" lon="4.90548">
        <ele>191</ele>
        <time>2010-11-28T14:27:17Z</time>
      </trkpt>
      <trkpt lat="45.71485" lon="4.90556">
        <ele>191</ele>
        <time>2010-11-28T14:27:23Z</time>
      </trkpt>
      <trkpt lat="45.71486" lon="4.90561">
        <ele>191</ele>
        <time>2010-11-28T14:27:24Z</time>
      </trkpt>
      <trkpt lat="45.71482" lon="4.90565">
        <ele>191</ele>
        <time>2010-11-28T14:27:26Z</time>
      </trkpt>
      <trkpt lat="45.71481" lon="4.90588">
        <ele>190</ele>
        <time>2010-11-28T14:27:31Z</time>
      </trkpt>
      <trkpt lat="45.71473" lon="4.90604">
        <ele>190</ele>
        <time>2010-11-28T14:27:36Z</time>
      </trkpt>
      <trkpt lat="45.71467" lon="4.90604">
        <ele>190</ele>
        <time>2010-11-28T14:27:39Z</time>
      </trkpt>
      <trkpt lat="45.71455" lon="4.90615">
        <ele>190</ele>
        <time>2010-11-28T14:27:44Z</time>
      </trkpt>
      <trkpt lat="45.71451" lon="4.90617">
        <ele>190</ele>
        <time>2010-11-28T14:27:46Z</time>
      </trkpt>
      <trkpt lat="45.71454" lon="4.90632">
        <ele>190</ele>
        <time>2010-11-28T14:27:51Z</time>
      </trkpt>
      <trkpt lat="45.71449" lon="4.90649">
        <ele>190</ele>
        <time>2010-11-28T14:27:56Z</time>
      </trkpt>
      <trkpt lat="45.71436" lon="4.90669">
        <ele>190</ele>
        <time>2010-11-28T14:28:01Z</time>
      </trkpt>
      <trkpt lat="45.71425" lon="4.90692">
        <ele>190</ele>
        <time>2010-11-28T14:28:06Z</time>
      </trkpt>
      <trkpt lat="45.71417" lon="4.90705">
        <ele>190</ele>
        <time>2010-11-28T14:28:09Z</time>
      </trkpt>
      <trkpt lat="45.7141" lon="4.9072">
        <ele>189</ele>
        <time>2010-11-28T14:28:12Z</time>
      </trkpt>
      <trkpt lat="45.71395" lon="4.90756">
        <ele>189</ele>
        <time>2010-11-28T14:28:19Z</time>
      </trkpt>
      <trkpt lat="45.71379" lon="4.90781">
        <ele>189</ele>
        <time>2010-11-28T14:28:25Z</time>
      </trkpt>
      <trkpt lat="45.71368" lon="4.90804">
        <ele>189</ele>
        <time>2010-11-28T14:28:30Z</time>
      </trkpt>
      <trkpt lat="45.71357" lon="4.90826">
        <ele>189</ele>
        <time>2010-11-28T14:28:35Z</time>
      </trkpt>
      <trkpt lat="45.71338" lon="4.90856">
        <ele>190</ele>
        <time>2010-11-28T14:28:42Z</time>
      </trkpt>
      <trkpt lat="45.7132" lon="4.9089">
        <ele>189</ele>
        <time>2010-11-28T14:28:49Z</time>
      </trkpt>
      <trkpt lat="45.71301" lon="4.90927">
        <ele>190</ele>
        <time>2010-11-28T14:28:57Z</time>
      </trkpt>
      <trkpt lat="45.71295" lon="4.90936">
        <ele>190</ele>
        <time>2010-11-28T14:28:59Z</time>
      </trkpt>
      <trkpt lat="45.71284" lon="4.90961">
        <ele>190</ele>
        <time>2010-11-28T14:29:04Z</time>
      </trkpt>
      <trkpt lat="45.71276" lon="4.90974">
        <ele>190</ele>
        <time>2010-11-28T14:29:07Z</time>
      </trkpt>
      <trkpt lat="45.71257" lon="4.91009">
        <ele>190</ele>
        <time>2010-11-28T14:29:14Z</time>
      </trkpt>
      <trkpt lat="45.71247" lon="4.91027">
        <ele>191</ele>
        <time>2010-11-28T14:29:18Z</time>
      </trkpt>
      <trkpt lat="45.71242" lon="4.91036">
        <ele>191</ele>
        <time>2010-11-28T14:29:20Z</time>
      </trkpt>
      <trkpt lat="45.71228" lon="4.91063">
        <ele>191</ele>
        <time>2010-11-28T14:29:26Z</time>
      </trkpt>
      <trkpt lat="45.71218" lon="4.91078">
        <ele>191</ele>
        <time>2010-11-28T14:29:30Z</time>
      </trkpt>
      <trkpt lat="45.71204" lon="4.91105">
        <ele>190</ele>
        <time>2010-11-28T14:29:36Z</time>
      </trkpt>
      <trkpt lat="45.71192" lon="4.91128">
        <ele>190</ele>
        <time>2010-11-28T14:29:41Z</time>
      </trkpt>
      <trkpt lat="45.71177" lon="4.91152">
        <ele>189</ele>
        <time>2010-11-28T14:29:47Z</time>
      </trkpt>
      <trkpt lat="45.71161" lon="4.91181">
        <ele>190</ele>
        <time>2010-11-28T14:29:55Z</time>
      </trkpt>
      <trkpt lat="45.71148" lon="4.91205">
        <ele>190</ele>
        <time>2010-11-28T14:30:02Z</time>
      </trkpt>
      <trkpt lat="45.71143" lon="4.91216">
        <ele>190</ele>
        <time>2010-11-28T14:30:06Z</time>
      </trkpt>
      <trkpt lat="45.71136" lon="4.91213">
        <ele>190</ele>
        <time>2010-11-28T14:30:11Z</time>
      </trkpt>
      <trkpt lat="45.71138" lon="4.9121">
        <ele>190</ele>
        <time>2010-11-28T14:30:15Z</time>
      </trkpt>
      <trkpt lat="45.71137" lon="4.91214">
        <ele>190</ele>
        <time>2010-11-28T14:30:23Z</time>
      </trkpt>
      <trkpt lat="45.7113" lon="4.91215">
        <ele>190</ele>
        <time>2010-11-28T14:30:28Z</time>
      </trkpt>
      <trkpt lat="45.71128" lon="4.91214">
        <ele>190</ele>
        <time>2010-11-28T14:30:29Z</time>
      </trkpt>
      <trkpt lat="45.71124" lon="4.9121">
        <ele>191</ele>
        <time>2010-11-28T14:30:35Z</time>
      </trkpt>
      <trkpt lat="45.71126" lon="4.91212">
        <ele>190</ele>
        <time>2010-11-28T14:30:40Z</time>
      </trkpt>
      <trkpt lat="45.71126" lon="4.91213">
        <ele>190</ele>
        <time>2010-11-28T14:30:51Z</time>
      </trkpt>
      <trkpt lat="45.71119" lon="4.91221">
        <ele>191</ele>
        <time>2010-11-28T14:30:56Z</time>
      </trkpt>
      <trkpt lat="45.71116" lon="4.91237">
        <ele>191</ele>
        <time>2010-11-28T14:31:02Z</time>
      </trkpt>
      <trkpt lat="45.71117" lon="4.91247">
        <ele>191</ele>
        <time>2010-11-28T14:31:06Z</time>
      </trkpt>
      <trkpt lat="45.71119" lon="4.91262">
        <ele>191</ele>
        <time>2010-11-28T14:31:11Z</time>
      </trkpt>
      <trkpt lat="45.71118" lon="4.91265">
        <ele>191</ele>
        <time>2010-11-28T14:31:12Z</time>
      </trkpt>
      <trkpt lat="45.71101" lon="4.91296">
        <ele>191</ele>
        <time>2010-11-28T14:31:20Z</time>
      </trkpt>
      <trkpt lat="45.71094" lon="4.91312">
        <ele>191</ele>
        <time>2010-11-28T14:31:23Z</time>
      </trkpt>
      <trkpt lat="45.71084" lon="4.91333">
        <ele>192</ele>
        <time>2010-11-28T14:31:27Z</time>
      </trkpt>
      <trkpt lat="45.71057" lon="4.91385">
        <ele>191</ele>
        <time>2010-11-28T14:31:37Z</time>
      </trkpt>
      <trkpt lat="45.71044" lon="4.91405">
        <ele>191</ele>
        <time>2010-11-28T14:31:41Z</time>
      </trkpt>
      <trkpt lat="45.7102" lon="4.91452">
        <ele>190</ele>
        <time>2010-11-28T14:31:50Z</time>
      </trkpt>
      <trkpt lat="45.71017" lon="4.91458">
        <ele>190</ele>
        <time>2010-11-28T14:31:51Z</time>
      </trkpt>
      <trkpt lat="45.70997" lon="4.91495">
        <ele>188</ele>
        <time>2010-11-28T14:31:58Z</time>
      </trkpt>
      <trkpt lat="45.7099" lon="4.91511">
        <ele>189</ele>
        <time>2010-11-28T14:32:01Z</time>
      </trkpt>
      <trkpt lat="45.70982" lon="4.91528">
        <ele>189</ele>
        <time>2010-11-28T14:32:04Z</time>
      </trkpt>
      <trkpt lat="45.70953" lon="4.91572">
        <ele>189</ele>
        <time>2010-11-28T14:32:13Z</time>
      </trkpt>
      <trkpt lat="45.70932" lon="4.91617">
        <ele>190</ele>
        <time>2010-11-28T14:32:21Z</time>
      </trkpt>
      <trkpt lat="45.70924" lon="4.91634">
        <ele>191</ele>
        <time>2010-11-28T14:32:24Z</time>
      </trkpt>
      <trkpt lat="45.70919" lon="4.91645">
        <ele>191</ele>
        <time>2010-11-28T14:32:26Z</time>
      </trkpt>
      <trkpt lat="45.70908" lon="4.91666">
        <ele>192</ele>
        <time>2010-11-28T14:32:30Z</time>
      </trkpt>
      <trkpt lat="45.70889" lon="4.917">
        <ele>191</ele>
        <time>2010-11-28T14:32:37Z</time>
      </trkpt>
      <trkpt lat="45.70872" lon="4.91728">
        <ele>191</ele>
        <time>2010-11-28T14:32:43Z</time>
      </trkpt>
      <trkpt lat="45.70856" lon="4.91759">
        <ele>190</ele>
        <time>2010-11-28T14:32:50Z</time>
      </trkpt>
      <trkpt lat="45.70847" lon="4.91771">
        <ele>190</ele>
        <time>2010-11-28T14:32:55Z</time>
      </trkpt>
      <trkpt lat="45.70846" lon="4.91771">
        <ele>190</ele>
        <time>2010-11-28T14:32:59Z</time>
      </trkpt>
      <trkpt lat="45.70845" lon="4.91767">
        <ele>190</ele>
        <time>2010-11-28T14:33:09Z</time>
      </trkpt>
      <trkpt lat="45.70833" lon="4.91765">
        <ele>190</ele>
        <time>2010-11-28T14:33:16Z</time>
      </trkpt>
      <trkpt lat="45.70829" lon="4.91772">
        <ele>190</ele>
        <time>2010-11-28T14:33:18Z</time>
      </trkpt>
      <trkpt lat="45.70817" lon="4.91796">
        <ele>190</ele>
        <time>2010-11-28T14:33:24Z</time>
      </trkpt>
      <trkpt lat="45.70808" lon="4.91814">
        <ele>190</ele>
        <time>2010-11-28T14:33:29Z</time>
      </trkpt>
      <trkpt lat="45.70812" lon="4.91822">
        <ele>190</ele>
        <time>2010-11-28T14:33:32Z</time>
      </trkpt>
      <trkpt lat="45.70814" lon="4.91814">
        <ele>190</ele>
        <time>2010-11-28T14:33:35Z</time>
      </trkpt>
      <trkpt lat="45.70813" lon="4.91812">
        <ele>190</ele>
        <time>2010-11-28T14:33:36Z</time>
      </trkpt>
      <trkpt lat="45.70807" lon="4.91804">
        <ele>190</ele>
        <time>2010-11-28T14:33:41Z</time>
      </trkpt>
      <trkpt lat="45.70811" lon="4.91801">
        <ele>190</ele>
        <time>2010-11-28T14:33:46Z</time>
      </trkpt>
      <trkpt lat="45.70811" lon="4.91801">
        <ele>190</ele>
        <time>2010-11-28T14:33:48Z</time>
      </trkpt>
      <trkpt lat="45.70809" lon="4.91802">
        <ele>190</ele>
        <time>2010-11-28T14:33:53Z</time>
      </trkpt>
      <trkpt lat="45.70813" lon="4.91794">
        <ele>190</ele>
        <time>2010-11-28T14:33:58Z</time>
      </trkpt>
      <trkpt lat="45.70813" lon="4.91796">
        <ele>190</ele>
        <time>2010-11-28T14:34:03Z</time>
      </trkpt>
      <trkpt lat="45.70812" lon="4.91797">
        <ele>190</ele>
        <time>2010-11-28T14:34:09Z</time>
      </trkpt>
      <trkpt lat="45.70815" lon="4.9181">
        <ele>190</ele>
        <time>2010-11-28T14:34:14Z</time>
      </trkpt>
      <trkpt lat="45.70819" lon="4.91825">
        <ele>190</ele>
        <time>2010-11-28T14:34:18Z</time>
      </trkpt>
      <trkpt lat="45.70834" lon="4.91835">
        <ele>190</ele>
        <time>2010-11-28T14:34:22Z</time>
      </trkpt>
      <trkpt lat="45.70858" lon="4.9185">
        <ele>191</ele>
        <time>2010-11-28T14:34:28Z</time>
      </trkpt>
      <trkpt lat="45.70871" lon="4.9186">
        <ele>191</ele>
        <time>2010-11-28T14:34:31Z</time>
      </trkpt>
      <trkpt lat="45.70894" lon="4.91873">
        <ele>192</ele>
        <time>2010-11-28T14:34:36Z</time>
      </trkpt>
      <trkpt lat="45.70924" lon="4.91896">
        <ele>192</ele>
        <time>2010-11-28T14:34:43Z</time>
      </trkpt>
      <trkpt lat="45.70951" lon="4.91915">
        <ele>191</ele>
        <time>2010-11-28T14:34:49Z</time>
      </trkpt>
      <trkpt lat="45.70968" lon="4.91928">
        <ele>190</ele>
        <time>2010-11-28T14:34:53Z</time>
      </trkpt>
      <trkpt lat="45.71003" lon="4.91945">
        <ele>190</ele>
        <time>2010-11-28T14:35:00Z</time>
      </trkpt>
      <trkpt lat="45.71025" lon="4.91956">
        <ele>190</ele>
        <time>2010-11-28T14:35:05Z</time>
      </trkpt>
      <trkpt lat="45.71048" lon="4.91967">
        <ele>190</ele>
        <time>2010-11-28T14:35:10Z</time>
      </trkpt>
      <trkpt lat="45.71058" lon="4.9197">
        <ele>190</ele>
        <time>2010-11-28T14:35:12Z</time>
      </trkpt>
      <trkpt lat="45.71095" lon="4.91989">
        <ele>191</ele>
        <time>2010-11-28T14:35:20Z</time>
      </trkpt>
      <trkpt lat="45.71123" lon="4.92003">
        <ele>191</ele>
        <time>2010-11-28T14:35:26Z</time>
      </trkpt>
      <trkpt lat="45.7114" lon="4.92011">
        <ele>191</ele>
        <time>2010-11-28T14:35:30Z</time>
      </trkpt>
      <trkpt lat="45.71169" lon="4.92035">
        <ele>191</ele>
        <time>2010-11-28T14:35:38Z</time>
      </trkpt>
      <trkpt lat="45.71181" lon="4.92047">
        <ele>191</ele>
        <time>2010-11-28T14:35:43Z</time>
      </trkpt>
      <trkpt lat="45.71183" lon="4.92047">
        <ele>191</ele>
        <time>2010-11-28T14:35:47Z</time>
      </trkpt>
      <trkpt lat="45.71185" lon="4.92046">
        <ele>191</ele>
        <time>2010-11-28T14:35:57Z</time>
      </trkpt>
      <trkpt lat="45.71182" lon="4.92046">
        <ele>191</ele>
        <time>2010-11-28T14:36:02Z</time>
      </trkpt>
      <trkpt lat="45.71185" lon="4.92046">
        <ele>191</ele>
        <time>2010-11-28T14:36:13Z</time>
      </trkpt>
      <trkpt lat="45.71182" lon="4.92045">
        <ele>191</ele>
        <time>2010-11-28T14:36:20Z</time>
      </trkpt>
      <trkpt lat="45.71187" lon="4.92045">
        <ele>191</ele>
        <time>2010-11-28T14:36:25Z</time>
      </trkpt>
      <trkpt lat="45.71191" lon="4.9205">
        <ele>191</ele>
        <time>2010-11-28T14:36:28Z</time>
      </trkpt>
      <trkpt lat="45.71207" lon="4.92052">
        <ele>191</ele>
        <time>2010-11-28T14:36:35Z</time>
      </trkpt>
      <trkpt lat="45.71221" lon="4.92059">
        <ele>190</ele>
        <time>2010-11-28T14:36:40Z</time>
      </trkpt>
      <trkpt lat="45.71231" lon="4.9207">
        <ele>190</ele>
        <time>2010-11-28T14:36:45Z</time>
      </trkpt>
      <trkpt lat="45.71233" lon="4.92072">
        <ele>190</ele>
        <time>2010-11-28T14:36:46Z</time>
      </trkpt>
      <trkpt lat="45.71239" lon="4.9207">
        <ele>190</ele>
        <time>2010-11-28T14:36:51Z</time>
      </trkpt>
      <trkpt lat="45.7124" lon="4.92071">
        <ele>190</ele>
        <time>2010-11-28T14:36:54Z</time>
      </trkpt>
      <trkpt lat="45.71248" lon="4.9209">
        <ele>189</ele>
        <time>2010-11-28T14:37:02Z</time>
      </trkpt>
      <trkpt lat="45.71258" lon="4.921">
        <ele>189</ele>
        <time>2010-11-28T14:37:06Z</time>
      </trkpt>
      <trkpt lat="45.71275" lon="4.92121">
        <ele>189</ele>
        <time>2010-11-28T14:37:12Z</time>
      </trkpt>
      <trkpt lat="45.71289" lon="4.9214">
        <ele>189</ele>
        <time>2010-11-28T14:37:18Z</time>
      </trkpt>
      <trkpt lat="45.71304" lon="4.92159">
        <ele>189</ele>
        <time>2010-11-28T14:37:24Z</time>
      </trkpt>
      <trkpt lat="45.7132" lon="4.92183">
        <ele>190</ele>
        <time>2010-11-28T14:37:31Z</time>
      </trkpt>
      <trkpt lat="45.71331" lon="4.92205">
        <ele>190</ele>
        <time>2010-11-28T14:37:37Z</time>
      </trkpt>
      <trkpt lat="45.71329" lon="4.92219">
        <ele>191</ele>
        <time>2010-11-28T14:37:42Z</time>
      </trkpt>
      <trkpt lat="45.71331" lon="4.92222">
        <ele>191</ele>
        <time>2010-11-28T14:37:43Z</time>
      </trkpt>
      <trkpt lat="45.7135" lon="4.92251">
        <ele>192</ele>
        <time>2010-11-28T14:37:51Z</time>
      </trkpt>
      <trkpt lat="45.71361" lon="4.92276">
        <ele>193</ele>
        <time>2010-11-28T14:37:57Z</time>
      </trkpt>
      <trkpt lat="45.71371" lon="4.923">
        <ele>194</ele>
        <time>2010-11-28T14:38:03Z</time>
      </trkpt>
      <trkpt lat="45.71378" lon="4.92318">
        <ele>194</ele>
        <time>2010-11-28T14:38:07Z</time>
      </trkpt>
      <trkpt lat="45.71384" lon="4.92335">
        <ele>197</ele>
        <time>2010-11-28T14:38:12Z</time>
      </trkpt>
      <trkpt lat="45.71393" lon="4.92359">
        <ele>197</ele>
        <time>2010-11-28T14:38:18Z</time>
      </trkpt>
      <trkpt lat="45.714" lon="4.92383">
        <ele>198</ele>
        <time>2010-11-28T14:38:24Z</time>
      </trkpt>
      <trkpt lat="45.71407" lon="4.92398">
        <ele>198</ele>
        <time>2010-11-28T14:38:29Z</time>
      </trkpt>
      <trkpt lat="45.71414" lon="4.92418">
        <ele>200</ele>
        <time>2010-11-28T14:38:34Z</time>
      </trkpt>
      <trkpt lat="45.71423" lon="4.92436">
        <ele>202</ele>
        <time>2010-11-28T14:38:39Z</time>
      </trkpt>
      <trkpt lat="45.71428" lon="4.92448">
        <ele>203</ele>
        <time>2010-11-28T14:38:45Z</time>
      </trkpt>
      <trkpt lat="45.71433" lon="4.92453">
        <ele>204</ele>
        <time>2010-11-28T14:38:50Z</time>
      </trkpt>
      <trkpt lat="45.71441" lon="4.92456">
        <ele>204</ele>
        <time>2010-11-28T14:39:07Z</time>
      </trkpt>
      <trkpt lat="45.71442" lon="4.92456">
        <ele>204</ele>
        <time>2010-11-28T14:39:16Z</time>
      </trkpt>
      <trkpt lat="45.71444" lon="4.9247">
        <ele>205</ele>
        <time>2010-11-28T14:39:21Z</time>
      </trkpt>
      <trkpt lat="45.71445" lon="4.92473">
        <ele>205</ele>
        <time>2010-11-28T14:39:22Z</time>
      </trkpt>
      <trkpt lat="45.71452" lon="4.92482">
        <ele>205</ele>
        <time>2010-11-28T14:39:26Z</time>
      </trkpt>
      <trkpt lat="45.71455" lon="4.9249">
        <ele>205</ele>
        <time>2010-11-28T14:39:30Z</time>
      </trkpt>
      <trkpt lat="45.71455" lon="4.92494">
        <ele>205</ele>
        <time>2010-11-28T14:39:34Z</time>
      </trkpt>
      <trkpt lat="45.7146" lon="4.92501">
        <ele>207</ele>
        <time>2010-11-28T14:39:39Z</time>
      </trkpt>
      <trkpt lat="45.71469" lon="4.92521">
        <ele>208</ele>
        <time>2010-11-28T14:39:45Z</time>
      </trkpt>
      <trkpt lat="45.71481" lon="4.92542">
        <ele>208</ele>
        <time>2010-11-28T14:39:51Z</time>
      </trkpt>
      <trkpt lat="45.71475" lon="4.92556">
        <ele>208</ele>
        <time>2010-11-28T14:39:55Z</time>
      </trkpt>
      <trkpt lat="45.71452" lon="4.92565">
        <ele>208</ele>
        <time>2010-11-28T14:40:02Z</time>
      </trkpt>
      <trkpt lat="45.71439" lon="4.9257">
        <ele>208</ele>
        <time>2010-11-28T14:40:06Z</time>
      </trkpt>
      <trkpt lat="45.71421" lon="4.92576">
        <ele>209</ele>
        <time>2010-11-28T14:40:11Z</time>
      </trkpt>
      <trkpt lat="45.71404" lon="4.92585">
        <ele>209</ele>
        <time>2010-11-28T14:40:17Z</time>
      </trkpt>
      <trkpt lat="45.71381" lon="4.92595">
        <ele>209</ele>
        <time>2010-11-28T14:40:24Z</time>
      </trkpt>
      <trkpt lat="45.71367" lon="4.92599">
        <ele>209</ele>
        <time>2010-11-28T14:40:29Z</time>
      </trkpt>
      <trkpt lat="45.71356" lon="4.92607">
        <ele>209</ele>
        <time>2010-11-28T14:40:34Z</time>
      </trkpt>
      <trkpt lat="45.71342" lon="4.92616">
        <ele>209</ele>
        <time>2010-11-28T14:40:40Z</time>
      </trkpt>
      <trkpt lat="45.71328" lon="4.92626">
        <ele>210</ele>
        <time>2010-11-28T14:40:45Z</time>
      </trkpt>
      <trkpt lat="45.71309" lon="4.9264">
        <ele>210</ele>
        <time>2010-11-28T14:40:51Z</time>
      </trkpt>
      <trkpt lat="45.71284" lon="4.92657">
        <ele>211</ele>
        <time>2010-11-28T14:40:59Z</time>
      </trkpt>
      <trkpt lat="45.71268" lon="4.92671">
        <ele>210</ele>
        <time>2010-11-28T14:41:04Z</time>
      </trkpt>
      <trkpt lat="45.71241" lon="4.92694">
        <ele>211</ele>
        <time>2010-11-28T14:41:12Z</time>
      </trkpt>
      <trkpt lat="45.71222" lon="4.92714">
        <ele>210</ele>
        <time>2010-11-28T14:41:18Z</time>
      </trkpt>
      <trkpt lat="45.71218" lon="4.92718">
        <ele>210</ele>
        <time>2010-11-28T14:41:19Z</time>
      </trkpt>
      <trkpt lat="45.71204" lon="4.92734">
        <ele>210</ele>
        <time>2010-11-28T14:41:23Z</time>
      </trkpt>
      <trkpt lat="45.71183" lon="4.92757">
        <ele>209</ele>
        <time>2010-11-28T14:41:28Z</time>
      </trkpt>
      <trkpt lat="45.71156" lon="4.92785">
        <ele>209</ele>
        <time>2010-11-28T14:41:35Z</time>
      </trkpt>
      <trkpt lat="45.71137" lon="4.92808">
        <ele>209</ele>
        <time>2010-11-28T14:41:40Z</time>
      </trkpt>
      <trkpt lat="45.71108" lon="4.92848">
        <ele>209</ele>
        <time>2010-11-28T14:41:48Z</time>
      </trkpt>
      <trkpt lat="45.71083" lon="4.92885">
        <ele>209</ele>
        <time>2010-11-28T14:41:55Z</time>
      </trkpt>
      <trkpt lat="45.71059" lon="4.92924">
        <ele>211</ele>
        <time>2010-11-28T14:42:02Z</time>
      </trkpt>
      <trkpt lat="45.71043" lon="4.92951">
        <ele>210</ele>
        <time>2010-11-28T14:42:07Z</time>
      </trkpt>
      <trkpt lat="45.71025" lon="4.92982">
        <ele>211</ele>
        <time>2010-11-28T14:42:13Z</time>
      </trkpt>
      <trkpt lat="45.71017" lon="4.92997">
        <ele>211</ele>
        <time>2010-11-28T14:42:16Z</time>
      </trkpt>
      <trkpt lat="45.71002" lon="4.93032">
        <ele>210</ele>
        <time>2010-11-28T14:42:23Z</time>
      </trkpt>
      <trkpt lat="45.70989" lon="4.93059">
        <ele>210</ele>
        <time>2010-11-28T14:42:29Z</time>
      </trkpt>
      <trkpt lat="45.70982" lon="4.93079">
        <ele>210</ele>
        <time>2010-11-28T14:42:33Z</time>
      </trkpt>
      <trkpt lat="45.70972" lon="4.93103">
        <ele>209</ele>
        <time>2010-11-28T14:42:38Z</time>
      </trkpt>
      <trkpt lat="45.70954" lon="4.93142">
        <ele>209</ele>
        <time>2010-11-28T14:42:46Z</time>
      </trkpt>
      <trkpt lat="45.70945" lon="4.93169">
        <ele>209</ele>
        <time>2010-11-28T14:42:51Z</time>
      </trkpt>
      <trkpt lat="45.70938" lon="4.93185">
        <ele>209</ele>
        <time>2010-11-28T14:42:54Z</time>
      </trkpt>
      <trkpt lat="45.70935" lon="4.93198">
        <ele>209</ele>
        <time>2010-11-28T14:42:56Z</time>
      </trkpt>
      <trkpt lat="45.70922" lon="4.93239">
        <ele>209</ele>
        <time>2010-11-28T14:43:03Z</time>
      </trkpt>
      <trkpt lat="45.70912" lon="4.93265">
        <ele>211</ele>
        <time>2010-11-28T14:43:08Z</time>
      </trkpt>
      <trkpt lat="45.70908" lon="4.9329">
        <ele>212</ele>
        <time>2010-11-28T14:43:12Z</time>
      </trkpt>
      <trkpt lat="45.70899" lon="4.93334">
        <ele>212</ele>
        <time>2010-11-28T14:43:19Z</time>
      </trkpt>
      <trkpt lat="45.70898" lon="4.9334">
        <ele>212</ele>
        <time>2010-11-28T14:43:20Z</time>
      </trkpt>
      <trkpt lat="45.70894" lon="4.93365">
        <ele>211</ele>
        <time>2010-11-28T14:43:24Z</time>
      </trkpt>
      <trkpt lat="45.70892" lon="4.93376">
        <ele>211</ele>
        <time>2010-11-28T14:43:26Z</time>
      </trkpt>
      <trkpt lat="45.70891" lon="4.93411">
        <ele>210</ele>
        <time>2010-11-28T14:43:31Z</time>
      </trkpt>
      <trkpt lat="45.70889" lon="4.93424">
        <ele>210</ele>
        <time>2010-11-28T14:43:33Z</time>
      </trkpt>
      <trkpt lat="45.70884" lon="4.93467">
        <ele>212</ele>
        <time>2010-11-28T14:43:40Z</time>
      </trkpt>
      <trkpt lat="45.70879" lon="4.935">
        <ele>214</ele>
        <time>2010-11-28T14:43:46Z</time>
      </trkpt>
      <trkpt lat="45.70876" lon="4.93527">
        <ele>214</ele>
        <time>2010-11-28T14:43:51Z</time>
      </trkpt>
      <trkpt lat="45.70876" lon="4.93564">
        <ele>215</ele>
        <time>2010-11-28T14:43:57Z</time>
      </trkpt>
      <trkpt lat="45.70875" lon="4.93597">
        <ele>216</ele>
        <time>2010-11-28T14:44:03Z</time>
      </trkpt>
      <trkpt lat="45.70874" lon="4.93629">
        <ele>217</ele>
        <time>2010-11-28T14:44:09Z</time>
      </trkpt>
      <trkpt lat="45.70874" lon="4.93659">
        <ele>217</ele>
        <time>2010-11-28T14:44:15Z</time>
      </trkpt>
      <trkpt lat="45.70875" lon="4.93672">
        <ele>219</ele>
        <time>2010-11-28T14:44:17Z</time>
      </trkpt>
      <trkpt lat="45.70881" lon="4.93719">
        <ele>219</ele>
        <time>2010-11-28T14:44:24Z</time>
      </trkpt>
      <trkpt lat="45.70882" lon="4.93737">
        <ele>219</ele>
        <time>2010-11-28T14:44:27Z</time>
      </trkpt>
      <trkpt lat="45.7089" lon="4.93786">
        <ele>221</ele>
        <time>2010-11-28T14:44:34Z</time>
      </trkpt>
      <trkpt lat="45.70897" lon="4.9383">
        <ele>221</ele>
        <time>2010-11-28T14:44:41Z</time>
      </trkpt>
      <trkpt lat="45.70905" lon="4.93861">
        <ele>221</ele>
        <time>2010-11-28T14:44:46Z</time>
      </trkpt>
      <trkpt lat="45.70907" lon="4.93878">
        <ele>220</ele>
        <time>2010-11-28T14:44:51Z</time>
      </trkpt>
      <trkpt lat="45.70911" lon="4.93894">
        <ele>220</ele>
        <time>2010-11-28T14:44:56Z</time>
      </trkpt>
      <trkpt lat="45.70908" lon="4.939">
        <ele>220</ele>
        <time>2010-11-28T14:45:01Z</time>
      </trkpt>
      <trkpt lat="45.70906" lon="4.93902">
        <ele>220</ele>
        <time>2010-11-28T14:45:06Z</time>
      </trkpt>
      <trkpt lat="45.70909" lon="4.93911">
        <ele>220</ele>
        <time>2010-11-28T14:45:21Z</time>
      </trkpt>
      <trkpt lat="45.709" lon="4.93908">
        <ele>220</ele>
        <time>2010-11-28T14:45:34Z</time>
      </trkpt>
      <trkpt lat="45.70893" lon="4.9391">
        <ele>220</ele>
        <time>2010-11-28T14:45:40Z</time>
      </trkpt>
      <trkpt lat="45.7089" lon="4.93913">
        <ele>220</ele>
        <time>2010-11-28T14:45:43Z</time>
      </trkpt>
      <trkpt lat="45.70882" lon="4.93902">
        <ele>220</ele>
        <time>2010-11-28T14:45:47Z</time>
      </trkpt>
      <trkpt lat="45.7086" lon="4.93872">
        <ele>221</ele>
        <time>2010-11-28T14:45:54Z</time>
      </trkpt>
      <trkpt lat="45.70837" lon="4.93836">
        <ele>221</ele>
        <time>2010-11-28T14:46:01Z</time>
      </trkpt>
      <trkpt lat="45.70823" lon="4.93808">
        <ele>220</ele>
        <time>2010-11-28T14:46:06Z</time>
      </trkpt>
      <trkpt lat="45.70809" lon="4.93774">
        <ele>220</ele>
        <time>2010-11-28T14:46:12Z</time>
      </trkpt>
      <trkpt lat="45.70801" lon="4.93752">
        <ele>220</ele>
        <time>2010-11-28T14:46:16Z</time>
      </trkpt>
      <trkpt lat="45.70784" lon="4.93711">
        <ele>219</ele>
        <time>2010-11-28T14:46:23Z</time>
      </trkpt>
      <trkpt lat="45.70768" lon="4.93673">
        <ele>219</ele>
        <time>2010-11-28T14:46:29Z</time>
      </trkpt>
      <trkpt lat="45.70749" lon="4.93631">
        <ele>219</ele>
        <time>2010-11-28T14:46:36Z</time>
      </trkpt>
      <trkpt lat="45.70732" lon="4.93597">
        <ele>219</ele>
        <time>2010-11-28T14:46:42Z</time>
      </trkpt>
      <trkpt lat="45.70729" lon="4.93592">
        <ele>219</ele>
        <time>2010-11-28T14:46:43Z</time>
      </trkpt>
      <trkpt lat="45.70709" lon="4.9356">
        <ele>217</ele>
        <time>2010-11-28T14:46:49Z</time>
      </trkpt>
      <trkpt lat="45.70684" lon="4.9353">
        <ele>216</ele>
        <time>2010-11-28T14:46:56Z</time>
      </trkpt>
      <trkpt lat="45.70657" lon="4.93507">
        <ele>215</ele>
        <time>2010-11-28T14:47:03Z</time>
      </trkpt>
      <trkpt lat="45.70654" lon="4.93504">
        <ele>215</ele>
        <time>2010-11-28T14:47:04Z</time>
      </trkpt>
      <trkpt lat="45.70644" lon="4.93478">
        <ele>214</ele>
        <time>2010-11-28T14:47:09Z</time>
      </trkpt>
      <trkpt lat="45.70643" lon="4.93449">
        <ele>215</ele>
        <time>2010-11-28T14:47:14Z</time>
      </trkpt>
      <trkpt lat="45.70656" lon="4.93446">
        <ele>215</ele>
        <time>2010-11-28T14:47:18Z</time>
      </trkpt>
      <trkpt lat="45.70683" lon="4.93464">
        <ele>215</ele>
        <time>2010-11-28T14:47:25Z</time>
      </trkpt>
      <trkpt lat="45.70707" lon="4.93474">
        <ele>215</ele>
        <time>2010-11-28T14:47:31Z</time>
      </trkpt>
      <trkpt lat="45.70725" lon="4.93478">
        <ele>216</ele>
        <time>2010-11-28T14:47:35Z</time>
      </trkpt>
      <trkpt lat="45.70744" lon="4.93484">
        <ele>216</ele>
        <time>2010-11-28T14:47:39Z</time>
      </trkpt>
      <trkpt lat="45.70778" lon="4.93486">
        <ele>215</ele>
        <time>2010-11-28T14:47:46Z</time>
      </trkpt>
      <trkpt lat="45.70794" lon="4.9349">
        <ele>215</ele>
        <time>2010-11-28T14:47:49Z</time>
      </trkpt>
      <trkpt lat="45.70824" lon="4.93496">
        <ele>214</ele>
        <time>2010-11-28T14:47:56Z</time>
      </trkpt>
      <trkpt lat="45.70826" lon="4.93495">
        <ele>214</ele>
        <time>2010-11-28T14:47:57Z</time>
      </trkpt>
      <trkpt lat="45.70832" lon="4.9349">
        <ele>214</ele>
        <time>2010-11-28T14:48:01Z</time>
      </trkpt>
      <trkpt lat="45.70837" lon="4.9349">
        <ele>213</ele>
        <time>2010-11-28T14:48:05Z</time>
      </trkpt>
      <trkpt lat="45.7084" lon="4.93488">
        <ele>213</ele>
        <time>2010-11-28T14:48:07Z</time>
      </trkpt>
      <trkpt lat="45.70842" lon="4.93485">
        <ele>213</ele>
        <time>2010-11-28T14:48:11Z</time>
      </trkpt>
      <trkpt lat="45.70849" lon="4.93483">
        <ele>213</ele>
        <time>2010-11-28T14:48:18Z</time>
      </trkpt>
      <trkpt lat="45.70861" lon="4.93486">
        <ele>212</ele>
        <time>2010-11-28T14:48:25Z</time>
      </trkpt>
      <trkpt lat="45.70871" lon="4.93476">
        <ele>212</ele>
        <time>2010-11-28T14:48:33Z</time>
      </trkpt>
      <trkpt lat="45.70877" lon="4.93474">
        <ele>212</ele>
        <time>2010-11-28T14:48:39Z</time>
      </trkpt>
      <trkpt lat="45.70883" lon="4.9347">
        <ele>212</ele>
        <time>2010-11-28T14:48:43Z</time>
      </trkpt>
      <trkpt lat="45.70889" lon="4.93462">
        <ele>211</ele>
        <time>2010-11-28T14:48:47Z</time>
      </trkpt>
      <trkpt lat="45.70895" lon="4.93431">
        <ele>210</ele>
        <time>2010-11-28T14:48:52Z</time>
      </trkpt>
      <trkpt lat="45.70903" lon="4.93392">
        <ele>210</ele>
        <time>2010-11-28T14:48:58Z</time>
      </trkpt>
      <trkpt lat="45.70911" lon="4.93354">
        <ele>212</ele>
        <time>2010-11-28T14:49:04Z</time>
      </trkpt>
      <trkpt lat="45.70916" lon="4.93327">
        <ele>212</ele>
        <time>2010-11-28T14:49:08Z</time>
      </trkpt>
      <trkpt lat="45.70924" lon="4.93288">
        <ele>210</ele>
        <time>2010-11-28T14:49:14Z</time>
      </trkpt>
      <trkpt lat="45.70927" lon="4.93276">
        <ele>210</ele>
        <time>2010-11-28T14:49:16Z</time>
      </trkpt>
      <trkpt lat="45.70935" lon="4.93236">
        <ele>209</ele>
        <time>2010-11-28T14:49:23Z</time>
      </trkpt>
      <trkpt lat="45.70944" lon="4.93209">
        <ele>209</ele>
        <time>2010-11-28T14:49:28Z</time>
      </trkpt>
      <trkpt lat="45.70955" lon="4.93173">
        <ele>209</ele>
        <time>2010-11-28T14:49:34Z</time>
      </trkpt>
      <trkpt lat="45.70967" lon="4.93135">
        <ele>209</ele>
        <time>2010-11-28T14:49:40Z</time>
      </trkpt>
      <trkpt lat="45.70976" lon="4.93109">
        <ele>209</ele>
        <time>2010-11-28T14:49:44Z</time>
      </trkpt>
      <trkpt lat="45.70989" lon="4.93075">
        <ele>210</ele>
        <time>2010-11-28T14:49:49Z</time>
      </trkpt>
      <trkpt lat="45.71006" lon="4.93039">
        <ele>210</ele>
        <time>2010-11-28T14:49:55Z</time>
      </trkpt>
      <trkpt lat="45.71011" lon="4.93025">
        <ele>210</ele>
        <time>2010-11-28T14:49:57Z</time>
      </trkpt>
      <trkpt lat="45.71035" lon="4.9298">
        <ele>211</ele>
        <time>2010-11-28T14:50:04Z</time>
      </trkpt>
      <trkpt lat="45.71038" lon="4.92973">
        <ele>211</ele>
        <time>2010-11-28T14:50:05Z</time>
      </trkpt>
      <trkpt lat="45.71049" lon="4.92953">
        <ele>211</ele>
        <time>2010-11-28T14:50:08Z</time>
      </trkpt>
      <trkpt lat="45.7107" lon="4.92915">
        <ele>210</ele>
        <time>2010-11-28T14:50:14Z</time>
      </trkpt>
      <trkpt lat="45.71088" lon="4.9288">
        <ele>210</ele>
        <time>2010-11-28T14:50:20Z</time>
      </trkpt>
      <trkpt lat="45.71091" lon="4.92875">
        <ele>210</ele>
        <time>2010-11-28T14:50:21Z</time>
      </trkpt>
      <trkpt lat="45.71101" lon="4.92861">
        <ele>209</ele>
        <time>2010-11-28T14:50:24Z</time>
      </trkpt>
      <trkpt lat="45.7112" lon="4.92835">
        <ele>209</ele>
        <time>2010-11-28T14:50:30Z</time>
      </trkpt>
      <trkpt lat="45.71123" lon="4.92831">
        <ele>209</ele>
        <time>2010-11-28T14:50:31Z</time>
      </trkpt>
      <trkpt lat="45.7115" lon="4.92798">
        <ele>208</ele>
        <time>2010-11-28T14:50:39Z</time>
      </trkpt>
      <trkpt lat="45.71174" lon="4.9277">
        <ele>209</ele>
        <time>2010-11-28T14:50:46Z</time>
      </trkpt>
      <trkpt lat="45.71188" lon="4.92756">
        <ele>209</ele>
        <time>2010-11-28T14:50:50Z</time>
      </trkpt>
      <trkpt lat="45.71195" lon="4.92754">
        <ele>209</ele>
        <time>2010-11-28T14:50:52Z</time>
      </trkpt>
      <trkpt lat="45.71207" lon="4.92769">
        <ele>209</ele>
        <time>2010-11-28T14:50:56Z</time>
      </trkpt>
      <trkpt lat="45.71211" lon="4.92779">
        <ele>209</ele>
        <time>2010-11-28T14:50:58Z</time>
      </trkpt>
      <trkpt lat="45.71229" lon="4.92824">
        <ele>208</ele>
        <time>2010-11-28T14:51:04Z</time>
      </trkpt>
      <trkpt lat="45.71233" lon="4.92831">
        <ele>208</ele>
        <time>2010-11-28T14:51:05Z</time>
      </trkpt>
      <trkpt lat="45.7124" lon="4.92849">
        <ele>207</ele>
        <time>2010-11-28T14:51:07Z</time>
      </trkpt>
      <trkpt lat="45.71252" lon="4.92873">
        <ele>206</ele>
        <time>2010-11-28T14:51:10Z</time>
      </trkpt>
      <trkpt lat="45.71276" lon="4.92923">
        <ele>206</ele>
        <time>2010-11-28T14:51:16Z</time>
      </trkpt>
      <trkpt lat="45.71299" lon="4.92964">
        <ele>206</ele>
        <time>2010-11-28T14:51:22Z</time>
      </trkpt>
      <trkpt lat="45.71302" lon="4.92969">
        <ele>206</ele>
        <time>2010-11-28T14:51:23Z</time>
      </trkpt>
      <trkpt lat="45.71326" lon="4.93017">
        <ele>205</ele>
        <time>2010-11-28T14:51:31Z</time>
      </trkpt>
      <trkpt lat="45.7133" lon="4.93023">
        <ele>205</ele>
        <time>2010-11-28T14:51:32Z</time>
      </trkpt>
      <trkpt lat="45.71342" lon="4.93043">
        <ele>205</ele>
        <time>2010-11-28T14:51:36Z</time>
      </trkpt>
      <trkpt lat="45.71346" lon="4.93048">
        <ele>205</ele>
        <time>2010-11-28T14:51:37Z</time>
      </trkpt>
      <trkpt lat="45.71362" lon="4.93072">
        <ele>204</ele>
        <time>2010-11-28T14:51:42Z</time>
      </trkpt>
      <trkpt lat="45.71364" lon="4.93078">
        <ele>204</ele>
        <time>2010-11-28T14:51:43Z</time>
      </trkpt>
      <trkpt lat="45.71373" lon="4.93093">
        <ele>204</ele>
        <time>2010-11-28T14:51:46Z</time>
      </trkpt>
      <trkpt lat="45.71387" lon="4.93117">
        <ele>205</ele>
        <time>2010-11-28T14:51:51Z</time>
      </trkpt>
      <trkpt lat="45.71404" lon="4.93138">
        <ele>205</ele>
        <time>2010-11-28T14:51:57Z</time>
      </trkpt>
      <trkpt lat="45.71413" lon="4.93142">
        <ele>205</ele>
        <time>2010-11-28T14:52:01Z</time>
      </trkpt>
      <trkpt lat="45.71417" lon="4.9315">
        <ele>205</ele>
        <time>2010-11-28T14:52:05Z</time>
      </trkpt>
      <trkpt lat="45.71424" lon="4.9316">
        <ele>205</ele>
        <time>2010-11-28T14:52:11Z</time>
      </trkpt>
      <trkpt lat="45.71426" lon="4.93159">
        <ele>205</ele>
        <time>2010-11-28T14:52:13Z</time>
      </trkpt>
      <trkpt lat="45.71428" lon="4.93158">
        <ele>205</ele>
        <time>2010-11-28T14:52:18Z</time>
      </trkpt>
      <trkpt lat="45.71425" lon="4.93161">
        <ele>205</ele>
        <time>2010-11-28T14:52:27Z</time>
      </trkpt>
      <trkpt lat="45.71425" lon="4.93164">
        <ele>205</ele>
        <time>2010-11-28T14:52:42Z</time>
      </trkpt>
      <trkpt lat="45.71425" lon="4.93163">
        <ele>205</ele>
        <time>2010-11-28T14:52:47Z</time>
      </trkpt>
      <trkpt lat="45.71427" lon="4.93176">
        <ele>204</ele>
        <time>2010-11-28T14:52:53Z</time>
      </trkpt>
      <trkpt lat="45.7143" lon="4.9318">
        <ele>204</ele>
        <time>2010-11-28T14:52:54Z</time>
      </trkpt>
      <trkpt lat="45.71451" lon="4.93205">
        <ele>203</ele>
        <time>2010-11-28T14:53:00Z</time>
      </trkpt>
      <trkpt lat="45.71467" lon="4.93223">
        <ele>202</ele>
        <time>2010-11-28T14:53:05Z</time>
      </trkpt>
      <trkpt lat="45.71484" lon="4.93243">
        <ele>201</ele>
        <time>2010-11-28T14:53:10Z</time>
      </trkpt>
      <trkpt lat="45.71489" lon="4.93247">
        <ele>201</ele>
        <time>2010-11-28T14:53:11Z</time>
      </trkpt>
      <trkpt lat="45.71498" lon="4.93255">
        <ele>200</ele>
        <time>2010-11-28T14:53:13Z</time>
      </trkpt>
      <trkpt lat="45.71506" lon="4.93263">
        <ele>201</ele>
        <time>2010-11-28T14:53:15Z</time>
      </trkpt>
      <trkpt lat="45.71526" lon="4.93282">
        <ele>203</ele>
        <time>2010-11-28T14:53:20Z</time>
      </trkpt>
      <trkpt lat="45.71538" lon="4.93293">
        <ele>203</ele>
        <time>2010-11-28T14:53:23Z</time>
      </trkpt>
      <trkpt lat="45.71565" lon="4.93317">
        <ele>204</ele>
        <time>2010-11-28T14:53:30Z</time>
      </trkpt>
      <trkpt lat="45.71589" lon="4.93335">
        <ele>205</ele>
        <time>2010-11-28T14:53:36Z</time>
      </trkpt>
      <trkpt lat="45.71594" lon="4.93338">
        <ele>205</ele>
        <time>2010-11-28T14:53:37Z</time>
      </trkpt>
      <trkpt lat="45.71624" lon="4.9336">
        <ele>205</ele>
        <time>2010-11-28T14:53:44Z</time>
      </trkpt>
      <trkpt lat="45.71633" lon="4.93366">
        <ele>205</ele>
        <time>2010-11-28T14:53:46Z</time>
      </trkpt>
      <trkpt lat="45.71641" lon="4.93372">
        <ele>205</ele>
        <time>2010-11-28T14:53:48Z</time>
      </trkpt>
      <trkpt lat="45.71672" lon="4.93388">
        <ele>205</ele>
        <time>2010-11-28T14:53:54Z</time>
      </trkpt>
      <trkpt lat="45.71697" lon="4.93396">
        <ele>205</ele>
        <time>2010-11-28T14:53:59Z</time>
      </trkpt>
      <trkpt lat="45.71702" lon="4.93397">
        <ele>205</ele>
        <time>2010-11-28T14:54:00Z</time>
      </trkpt>
      <trkpt lat="45.71732" lon="4.93406">
        <ele>205</ele>
        <time>2010-11-28T14:54:06Z</time>
      </trkpt>
      <trkpt lat="45.71756" lon="4.93417">
        <ele>205</ele>
        <time>2010-11-28T14:54:11Z</time>
      </trkpt>
      <trkpt lat="45.71785" lon="4.9343">
        <ele>205</ele>
        <time>2010-11-28T14:54:17Z</time>
      </trkpt>
      <trkpt lat="45.71801" lon="4.93437">
        <ele>205</ele>
        <time>2010-11-28T14:54:21Z</time>
      </trkpt>
      <trkpt lat="45.71822" lon="4.93446">
        <ele>205</ele>
        <time>2010-11-28T14:54:26Z</time>
      </trkpt>
      <trkpt lat="45.71833" lon="4.9345">
        <ele>205</ele>
        <time>2010-11-28T14:54:28Z</time>
      </trkpt>
      <trkpt lat="45.71866" lon="4.93465">
        <ele>205</ele>
        <time>2010-11-28T14:54:35Z</time>
      </trkpt>
      <trkpt lat="45.71878" lon="4.9347">
        <ele>206</ele>
        <time>2010-11-28T14:54:38Z</time>
      </trkpt>
      <trkpt lat="45.71907" lon="4.93481">
        <ele>206</ele>
        <time>2010-11-28T14:54:45Z</time>
      </trkpt>
      <trkpt lat="45.71922" lon="4.93482">
        <ele>205</ele>
        <time>2010-11-28T14:54:50Z</time>
      </trkpt>
      <trkpt lat="45.71924" lon="4.93477">
        <ele>205</ele>
        <time>2010-11-28T14:54:55Z</time>
      </trkpt>
      <trkpt lat="45.71926" lon="4.93461">
        <ele>204</ele>
        <time>2010-11-28T14:55:21Z</time>
      </trkpt>
      <trkpt lat="45.71915" lon="4.93463">
        <ele>206</ele>
        <time>2010-11-28T14:55:27Z</time>
      </trkpt>
      <trkpt lat="45.71903" lon="4.93461">
        <ele>205</ele>
        <time>2010-11-28T14:55:32Z</time>
      </trkpt>
      <trkpt lat="45.71883" lon="4.93453">
        <ele>205</ele>
        <time>2010-11-28T14:55:39Z</time>
      </trkpt>
      <trkpt lat="45.71869" lon="4.93447">
        <ele>205</ele>
        <time>2010-11-28T14:55:43Z</time>
      </trkpt>
      <trkpt lat="45.71851" lon="4.93436">
        <ele>204</ele>
        <time>2010-11-28T14:55:48Z</time>
      </trkpt>
      <trkpt lat="45.71848" lon="4.93434">
        <ele>204</ele>
        <time>2010-11-28T14:55:49Z</time>
      </trkpt>
      <trkpt lat="45.71828" lon="4.93426">
        <ele>204</ele>
        <time>2010-11-28T14:55:54Z</time>
      </trkpt>
      <trkpt lat="45.718" lon="4.93416">
        <ele>204</ele>
        <time>2010-11-28T14:56:00Z</time>
      </trkpt>
      <trkpt lat="45.71788" lon="4.93409">
        <ele>204</ele>
        <time>2010-11-28T14:56:02Z</time>
      </trkpt>
      <trkpt lat="45.71778" lon="4.93405">
        <ele>204</ele>
        <time>2010-11-28T14:56:04Z</time>
      </trkpt>
      <trkpt lat="45.71759" lon="4.93401">
        <ele>204</ele>
        <time>2010-11-28T14:56:07Z</time>
      </trkpt>
      <trkpt lat="45.71726" lon="4.93389">
        <ele>205</ele>
        <time>2010-11-28T14:56:13Z</time>
      </trkpt>
      <trkpt lat="45.7172" lon="4.93386">
        <ele>205</ele>
        <time>2010-11-28T14:56:14Z</time>
      </trkpt>
      <trkpt lat="45.71708" lon="4.93383">
        <ele>205</ele>
        <time>2010-11-28T14:56:16Z</time>
      </trkpt>
      <trkpt lat="45.71682" lon="4.93374">
        <ele>206</ele>
        <time>2010-11-28T14:56:21Z</time>
      </trkpt>
      <trkpt lat="45.71677" lon="4.93373">
        <ele>206</ele>
        <time>2010-11-28T14:56:22Z</time>
      </trkpt>
      <trkpt lat="45.71653" lon="4.93356">
        <ele>206</ele>
        <time>2010-11-28T14:56:28Z</time>
      </trkpt>
      <trkpt lat="45.7165" lon="4.93353">
        <ele>206</ele>
        <time>2010-11-28T14:56:29Z</time>
      </trkpt>
      <trkpt lat="45.7164" lon="4.93348">
        <ele>206</ele>
        <time>2010-11-28T14:56:31Z</time>
      </trkpt>
      <trkpt lat="45.71628" lon="4.93339">
        <ele>206</ele>
        <time>2010-11-28T14:56:34Z</time>
      </trkpt>
      <trkpt lat="45.71596" lon="4.93316">
        <ele>205</ele>
        <time>2010-11-28T14:56:41Z</time>
      </trkpt>
      <trkpt lat="45.71577" lon="4.93302">
        <ele>204</ele>
        <time>2010-11-28T14:56:46Z</time>
      </trkpt>
      <trkpt lat="45.71553" lon="4.93283">
        <ele>203</ele>
        <time>2010-11-28T14:56:52Z</time>
      </trkpt>
      <trkpt lat="45.71523" lon="4.93257">
        <ele>202</ele>
        <time>2010-11-28T14:56:59Z</time>
      </trkpt>
      <trkpt lat="45.71505" lon="4.93239">
        <ele>201</ele>
        <time>2010-11-28T14:57:03Z</time>
      </trkpt>
      <trkpt lat="45.71481" lon="4.93212">
        <ele>202</ele>
        <time>2010-11-28T14:57:10Z</time>
      </trkpt>
      <trkpt lat="45.7146" lon="4.93191">
        <ele>203</ele>
        <time>2010-11-28T14:57:17Z</time>
      </trkpt>
      <trkpt lat="45.71443" lon="4.9317">
        <ele>204</ele>
        <time>2010-11-28T14:57:24Z</time>
      </trkpt>
      <trkpt lat="45.71432" lon="4.93158">
        <ele>205</ele>
        <time>2010-11-28T14:57:30Z</time>
      </trkpt>
      <trkpt lat="45.71421" lon="4.9314">
        <ele>205</ele>
        <time>2010-11-28T14:57:37Z</time>
      </trkpt>
      <trkpt lat="45.71409" lon="4.93118">
        <ele>205</ele>
        <time>2010-11-28T14:57:43Z</time>
      </trkpt>
      <trkpt lat="45.71394" lon="4.93097">
        <ele>204</ele>
        <time>2010-11-28T14:57:48Z</time>
      </trkpt>
      <trkpt lat="45.71386" lon="4.93081">
        <ele>204</ele>
        <time>2010-11-28T14:57:51Z</time>
      </trkpt>
      <trkpt lat="45.71366" lon="4.93054">
        <ele>205</ele>
        <time>2010-11-28T14:57:56Z</time>
      </trkpt>
      <trkpt lat="45.71346" lon="4.9302">
        <ele>205</ele>
        <time>2010-11-28T14:58:02Z</time>
      </trkpt>
      <trkpt lat="45.71341" lon="4.93008">
        <ele>206</ele>
        <time>2010-11-28T14:58:04Z</time>
      </trkpt>
      <trkpt lat="45.7132" lon="4.92972">
        <ele>206</ele>
        <time>2010-11-28T14:58:10Z</time>
      </trkpt>
      <trkpt lat="45.71296" lon="4.92926">
        <ele>207</ele>
        <time>2010-11-28T14:58:18Z</time>
      </trkpt>
      <trkpt lat="45.71274" lon="4.92885">
        <ele>206</ele>
        <time>2010-11-28T14:58:25Z</time>
      </trkpt>
      <trkpt lat="45.71257" lon="4.92852">
        <ele>206</ele>
        <time>2010-11-28T14:58:31Z</time>
      </trkpt>
      <trkpt lat="45.71245" lon="4.92819">
        <ele>208</ele>
        <time>2010-11-28T14:58:38Z</time>
      </trkpt>
      <trkpt lat="45.71235" lon="4.92795">
        <ele>208</ele>
        <time>2010-11-28T14:58:43Z</time>
      </trkpt>
      <trkpt lat="45.71221" lon="4.92773">
        <ele>209</ele>
        <time>2010-11-28T14:58:48Z</time>
      </trkpt>
      <trkpt lat="45.71211" lon="4.92743">
        <ele>210</ele>
        <time>2010-11-28T14:58:55Z</time>
      </trkpt>
      <trkpt lat="45.71216" lon="4.92728">
        <ele>210</ele>
        <time>2010-11-28T14:58:59Z</time>
      </trkpt>
      <trkpt lat="45.71232" lon="4.92714">
        <ele>210</ele>
        <time>2010-11-28T14:59:04Z</time>
      </trkpt>
      <trkpt lat="45.71235" lon="4.92711">
        <ele>210</ele>
        <time>2010-11-28T14:59:05Z</time>
      </trkpt>
      <trkpt lat="45.71245" lon="4.92701">
        <ele>211</ele>
        <time>2010-11-28T14:59:08Z</time>
      </trkpt>
      <trkpt lat="45.71263" lon="4.92686">
        <ele>210</ele>
        <time>2010-11-28T14:59:13Z</time>
      </trkpt>
      <trkpt lat="45.71278" lon="4.92672">
        <ele>210</ele>
        <time>2010-11-28T14:59:17Z</time>
      </trkpt>
      <trkpt lat="45.71296" lon="4.92656">
        <ele>210</ele>
        <time>2010-11-28T14:59:21Z</time>
      </trkpt>
      <trkpt lat="45.71316" lon="4.92641">
        <ele>210</ele>
        <time>2010-11-28T14:59:25Z</time>
      </trkpt>
      <trkpt lat="45.71341" lon="4.92629">
        <ele>209</ele>
        <time>2010-11-28T14:59:30Z</time>
      </trkpt>
      <trkpt lat="45.71355" lon="4.92619">
        <ele>209</ele>
        <time>2010-11-28T14:59:32Z</time>
      </trkpt>
      <trkpt lat="45.71377" lon="4.92604">
        <ele>209</ele>
        <time>2010-11-28T14:59:36Z</time>
      </trkpt>
      <trkpt lat="45.71405" lon="4.92589">
        <ele>209</ele>
        <time>2010-11-28T14:59:42Z</time>
      </trkpt>
      <trkpt lat="45.71426" lon="4.92582">
        <ele>209</ele>
        <time>2010-11-28T14:59:46Z</time>
      </trkpt>
      <trkpt lat="45.71431" lon="4.92572">
        <ele>208</ele>
        <time>2010-11-28T14:59:49Z</time>
      </trkpt>
      <trkpt lat="45.71435" lon="4.92571">
        <ele>208</ele>
        <time>2010-11-28T14:59:50Z</time>
      </trkpt>
      <trkpt lat="45.71448" lon="4.92572">
        <ele>208</ele>
        <time>2010-11-28T14:59:53Z</time>
      </trkpt>
      <trkpt lat="45.71477" lon="4.92557">
        <ele>208</ele>
        <time>2010-11-28T15:00:00Z</time>
      </trkpt>
      <trkpt lat="45.71478" lon="4.92535">
        <ele>208</ele>
        <time>2010-11-28T15:00:05Z</time>
      </trkpt>
      <trkpt lat="45.71468" lon="4.92517">
        <ele>208</ele>
        <time>2010-11-28T15:00:10Z</time>
      </trkpt>
      <trkpt lat="45.7146" lon="4.92496">
        <ele>205</ele>
        <time>2010-11-28T15:00:16Z</time>
      </trkpt>
      <trkpt lat="45.71457" lon="4.92485">
        <ele>205</ele>
        <time>2010-11-28T15:00:19Z</time>
      </trkpt>
      <trkpt lat="45.71452" lon="4.92463">
        <ele>205</ele>
        <time>2010-11-28T15:00:24Z</time>
      </trkpt>
      <trkpt lat="45.71447" lon="4.92455">
        <ele>204</ele>
        <time>2010-11-28T15:00:26Z</time>
      </trkpt>
      <trkpt lat="45.71434" lon="4.92427">
        <ele>202</ele>
        <time>2010-11-28T15:00:31Z</time>
      </trkpt>
      <trkpt lat="45.71424" lon="4.92389">
        <ele>200</ele>
        <time>2010-11-28T15:00:36Z</time>
      </trkpt>
      <trkpt lat="45.71421" lon="4.92379">
        <ele>199</ele>
        <time>2010-11-28T15:00:37Z</time>
      </trkpt>
      <trkpt lat="45.71411" lon="4.92345">
        <ele>197</ele>
        <time>2010-11-28T15:00:40Z</time>
      </trkpt>
      <trkpt lat="45.71404" lon="4.92322">
        <ele>195</ele>
        <time>2010-11-28T15:00:42Z</time>
      </trkpt>
      <trkpt lat="45.71379" lon="4.92267">
        <ele>193</ele>
        <time>2010-11-28T15:00:47Z</time>
      </trkpt>
      <trkpt lat="45.71373" lon="4.92257">
        <ele>193</ele>
        <time>2010-11-28T15:00:48Z</time>
      </trkpt>
      <trkpt lat="45.71342" lon="4.92203">
        <ele>192</ele>
        <time>2010-11-28T15:00:54Z</time>
      </trkpt>
      <trkpt lat="45.71324" lon="4.92175">
        <ele>190</ele>
        <time>2010-11-28T15:00:58Z</time>
      </trkpt>
      <trkpt lat="45.71295" lon="4.92134">
        <ele>189</ele>
        <time>2010-11-28T15:01:05Z</time>
      </trkpt>
      <trkpt lat="45.7127" lon="4.92107">
        <ele>189</ele>
        <time>2010-11-28T15:01:11Z</time>
      </trkpt>
      <trkpt lat="45.71264" lon="4.92099">
        <ele>189</ele>
        <time>2010-11-28T15:01:13Z</time>
      </trkpt>
      <trkpt lat="45.71247" lon="4.92078">
        <ele>189</ele>
        <time>2010-11-28T15:01:19Z</time>
      </trkpt>
      <trkpt lat="45.71241" lon="4.92071">
        <ele>190</ele>
        <time>2010-11-28T15:01:24Z</time>
      </trkpt>
      <trkpt lat="45.71239" lon="4.92071">
        <ele>190</ele>
        <time>2010-11-28T15:01:25Z</time>
      </trkpt>
      <trkpt lat="45.71233" lon="4.92067">
        <ele>190</ele>
        <time>2010-11-28T15:01:29Z</time>
      </trkpt>
      <trkpt lat="45.71213" lon="4.92052">
        <ele>191</ele>
        <time>2010-11-28T15:01:35Z</time>
      </trkpt>
      <trkpt lat="45.71198" lon="4.92046">
        <ele>191</ele>
        <time>2010-11-28T15:01:39Z</time>
      </trkpt>
      <trkpt lat="45.71182" lon="4.92034">
        <ele>191</ele>
        <time>2010-11-28T15:01:44Z</time>
      </trkpt>
      <trkpt lat="45.71144" lon="4.92005">
        <ele>191</ele>
        <time>2010-11-28T15:01:53Z</time>
      </trkpt>
      <trkpt lat="45.71112" lon="4.9199">
        <ele>192</ele>
        <time>2010-11-28T15:01:59Z</time>
      </trkpt>
      <trkpt lat="45.71096" lon="4.91983">
        <ele>191</ele>
        <time>2010-11-28T15:02:02Z</time>
      </trkpt>
      <trkpt lat="45.71056" lon="4.91964">
        <ele>190</ele>
        <time>2010-11-28T15:02:10Z</time>
      </trkpt>
      <trkpt lat="45.7105" lon="4.91962">
        <ele>190</ele>
        <time>2010-11-28T15:02:11Z</time>
      </trkpt>
      <trkpt lat="45.71041" lon="4.91955">
        <ele>190</ele>
        <time>2010-11-28T15:02:13Z</time>
      </trkpt>
      <trkpt lat="45.7103" lon="4.91951">
        <ele>190</ele>
        <time>2010-11-28T15:02:15Z</time>
      </trkpt>
      <trkpt lat="45.70997" lon="4.91936">
        <ele>190</ele>
        <time>2010-11-28T15:02:22Z</time>
      </trkpt>
      <trkpt lat="45.70963" lon="4.91916">
        <ele>191</ele>
        <time>2010-11-28T15:02:29Z</time>
      </trkpt>
      <trkpt lat="45.70959" lon="4.91913">
        <ele>191</ele>
        <time>2010-11-28T15:02:30Z</time>
      </trkpt>
      <trkpt lat="45.70936" lon="4.91897">
        <ele>192</ele>
        <time>2010-11-28T15:02:35Z</time>
      </trkpt>
      <trkpt lat="45.70927" lon="4.91892">
        <ele>192</ele>
        <time>2010-11-28T15:02:37Z</time>
      </trkpt>
      <trkpt lat="45.70881" lon="4.91861">
        <ele>191</ele>
        <time>2010-11-28T15:02:47Z</time>
      </trkpt>
      <trkpt lat="45.70863" lon="4.9185">
        <ele>191</ele>
        <time>2010-11-28T15:02:51Z</time>
      </trkpt>
      <trkpt lat="45.70842" lon="4.91835">
        <ele>191</ele>
        <time>2010-11-28T15:02:56Z</time>
      </trkpt>
      <trkpt lat="45.7082" lon="4.91823">
        <ele>190</ele>
        <time>2010-11-28T15:03:01Z</time>
      </trkpt>
      <trkpt lat="45.70816" lon="4.91804">
        <ele>190</ele>
        <time>2010-11-28T15:03:05Z</time>
      </trkpt>
      <trkpt lat="45.70818" lon="4.91799">
        <ele>190</ele>
        <time>2010-11-28T15:03:06Z</time>
      </trkpt>
      <trkpt lat="45.70832" lon="4.91771">
        <ele>190</ele>
        <time>2010-11-28T15:03:12Z</time>
      </trkpt>
      <trkpt lat="45.7084" lon="4.91763">
        <ele>190</ele>
        <time>2010-11-28T15:03:16Z</time>
      </trkpt>
      <trkpt lat="45.70853" lon="4.91744">
        <ele>191</ele>
        <time>2010-11-28T15:03:22Z</time>
      </trkpt>
      <trkpt lat="45.70869" lon="4.91716">
        <ele>191</ele>
        <time>2010-11-28T15:03:28Z</time>
      </trkpt>
      <trkpt lat="45.70875" lon="4.91705">
        <ele>191</ele>
        <time>2010-11-28T15:03:30Z</time>
      </trkpt>
      <trkpt lat="45.70893" lon="4.91672">
        <ele>191</ele>
        <time>2010-11-28T15:03:36Z</time>
      </trkpt>
      <trkpt lat="45.70897" lon="4.91667">
        <ele>192</ele>
        <time>2010-11-28T15:03:37Z</time>
      </trkpt>
      <trkpt lat="45.70913" lon="4.91648">
        <ele>192</ele>
        <time>2010-11-28T15:03:42Z</time>
      </trkpt>
      <trkpt lat="45.70916" lon="4.91645">
        <ele>192</ele>
        <time>2010-11-28T15:03:43Z</time>
      </trkpt>
      <trkpt lat="45.70938" lon="4.91602">
        <ele>190</ele>
        <time>2010-11-28T15:03:50Z</time>
      </trkpt>
      <trkpt lat="45.70958" lon="4.91564">
        <ele>189</ele>
        <time>2010-11-28T15:03:56Z</time>
      </trkpt>
      <trkpt lat="45.7098" lon="4.91524">
        <ele>189</ele>
        <time>2010-11-28T15:04:02Z</time>
      </trkpt>
      <trkpt lat="45.70993" lon="4.91499">
        <ele>188</ele>
        <time>2010-11-28T15:04:06Z</time>
      </trkpt>
      <trkpt lat="45.71008" lon="4.91474">
        <ele>189</ele>
        <time>2010-11-28T15:04:10Z</time>
      </trkpt>
      <trkpt lat="45.71024" lon="4.91441">
        <ele>190</ele>
        <time>2010-11-28T15:04:15Z</time>
      </trkpt>
      <trkpt lat="45.71045" lon="4.91402">
        <ele>191</ele>
        <time>2010-11-28T15:04:21Z</time>
      </trkpt>
      <trkpt lat="45.71074" lon="4.9135">
        <ele>191</ele>
        <time>2010-11-28T15:04:29Z</time>
      </trkpt>
      <trkpt lat="45.71085" lon="4.9133">
        <ele>192</ele>
        <time>2010-11-28T15:04:32Z</time>
      </trkpt>
      <trkpt lat="45.71108" lon="4.91287">
        <ele>191</ele>
        <time>2010-11-28T15:04:39Z</time>
      </trkpt>
      <trkpt lat="45.71122" lon="4.91261">
        <ele>190</ele>
        <time>2010-11-28T15:04:45Z</time>
      </trkpt>
      <trkpt lat="45.71123" lon="4.91258">
        <ele>190</ele>
        <time>2010-11-28T15:04:46Z</time>
      </trkpt>
      <trkpt lat="45.7112" lon="4.91249">
        <ele>190</ele>
        <time>2010-11-28T15:04:50Z</time>
      </trkpt>
      <trkpt lat="45.71122" lon="4.9124">
        <ele>190</ele>
        <time>2010-11-28T15:04:53Z</time>
      </trkpt>
      <trkpt lat="45.71131" lon="4.91237">
        <ele>190</ele>
        <time>2010-11-28T15:04:57Z</time>
      </trkpt>
      <trkpt lat="45.71141" lon="4.91226">
        <ele>190</ele>
        <time>2010-11-28T15:05:03Z</time>
      </trkpt>
      <trkpt lat="45.71143" lon="4.91223">
        <ele>190</ele>
        <time>2010-11-28T15:05:07Z</time>
      </trkpt>
      <trkpt lat="45.71149" lon="4.91215">
        <ele>190</ele>
        <time>2010-11-28T15:05:11Z</time>
      </trkpt>
      <trkpt lat="45.71161" lon="4.91188">
        <ele>190</ele>
        <time>2010-11-28T15:05:16Z</time>
      </trkpt>
      <trkpt lat="45.71181" lon="4.91149">
        <ele>189</ele>
        <time>2010-11-28T15:05:23Z</time>
      </trkpt>
      <trkpt lat="45.71199" lon="4.91114">
        <ele>190</ele>
        <time>2010-11-28T15:05:29Z</time>
      </trkpt>
      <trkpt lat="45.71206" lon="4.91104">
        <ele>190</ele>
        <time>2010-11-28T15:05:31Z</time>
      </trkpt>
      <trkpt lat="45.71212" lon="4.91092">
        <ele>190</ele>
        <time>2010-11-28T15:05:33Z</time>
      </trkpt>
      <trkpt lat="45.71218" lon="4.91081">
        <ele>191</ele>
        <time>2010-11-28T15:05:35Z</time>
      </trkpt>
      <trkpt lat="45.71234" lon="4.91056">
        <ele>191</ele>
        <time>2010-11-28T15:05:40Z</time>
      </trkpt>
      <trkpt lat="45.71241" lon="4.91038">
        <ele>191</ele>
        <time>2010-11-28T15:05:43Z</time>
      </trkpt>
      <trkpt lat="45.71255" lon="4.91012">
        <ele>190</ele>
        <time>2010-11-28T15:05:48Z</time>
      </trkpt>
      <trkpt lat="45.71278" lon="4.90972">
        <ele>190</ele>
        <time>2010-11-28T15:05:55Z</time>
      </trkpt>
      <trkpt lat="45.71292" lon="4.90948">
        <ele>190</ele>
        <time>2010-11-28T15:05:59Z</time>
      </trkpt>
      <trkpt lat="45.71303" lon="4.9093">
        <ele>190</ele>
        <time>2010-11-28T15:06:02Z</time>
      </trkpt>
      <trkpt lat="45.71317" lon="4.90903">
        <ele>189</ele>
        <time>2010-11-28T15:06:06Z</time>
      </trkpt>
      <trkpt lat="45.71324" lon="4.90891">
        <ele>189</ele>
        <time>2010-11-28T15:06:08Z</time>
      </trkpt>
      <trkpt lat="45.71337" lon="4.90865">
        <ele>190</ele>
        <time>2010-11-28T15:06:12Z</time>
      </trkpt>
      <trkpt lat="45.71364" lon="4.90816">
        <ele>189</ele>
        <time>2010-11-28T15:06:20Z</time>
      </trkpt>
      <trkpt lat="45.71384" lon="4.9078">
        <ele>189</ele>
        <time>2010-11-28T15:06:26Z</time>
      </trkpt>
      <trkpt lat="45.71397" lon="4.90758">
        <ele>189</ele>
        <time>2010-11-28T15:06:30Z</time>
      </trkpt>
      <trkpt lat="45.71413" lon="4.90728">
        <ele>189</ele>
        <time>2010-11-28T15:06:35Z</time>
      </trkpt>
      <trkpt lat="45.71427" lon="4.90704">
        <ele>190</ele>
        <time>2010-11-28T15:06:39Z</time>
      </trkpt>
      <trkpt lat="45.71448" lon="4.90668">
        <ele>190</ele>
        <time>2010-11-28T15:06:45Z</time>
      </trkpt>
      <trkpt lat="45.7146" lon="4.90647">
        <ele>190</ele>
        <time>2010-11-28T15:06:49Z</time>
      </trkpt>
      <trkpt lat="45.71472" lon="4.90621">
        <ele>190</ele>
        <time>2010-11-28T15:06:55Z</time>
      </trkpt>
      <trkpt lat="45.71473" lon="4.90619">
        <ele>190</ele>
        <time>2010-11-28T15:06:56Z</time>
      </trkpt>
      <trkpt lat="45.71473" lon="4.90617">
        <ele>190</ele>
        <time>2010-11-28T15:07:01Z</time>
      </trkpt>
      <trkpt lat="45.71474" lon="4.90616">
        <ele>190</ele>
        <time>2010-11-28T15:07:03Z</time>
      </trkpt>
      <trkpt lat="45.7148" lon="4.90596">
        <ele>190</ele>
        <time>2010-11-28T15:07:09Z</time>
      </trkpt>
      <trkpt lat="45.71483" lon="4.90581">
        <ele>191</ele>
        <time>2010-11-28T15:07:13Z</time>
      </trkpt>
      <trkpt lat="45.71481" lon="4.90575">
        <ele>191</ele>
        <time>2010-11-28T15:07:15Z</time>
      </trkpt>
      <trkpt lat="45.71472" lon="4.90558">
        <ele>190</ele>
        <time>2010-11-28T15:07:24Z</time>
      </trkpt>
      <trkpt lat="45.71468" lon="4.9055">
        <ele>190</ele>
        <time>2010-11-28T15:07:27Z</time>
      </trkpt>
      <trkpt lat="45.71463" lon="4.90542">
        <ele>190</ele>
        <time>2010-11-28T15:07:31Z</time>
      </trkpt>
      <trkpt lat="45.71459" lon="4.90513">
        <ele>191</ele>
        <time>2010-11-28T15:07:36Z</time>
      </trkpt>
      <trkpt lat="45.71443" lon="4.9048">
        <ele>191</ele>
        <time>2010-11-28T15:07:42Z</time>
      </trkpt>
      <trkpt lat="45.71422" lon="4.90471">
        <ele>191</ele>
        <time>2010-11-28T15:07:46Z</time>
      </trkpt>
      <trkpt lat="45.71407" lon="4.90454">
        <ele>191</ele>
        <time>2010-11-28T15:07:50Z</time>
      </trkpt>
      <trkpt lat="45.71395" lon="4.90431">
        <ele>192</ele>
        <time>2010-11-28T15:07:54Z</time>
      </trkpt>
      <trkpt lat="45.71381" lon="4.9041">
        <ele>192</ele>
        <time>2010-11-28T15:07:58Z</time>
      </trkpt>
      <trkpt lat="45.71359" lon="4.90393">
        <ele>192</ele>
        <time>2010-11-28T15:08:03Z</time>
      </trkpt>
      <trkpt lat="45.71355" lon="4.90389">
        <ele>192</ele>
        <time>2010-11-28T15:08:04Z</time>
      </trkpt>
      <trkpt lat="45.7134" lon="4.90361">
        <ele>191</ele>
        <time>2010-11-28T15:08:09Z</time>
      </trkpt>
      <trkpt lat="45.71336" lon="4.90357">
        <ele>191</ele>
        <time>2010-11-28T15:08:10Z</time>
      </trkpt>
      <trkpt lat="45.71317" lon="4.90327">
        <ele>191</ele>
        <time>2010-11-28T15:08:16Z</time>
      </trkpt>
      <trkpt lat="45.7131" lon="4.90315">
        <ele>191</ele>
        <time>2010-11-28T15:08:18Z</time>
      </trkpt>
      <trkpt lat="45.71297" lon="4.9029">
        <ele>192</ele>
        <time>2010-11-28T15:08:23Z</time>
      </trkpt>
      <trkpt lat="45.71273" lon="4.90265">
        <ele>192</ele>
        <time>2010-11-28T15:08:29Z</time>
      </trkpt>
      <trkpt lat="45.71258" lon="4.9025">
        <ele>192</ele>
        <time>2010-11-28T15:08:33Z</time>
      </trkpt>
      <trkpt lat="45.71244" lon="4.90229">
        <ele>191</ele>
        <time>2010-11-28T15:08:37Z</time>
      </trkpt>
      <trkpt lat="45.71249" lon="4.90203">
        <ele>190</ele>
        <time>2010-11-28T15:08:42Z</time>
      </trkpt>
      <trkpt lat="45.71268" lon="4.9017">
        <ele>191</ele>
        <time>2010-11-28T15:08:48Z</time>
      </trkpt>
      <trkpt lat="45.7129" lon="4.90132">
        <ele>191</ele>
        <time>2010-11-28T15:08:54Z</time>
      </trkpt>
      <trkpt lat="45.71321" lon="4.90083">
        <ele>191</ele>
        <time>2010-11-28T15:09:02Z</time>
      </trkpt>
      <trkpt lat="45.71345" lon="4.9004">
        <ele>193</ele>
        <time>2010-11-28T15:09:09Z</time>
      </trkpt>
      <trkpt lat="45.71372" lon="4.89996">
        <ele>194</ele>
        <time>2010-11-28T15:09:17Z</time>
      </trkpt>
      <trkpt lat="45.71393" lon="4.89961">
        <ele>194</ele>
        <time>2010-11-28T15:09:23Z</time>
      </trkpt>
      <trkpt lat="45.71409" lon="4.89933">
        <ele>194</ele>
        <time>2010-11-28T15:09:28Z</time>
      </trkpt>
      <trkpt lat="45.71429" lon="4.89897">
        <ele>192</ele>
        <time>2010-11-28T15:09:34Z</time>
      </trkpt>
      <trkpt lat="45.71456" lon="4.89859">
        <ele>192</ele>
        <time>2010-11-28T15:09:41Z</time>
      </trkpt>
      <trkpt lat="45.71474" lon="4.8983">
        <ele>192</ele>
        <time>2010-11-28T15:09:47Z</time>
      </trkpt>
      <trkpt lat="45.71494" lon="4.89798">
        <ele>192</ele>
        <time>2010-11-28T15:09:53Z</time>
      </trkpt>
      <trkpt lat="45.71509" lon="4.89773">
        <ele>191</ele>
        <time>2010-11-28T15:09:58Z</time>
      </trkpt>
      <trkpt lat="45.71512" lon="4.89769">
        <ele>191</ele>
        <time>2010-11-28T15:09:59Z</time>
      </trkpt>
      <trkpt lat="45.71531" lon="4.89757">
        <ele>190</ele>
        <time>2010-11-28T15:10:04Z</time>
      </trkpt>
      <trkpt lat="45.71542" lon="4.89741">
        <ele>190</ele>
        <time>2010-11-28T15:10:07Z</time>
      </trkpt>
      <trkpt lat="45.71546" lon="4.89725">
        <ele>190</ele>
        <time>2010-11-28T15:10:09Z</time>
      </trkpt>
      <trkpt lat="45.71553" lon="4.89662">
        <ele>190</ele>
        <time>2010-11-28T15:10:17Z</time>
      </trkpt>
      <trkpt lat="45.71553" lon="4.89626">
        <ele>190</ele>
        <time>2010-11-28T15:10:22Z</time>
      </trkpt>
      <trkpt lat="45.71553" lon="4.89619">
        <ele>190</ele>
        <time>2010-11-28T15:10:23Z</time>
      </trkpt>
      <trkpt lat="45.71561" lon="4.89579">
        <ele>188</ele>
        <time>2010-11-28T15:10:29Z</time>
      </trkpt>
      <trkpt lat="45.71563" lon="4.89565">
        <ele>188</ele>
        <time>2010-11-28T15:10:31Z</time>
      </trkpt>
      <trkpt lat="45.71574" lon="4.8952">
        <ele>187</ele>
        <time>2010-11-28T15:10:38Z</time>
      </trkpt>
      <trkpt lat="45.71582" lon="4.89501">
        <ele>187</ele>
        <time>2010-11-28T15:10:41Z</time>
      </trkpt>
      <trkpt lat="45.716" lon="4.89459">
        <ele>186</ele>
        <time>2010-11-28T15:10:48Z</time>
      </trkpt>
      <trkpt lat="45.71627" lon="4.8941">
        <ele>185</ele>
        <time>2010-11-28T15:10:56Z</time>
      </trkpt>
      <trkpt lat="45.71634" lon="4.894">
        <ele>185</ele>
        <time>2010-11-28T15:10:58Z</time>
      </trkpt>
      <trkpt lat="45.71655" lon="4.8937">
        <ele>185</ele>
        <time>2010-11-28T15:11:04Z</time>
      </trkpt>
      <trkpt lat="45.71658" lon="4.89365">
        <ele>185</ele>
        <time>2010-11-28T15:11:05Z</time>
      </trkpt>
      <trkpt lat="45.71671" lon="4.89346">
        <ele>186</ele>
        <time>2010-11-28T15:11:09Z</time>
      </trkpt>
      <trkpt lat="45.71698" lon="4.89325">
        <ele>186</ele>
        <time>2010-11-28T15:11:15Z</time>
      </trkpt>
      <trkpt lat="45.71718" lon="4.89313">
        <ele>186</ele>
        <time>2010-11-28T15:11:20Z</time>
      </trkpt>
      <trkpt lat="45.71747" lon="4.89299">
        <ele>186</ele>
        <time>2010-11-28T15:11:27Z</time>
      </trkpt>
      <trkpt lat="45.71752" lon="4.89297">
        <ele>186</ele>
        <time>2010-11-28T15:11:28Z</time>
      </trkpt>
      <trkpt lat="45.71778" lon="4.89288">
        <ele>186</ele>
        <time>2010-11-28T15:11:34Z</time>
      </trkpt>
      <trkpt lat="45.71811" lon="4.8928">
        <ele>185</ele>
        <time>2010-11-28T15:11:41Z</time>
      </trkpt>
      <trkpt lat="45.71839" lon="4.8928">
        <ele>184</ele>
        <time>2010-11-28T15:11:47Z</time>
      </trkpt>
      <trkpt lat="45.71857" lon="4.89284">
        <ele>184</ele>
        <time>2010-11-28T15:11:52Z</time>
      </trkpt>
      <trkpt lat="45.71871" lon="4.89287">
        <ele>184</ele>
        <time>2010-11-28T15:11:56Z</time>
      </trkpt>
      <trkpt lat="45.71875" lon="4.89271">
        <ele>184</ele>
        <time>2010-11-28T15:12:01Z</time>
      </trkpt>
      <trkpt lat="45.71876" lon="4.89266">
        <ele>183</ele>
        <time>2010-11-28T15:12:06Z</time>
      </trkpt>
      <trkpt lat="45.71877" lon="4.89256">
        <ele>183</ele>
        <time>2010-11-28T15:12:20Z</time>
      </trkpt>
      <trkpt lat="45.71878" lon="4.89251">
        <ele>183</ele>
        <time>2010-11-28T15:12:22Z</time>
      </trkpt>
      <trkpt lat="45.71874" lon="4.8924">
        <ele>183</ele>
        <time>2010-11-28T15:12:26Z</time>
      </trkpt>
      <trkpt lat="45.71855" lon="4.89229">
        <ele>183</ele>
        <time>2010-11-28T15:12:32Z</time>
      </trkpt>
      <trkpt lat="45.71835" lon="4.8922">
        <ele>183</ele>
        <time>2010-11-28T15:12:38Z</time>
      </trkpt>
      <trkpt lat="45.71828" lon="4.89212">
        <ele>184</ele>
        <time>2010-11-28T15:12:42Z</time>
      </trkpt>
      <trkpt lat="45.71826" lon="4.89209">
        <ele>184</ele>
        <time>2010-11-28T15:12:43Z</time>
      </trkpt>
      <trkpt lat="45.71827" lon="4.89186">
        <ele>184</ele>
        <time>2010-11-28T15:12:48Z</time>
      </trkpt>
      <trkpt lat="45.71837" lon="4.8915">
        <ele>183</ele>
        <time>2010-11-28T15:12:54Z</time>
      </trkpt>
      <trkpt lat="45.71849" lon="4.89114">
        <ele>184</ele>
        <time>2010-11-28T15:13:00Z</time>
      </trkpt>
      <trkpt lat="45.71852" lon="4.89108">
        <ele>184</ele>
        <time>2010-11-28T15:13:01Z</time>
      </trkpt>
      <trkpt lat="45.71858" lon="4.8909">
        <ele>184</ele>
        <time>2010-11-28T15:13:04Z</time>
      </trkpt>
      <trkpt lat="45.71866" lon="4.89057">
        <ele>184</ele>
        <time>2010-11-28T15:13:10Z</time>
      </trkpt>
      <trkpt lat="45.71871" lon="4.89029">
        <ele>184</ele>
        <time>2010-11-28T15:13:15Z</time>
      </trkpt>
      <trkpt lat="45.71875" lon="4.89016">
        <ele>184</ele>
        <time>2010-11-28T15:13:17Z</time>
      </trkpt>
      <trkpt lat="45.71884" lon="4.88991">
        <ele>183</ele>
        <time>2010-11-28T15:13:21Z</time>
      </trkpt>
      <trkpt lat="45.71899" lon="4.88964">
        <ele>183</ele>
        <time>2010-11-28T15:13:26Z</time>
      </trkpt>
      <trkpt lat="45.71919" lon="4.88926">
        <ele>182</ele>
        <time>2010-11-28T15:13:32Z</time>
      </trkpt>
      <trkpt lat="45.71939" lon="4.88895">
        <ele>183</ele>
        <time>2010-11-28T15:13:38Z</time>
      </trkpt>
      <trkpt lat="45.71953" lon="4.88873">
        <ele>183</ele>
        <time>2010-11-28T15:13:44Z</time>
      </trkpt>
      <trkpt lat="45.71953" lon="4.88855">
        <ele>183</ele>
        <time>2010-11-28T15:13:49Z</time>
      </trkpt>
      <trkpt lat="45.71949" lon="4.88841">
        <ele>183</ele>
        <time>2010-11-28T15:13:53Z</time>
      </trkpt>
      <trkpt lat="45.71939" lon="4.88823">
        <ele>184</ele>
        <time>2010-11-28T15:13:58Z</time>
      </trkpt>
      <trkpt lat="45.71932" lon="4.88807">
        <ele>184</ele>
        <time>2010-11-28T15:14:02Z</time>
      </trkpt>
      <trkpt lat="45.7192" lon="4.88787">
        <ele>184</ele>
        <time>2010-11-28T15:14:08Z</time>
      </trkpt>
      <trkpt lat="45.7191" lon="4.88764">
        <ele>185</ele>
        <time>2010-11-28T15:14:13Z</time>
      </trkpt>
      <trkpt lat="45.71898" lon="4.88749">
        <ele>185</ele>
        <time>2010-11-28T15:14:17Z</time>
      </trkpt>
      <trkpt lat="45.71895" lon="4.88741">
        <ele>185</ele>
        <time>2010-11-28T15:14:19Z</time>
      </trkpt>
      <trkpt lat="45.71904" lon="4.8872">
        <ele>185</ele>
        <time>2010-11-28T15:14:24Z</time>
      </trkpt>
      <trkpt lat="45.71914" lon="4.88703">
        <ele>185</ele>
        <time>2010-11-28T15:14:29Z</time>
      </trkpt>
      <trkpt lat="45.71917" lon="4.88684">
        <ele>184</ele>
        <time>2010-11-28T15:14:33Z</time>
      </trkpt>
      <trkpt lat="45.7191" lon="4.88665">
        <ele>184</ele>
        <time>2010-11-28T15:14:37Z</time>
      </trkpt>
      <trkpt lat="45.71891" lon="4.88636">
        <ele>184</ele>
        <time>2010-11-28T15:14:43Z</time>
      </trkpt>
      <trkpt lat="45.71884" lon="4.88626">
        <ele>184</ele>
        <time>2010-11-28T15:14:45Z</time>
      </trkpt>
      <trkpt lat="45.71878" lon="4.88617">
        <ele>183</ele>
        <time>2010-11-28T15:14:47Z</time>
      </trkpt>
      <trkpt lat="45.71864" lon="4.88585">
        <ele>183</ele>
        <time>2010-11-28T15:14:53Z</time>
      </trkpt>
      <trkpt lat="45.71847" lon="4.88564">
        <ele>183</ele>
        <time>2010-11-28T15:14:57Z</time>
      </trkpt>
      <trkpt lat="45.71841" lon="4.88553">
        <ele>183</ele>
        <time>2010-11-28T15:14:59Z</time>
      </trkpt>
      <trkpt lat="45.71828" lon="4.88532">
        <ele>183</ele>
        <time>2010-11-28T15:15:03Z</time>
      </trkpt>
      <trkpt lat="45.7181" lon="4.88506">
        <ele>184</ele>
        <time>2010-11-28T15:15:08Z</time>
      </trkpt>
      <trkpt lat="45.7179" lon="4.88477">
        <ele>183</ele>
        <time>2010-11-28T15:15:14Z</time>
      </trkpt>
      <trkpt lat="45.71778" lon="4.88459">
        <ele>183</ele>
        <time>2010-11-28T15:15:18Z</time>
      </trkpt>
      <trkpt lat="45.71763" lon="4.88441">
        <ele>183</ele>
        <time>2010-11-28T15:15:22Z</time>
      </trkpt>
      <trkpt lat="45.71745" lon="4.88417">
        <ele>183</ele>
        <time>2010-11-28T15:15:27Z</time>
      </trkpt>
      <trkpt lat="45.71736" lon="4.88403">
        <ele>183</ele>
        <time>2010-11-28T15:15:30Z</time>
      </trkpt>
      <trkpt lat="45.71731" lon="4.88392">
        <ele>183</ele>
        <time>2010-11-28T15:15:32Z</time>
      </trkpt>
      <trkpt lat="45.71707" lon="4.88357">
        <ele>182</ele>
        <time>2010-11-28T15:15:39Z</time>
      </trkpt>
      <trkpt lat="45.71683" lon="4.88333">
        <ele>182</ele>
        <time>2010-11-28T15:15:45Z</time>
      </trkpt>
      <trkpt lat="45.71668" lon="4.88317">
        <ele>182</ele>
        <time>2010-11-28T15:15:49Z</time>
      </trkpt>
      <trkpt lat="45.71652" lon="4.88301">
        <ele>183</ele>
        <time>2010-11-28T15:15:54Z</time>
      </trkpt>
      <trkpt lat="45.71646" lon="4.8829">
        <ele>183</ele>
        <time>2010-11-28T15:15:57Z</time>
      </trkpt>
      <trkpt lat="45.71632" lon="4.88259">
        <ele>184</ele>
        <time>2010-11-28T15:16:03Z</time>
      </trkpt>
      <trkpt lat="45.71624" lon="4.88247">
        <ele>184</ele>
        <time>2010-11-28T15:16:06Z</time>
      </trkpt>
      <trkpt lat="45.71598" lon="4.8821">
        <ele>184</ele>
        <time>2010-11-28T15:16:14Z</time>
      </trkpt>
      <trkpt lat="45.71587" lon="4.88192">
        <ele>184</ele>
        <time>2010-11-28T15:16:17Z</time>
      </trkpt>
      <trkpt lat="45.71572" lon="4.88166">
        <ele>184</ele>
        <time>2010-11-28T15:16:22Z</time>
      </trkpt>
      <trkpt lat="45.71569" lon="4.88154">
        <ele>184</ele>
        <time>2010-11-28T15:16:24Z</time>
      </trkpt>
      <trkpt lat="45.71557" lon="4.88127">
        <ele>184</ele>
        <time>2010-11-28T15:16:29Z</time>
      </trkpt>
      <trkpt lat="45.71545" lon="4.88111">
        <ele>184</ele>
        <time>2010-11-28T15:16:32Z</time>
      </trkpt>
      <trkpt lat="45.71523" lon="4.88078">
        <ele>183</ele>
        <time>2010-11-28T15:16:38Z</time>
      </trkpt>
      <trkpt lat="45.71513" lon="4.88063">
        <ele>183</ele>
        <time>2010-11-28T15:16:41Z</time>
      </trkpt>
      <trkpt lat="45.71492" lon="4.88041">
        <ele>183</ele>
        <time>2010-11-28T15:16:46Z</time>
      </trkpt>
      <trkpt lat="45.71488" lon="4.8803">
        <ele>183</ele>
        <time>2010-11-28T15:16:48Z</time>
      </trkpt>
      <trkpt lat="45.7147" lon="4.8798">
        <ele>182</ele>
        <time>2010-11-28T15:16:56Z</time>
      </trkpt>
      <trkpt lat="45.71466" lon="4.87968">
        <ele>182</ele>
        <time>2010-11-28T15:16:58Z</time>
      </trkpt>
      <trkpt lat="45.71469" lon="4.87938">
        <ele>182</ele>
        <time>2010-11-28T15:17:03Z</time>
      </trkpt>
      <trkpt lat="45.71478" lon="4.87927">
        <ele>182</ele>
        <time>2010-11-28T15:17:05Z</time>
      </trkpt>
      <trkpt lat="45.71502" lon="4.87909">
        <ele>182</ele>
        <time>2010-11-28T15:17:10Z</time>
      </trkpt>
      <trkpt lat="45.71511" lon="4.87901">
        <ele>182</ele>
        <time>2010-11-28T15:17:12Z</time>
      </trkpt>
      <trkpt lat="45.71542" lon="4.87876">
        <ele>181</ele>
        <time>2010-11-28T15:17:18Z</time>
      </trkpt>
      <trkpt lat="45.71551" lon="4.87868">
        <ele>181</ele>
        <time>2010-11-28T15:17:20Z</time>
      </trkpt>
      <trkpt lat="45.71582" lon="4.87843">
        <ele>181</ele>
        <time>2010-11-28T15:17:27Z</time>
      </trkpt>
      <trkpt lat="45.7161" lon="4.87822">
        <ele>182</ele>
        <time>2010-11-28T15:17:33Z</time>
      </trkpt>
      <trkpt lat="45.71635" lon="4.878">
        <ele>183</ele>
        <time>2010-11-28T15:17:39Z</time>
      </trkpt>
      <trkpt lat="45.71643" lon="4.87795">
        <ele>183</ele>
        <time>2010-11-28T15:17:41Z</time>
      </trkpt>
      <trkpt lat="45.71669" lon="4.87775">
        <ele>182</ele>
        <time>2010-11-28T15:17:48Z</time>
      </trkpt>
      <trkpt lat="45.7169" lon="4.87765">
        <ele>181</ele>
        <time>2010-11-28T15:17:54Z</time>
      </trkpt>
      <trkpt lat="45.71696" lon="4.8775">
        <ele>181</ele>
        <time>2010-11-28T15:17:58Z</time>
      </trkpt>
      <trkpt lat="45.71699" lon="4.87748">
        <ele>182</ele>
        <time>2010-11-28T15:17:59Z</time>
      </trkpt>
      <trkpt lat="45.7172" lon="4.87732">
        <ele>181</ele>
        <time>2010-11-28T15:18:06Z</time>
      </trkpt>
      <trkpt lat="45.71741" lon="4.87715">
        <ele>181</ele>
        <time>2010-11-28T15:18:12Z</time>
      </trkpt>
      <trkpt lat="45.71767" lon="4.87692">
        <ele>180</ele>
        <time>2010-11-28T15:18:19Z</time>
      </trkpt>
      <trkpt lat="45.71796" lon="4.8767">
        <ele>180</ele>
        <time>2010-11-28T15:18:28Z</time>
      </trkpt>
      <trkpt lat="45.7181" lon="4.87659">
        <ele>180</ele>
        <time>2010-11-28T15:18:33Z</time>
      </trkpt>
      <trkpt lat="45.71819" lon="4.87657">
        <ele>180</ele>
        <time>2010-11-28T15:18:35Z</time>
      </trkpt>
      <trkpt lat="45.71841" lon="4.87642">
        <ele>179</ele>
        <time>2010-11-28T15:18:40Z</time>
      </trkpt>
      <trkpt lat="45.71862" lon="4.87623">
        <ele>179</ele>
        <time>2010-11-28T15:18:44Z</time>
      </trkpt>
      <trkpt lat="45.71882" lon="4.8761">
        <ele>179</ele>
        <time>2010-11-28T15:18:48Z</time>
      </trkpt>
      <trkpt lat="45.71902" lon="4.87604">
        <ele>179</ele>
        <time>2010-11-28T15:18:52Z</time>
      </trkpt>
      <trkpt lat="45.71924" lon="4.87586">
        <ele>179</ele>
        <time>2010-11-28T15:18:57Z</time>
      </trkpt>
      <trkpt lat="45.71933" lon="4.87576">
        <ele>180</ele>
        <time>2010-11-28T15:19:00Z</time>
      </trkpt>
      <trkpt lat="45.71945" lon="4.87567">
        <ele>180</ele>
        <time>2010-11-28T15:19:04Z</time>
      </trkpt>
      <trkpt lat="45.71952" lon="4.87564">
        <ele>180</ele>
        <time>2010-11-28T15:19:08Z</time>
      </trkpt>
      <trkpt lat="45.71955" lon="4.87549">
        <ele>180</ele>
        <time>2010-11-28T15:19:12Z</time>
      </trkpt>
      <trkpt lat="45.7196" lon="4.87541">
        <ele>180</ele>
        <time>2010-11-28T15:19:14Z</time>
      </trkpt>
      <trkpt lat="45.71977" lon="4.87529">
        <ele>180</ele>
        <time>2010-11-28T15:19:20Z</time>
      </trkpt>
      <trkpt lat="45.72002" lon="4.87509">
        <ele>181</ele>
        <time>2010-11-28T15:19:27Z</time>
      </trkpt>
      <trkpt lat="45.72021" lon="4.87492">
        <ele>181</ele>
        <time>2010-11-28T15:19:33Z</time>
      </trkpt>
      <trkpt lat="45.72034" lon="4.87483">
        <ele>180</ele>
        <time>2010-11-28T15:19:38Z</time>
      </trkpt>
      <trkpt lat="45.72042" lon="4.87483">
        <ele>180</ele>
        <time>2010-11-28T15:19:41Z</time>
      </trkpt>
      <trkpt lat="45.72054" lon="4.87473">
        <ele>180</ele>
        <time>2010-11-28T15:19:46Z</time>
      </trkpt>
      <trkpt lat="45.72071" lon="4.87461">
        <ele>180</ele>
        <time>2010-11-28T15:19:51Z</time>
      </trkpt>
      <trkpt lat="45.72075" lon="4.87457">
        <ele>180</ele>
        <time>2010-11-28T15:19:52Z</time>
      </trkpt>
      <trkpt lat="45.72094" lon="4.87444">
        <ele>180</ele>
        <time>2010-11-28T15:19:57Z</time>
      </trkpt>
      <trkpt lat="45.72107" lon="4.87438">
        <ele>179</ele>
        <time>2010-11-28T15:20:00Z</time>
      </trkpt>
      <trkpt lat="45.72122" lon="4.87424">
        <ele>179</ele>
        <time>2010-11-28T15:20:04Z</time>
      </trkpt>
      <trkpt lat="45.72128" lon="4.87416">
        <ele>179</ele>
        <time>2010-11-28T15:20:06Z</time>
      </trkpt>
      <trkpt lat="45.72147" lon="4.874">
        <ele>179</ele>
        <time>2010-11-28T15:20:11Z</time>
      </trkpt>
      <trkpt lat="45.72165" lon="4.87387">
        <ele>179</ele>
        <time>2010-11-28T15:20:16Z</time>
      </trkpt>
      <trkpt lat="45.72188" lon="4.87369">
        <ele>181</ele>
        <time>2010-11-28T15:20:23Z</time>
      </trkpt>
      <trkpt lat="45.72208" lon="4.87353">
        <ele>181</ele>
        <time>2010-11-28T15:20:28Z</time>
      </trkpt>
      <trkpt lat="45.72215" lon="4.87347">
        <ele>181</ele>
        <time>2010-11-28T15:20:30Z</time>
      </trkpt>
      <trkpt lat="45.72237" lon="4.87326">
        <ele>182</ele>
        <time>2010-11-28T15:20:35Z</time>
      </trkpt>
      <trkpt lat="45.72259" lon="4.87316">
        <ele>182</ele>
        <time>2010-11-28T15:20:40Z</time>
      </trkpt>
      <trkpt lat="45.72263" lon="4.87313">
        <ele>182</ele>
        <time>2010-11-28T15:20:41Z</time>
      </trkpt>
      <trkpt lat="45.72279" lon="4.87296">
        <ele>181</ele>
        <time>2010-11-28T15:20:46Z</time>
      </trkpt>
      <trkpt lat="45.72295" lon="4.87282">
        <ele>181</ele>
        <time>2010-11-28T15:20:51Z</time>
      </trkpt>
      <trkpt lat="45.72309" lon="4.8727">
        <ele>181</ele>
        <time>2010-11-28T15:20:54Z</time>
      </trkpt>
      <trkpt lat="45.72334" lon="4.87239">
        <ele>180</ele>
        <time>2010-11-28T15:20:59Z</time>
      </trkpt>
      <trkpt lat="45.72338" lon="4.87233">
        <ele>180</ele>
        <time>2010-11-28T15:21:00Z</time>
      </trkpt>
      <trkpt lat="45.72356" lon="4.87219">
        <ele>180</ele>
        <time>2010-11-28T15:21:05Z</time>
      </trkpt>
      <trkpt lat="45.72376" lon="4.87203">
        <ele>180</ele>
        <time>2010-11-28T15:21:11Z</time>
      </trkpt>
      <trkpt lat="45.72392" lon="4.87196">
        <ele>180</ele>
        <time>2010-11-28T15:21:16Z</time>
      </trkpt>
      <trkpt lat="45.72403" lon="4.87194">
        <ele>180</ele>
        <time>2010-11-28T15:21:21Z</time>
      </trkpt>
      <trkpt lat="45.72412" lon="4.87193">
        <ele>180</ele>
        <time>2010-11-28T15:21:25Z</time>
      </trkpt>
      <trkpt lat="45.7243" lon="4.87179">
        <ele>179</ele>
        <time>2010-11-28T15:21:31Z</time>
      </trkpt>
      <trkpt lat="45.72441" lon="4.87169">
        <ele>179</ele>
        <time>2010-11-28T15:21:34Z</time>
      </trkpt>
      <trkpt lat="45.72467" lon="4.87152">
        <ele>179</ele>
        <time>2010-11-28T15:21:40Z</time>
      </trkpt>
      <trkpt lat="45.72482" lon="4.87141">
        <ele>179</ele>
        <time>2010-11-28T15:21:44Z</time>
      </trkpt>
      <trkpt lat="45.72496" lon="4.87128">
        <ele>179</ele>
        <time>2010-11-28T15:21:48Z</time>
      </trkpt>
      <trkpt lat="45.72515" lon="4.87114">
        <ele>179</ele>
        <time>2010-11-28T15:21:53Z</time>
      </trkpt>
      <trkpt lat="45.72532" lon="4.87101">
        <ele>179</ele>
        <time>2010-11-28T15:21:58Z</time>
      </trkpt>
      <trkpt lat="45.72542" lon="4.87094">
        <ele>179</ele>
        <time>2010-11-28T15:22:02Z</time>
      </trkpt>
      <trkpt lat="45.72552" lon="4.87089">
        <ele>179</ele>
        <time>2010-11-28T15:22:06Z</time>
      </trkpt>
      <trkpt lat="45.7257" lon="4.8708">
        <ele>179</ele>
        <time>2010-11-28T15:22:12Z</time>
      </trkpt>
      <trkpt lat="45.72587" lon="4.87063">
        <ele>179</ele>
        <time>2010-11-28T15:22:17Z</time>
      </trkpt>
      <trkpt lat="45.72604" lon="4.8705">
        <ele>178</ele>
        <time>2010-11-28T15:22:21Z</time>
      </trkpt>
      <trkpt lat="45.72622" lon="4.87034">
        <ele>178</ele>
        <time>2010-11-28T15:22:25Z</time>
      </trkpt>
      <trkpt lat="45.7265" lon="4.87022">
        <ele>178</ele>
        <time>2010-11-28T15:22:31Z</time>
      </trkpt>
      <trkpt lat="45.7268" lon="4.86988">
        <ele>177</ele>
        <time>2010-11-28T15:22:38Z</time>
      </trkpt>
      <trkpt lat="45.72691" lon="4.86974">
        <ele>177</ele>
        <time>2010-11-28T15:22:42Z</time>
      </trkpt>
      <trkpt lat="45.72693" lon="4.86972">
        <ele>177</ele>
        <time>2010-11-28T15:22:43Z</time>
      </trkpt>
      <trkpt lat="45.72705" lon="4.86978">
        <ele>177</ele>
        <time>2010-11-28T15:22:47Z</time>
      </trkpt>
      <trkpt lat="45.72711" lon="4.86981">
        <ele>178</ele>
        <time>2010-11-28T15:22:51Z</time>
      </trkpt>
      <trkpt lat="45.72724" lon="4.86961">
        <ele>178</ele>
        <time>2010-11-28T15:22:56Z</time>
      </trkpt>
      <trkpt lat="45.72735" lon="4.8695">
        <ele>177</ele>
        <time>2010-11-28T15:22:59Z</time>
      </trkpt>
      <trkpt lat="45.7276" lon="4.86933">
        <ele>177</ele>
        <time>2010-11-28T15:23:05Z</time>
      </trkpt>
      <trkpt lat="45.72774" lon="4.8692">
        <ele>177</ele>
        <time>2010-11-28T15:23:09Z</time>
      </trkpt>
      <trkpt lat="45.72792" lon="4.86905">
        <ele>177</ele>
        <time>2010-11-28T15:23:14Z</time>
      </trkpt>
      <trkpt lat="45.72811" lon="4.86895">
        <ele>177</ele>
        <time>2010-11-28T15:23:19Z</time>
      </trkpt>
      <trkpt lat="45.72829" lon="4.86877">
        <ele>177</ele>
        <time>2010-11-28T15:23:23Z</time>
      </trkpt>
      <trkpt lat="45.72845" lon="4.86865">
        <ele>177</ele>
        <time>2010-11-28T15:23:25Z</time>
      </trkpt>
      <trkpt lat="45.72865" lon="4.86856">
        <ele>178</ele>
        <time>2010-11-28T15:23:28Z</time>
      </trkpt>
      <trkpt lat="45.72884" lon="4.86842">
        <ele>178</ele>
        <time>2010-11-28T15:23:32Z</time>
      </trkpt>
      <trkpt lat="45.72897" lon="4.86815">
        <ele>178</ele>
        <time>2010-11-28T15:23:37Z</time>
      </trkpt>
      <trkpt lat="45.72908" lon="4.86804">
        <ele>179</ele>
        <time>2010-11-28T15:23:41Z</time>
      </trkpt>
      <trkpt lat="45.72915" lon="4.86805">
        <ele>179</ele>
        <time>2010-11-28T15:23:45Z</time>
      </trkpt>
      <trkpt lat="45.72929" lon="4.86799">
        <ele>178</ele>
        <time>2010-11-28T15:23:50Z</time>
      </trkpt>
      <trkpt lat="45.72943" lon="4.86784">
        <ele>178</ele>
        <time>2010-11-28T15:23:55Z</time>
      </trkpt>
      <trkpt lat="45.72961" lon="4.86763">
        <ele>177</ele>
        <time>2010-11-28T15:24:00Z</time>
      </trkpt>
      <trkpt lat="45.72981" lon="4.86747">
        <ele>176</ele>
        <time>2010-11-28T15:24:05Z</time>
      </trkpt>
      <trkpt lat="45.72988" lon="4.8674">
        <ele>176</ele>
        <time>2010-11-28T15:24:07Z</time>
      </trkpt>
      <trkpt lat="45.73001" lon="4.86734">
        <ele>175</ele>
        <time>2010-11-28T15:24:10Z</time>
      </trkpt>
      <trkpt lat="45.73013" lon="4.86723">
        <ele>175</ele>
        <time>2010-11-28T15:24:14Z</time>
      </trkpt>
      <trkpt lat="45.73033" lon="4.86703">
        <ele>175</ele>
        <time>2010-11-28T15:24:19Z</time>
      </trkpt>
      <trkpt lat="45.7305" lon="4.86691">
        <ele>175</ele>
        <time>2010-11-28T15:24:23Z</time>
      </trkpt>
      <trkpt lat="45.73073" lon="4.86676">
        <ele>176</ele>
        <time>2010-11-28T15:24:29Z</time>
      </trkpt>
      <trkpt lat="45.73098" lon="4.86656">
        <ele>177</ele>
        <time>2010-11-28T15:24:35Z</time>
      </trkpt>
      <trkpt lat="45.73115" lon="4.86644">
        <ele>177</ele>
        <time>2010-11-28T15:24:39Z</time>
      </trkpt>
      <trkpt lat="45.7312" lon="4.86644">
        <ele>177</ele>
        <time>2010-11-28T15:24:40Z</time>
      </trkpt>
      <trkpt lat="45.73137" lon="4.86638">
        <ele>177</ele>
        <time>2010-11-28T15:24:44Z</time>
      </trkpt>
      <trkpt lat="45.73143" lon="4.86624">
        <ele>178</ele>
        <time>2010-11-28T15:24:47Z</time>
      </trkpt>
      <trkpt lat="45.73156" lon="4.86609">
        <ele>178</ele>
        <time>2010-11-28T15:24:51Z</time>
      </trkpt>
      <trkpt lat="45.73169" lon="4.86593">
        <ele>179</ele>
        <time>2010-11-28T15:24:55Z</time>
      </trkpt>
      <trkpt lat="45.7318" lon="4.86588">
        <ele>179</ele>
        <time>2010-11-28T15:24:58Z</time>
      </trkpt>
      <trkpt lat="45.73196" lon="4.86571">
        <ele>180</ele>
        <time>2010-11-28T15:25:03Z</time>
      </trkpt>
      <trkpt lat="45.73199" lon="4.8657">
        <ele>179</ele>
        <time>2010-11-28T15:25:04Z</time>
      </trkpt>
      <trkpt lat="45.73215" lon="4.86545">
        <ele>179</ele>
        <time>2010-11-28T15:25:10Z</time>
      </trkpt>
      <trkpt lat="45.73232" lon="4.86538">
        <ele>179</ele>
        <time>2010-11-28T15:25:15Z</time>
      </trkpt>
      <trkpt lat="45.73236" lon="4.86535">
        <ele>179</ele>
        <time>2010-11-28T15:25:16Z</time>
      </trkpt>
      <trkpt lat="45.73255" lon="4.86533">
        <ele>178</ele>
        <time>2010-11-28T15:25:23Z</time>
      </trkpt>
      <trkpt lat="45.7326" lon="4.86528">
        <ele>178</ele>
        <time>2010-11-28T15:25:25Z</time>
      </trkpt>
      <trkpt lat="45.73267" lon="4.86526">
        <ele>178</ele>
        <time>2010-11-28T15:25:28Z</time>
      </trkpt>
      <trkpt lat="45.73284" lon="4.86503">
        <ele>178</ele>
        <time>2010-11-28T15:25:33Z</time>
      </trkpt>
      <trkpt lat="45.73296" lon="4.86489">
        <ele>178</ele>
        <time>2010-11-28T15:25:37Z</time>
      </trkpt>
      <trkpt lat="45.73313" lon="4.86479">
        <ele>178</ele>
        <time>2010-11-28T15:25:41Z</time>
      </trkpt>
      <trkpt lat="45.73333" lon="4.86478">
        <ele>177</ele>
        <time>2010-11-28T15:25:46Z</time>
      </trkpt>
      <trkpt lat="45.73357" lon="4.8647">
        <ele>177</ele>
        <time>2010-11-28T15:25:52Z</time>
      </trkpt>
      <trkpt lat="45.7338" lon="4.86454">
        <ele>176</ele>
        <time>2010-11-28T15:25:57Z</time>
      </trkpt>
      <trkpt lat="45.73408" lon="4.86432">
        <ele>176</ele>
        <time>2010-11-28T15:26:02Z</time>
      </trkpt>
      <trkpt lat="45.73431" lon="4.86414">
        <ele>175</ele>
        <time>2010-11-28T15:26:07Z</time>
      </trkpt>
      <trkpt lat="45.7345" lon="4.86402">
        <ele>175</ele>
        <time>2010-11-28T15:26:11Z</time>
      </trkpt>
      <trkpt lat="45.73473" lon="4.86385">
        <ele>175</ele>
        <time>2010-11-28T15:26:16Z</time>
      </trkpt>
      <trkpt lat="45.73491" lon="4.86376">
        <ele>175</ele>
        <time>2010-11-28T15:26:21Z</time>
      </trkpt>
      <trkpt lat="45.73503" lon="4.86376">
        <ele>176</ele>
        <time>2010-11-28T15:26:26Z</time>
      </trkpt>
      <trkpt lat="45.73516" lon="4.86382">
        <ele>176</ele>
        <time>2010-11-28T15:26:30Z</time>
      </trkpt>
      <trkpt lat="45.73521" lon="4.86384">
        <ele>176</ele>
        <time>2010-11-28T15:26:31Z</time>
      </trkpt>
      <trkpt lat="45.73547" lon="4.86409">
        <ele>176</ele>
        <time>2010-11-28T15:26:37Z</time>
      </trkpt>
      <trkpt lat="45.73574" lon="4.86427">
        <ele>177</ele>
        <time>2010-11-28T15:26:43Z</time>
      </trkpt>
      <trkpt lat="45.73596" lon="4.86439">
        <ele>178</ele>
        <time>2010-11-28T15:26:49Z</time>
      </trkpt>
      <trkpt lat="45.73613" lon="4.8645">
        <ele>177</ele>
        <time>2010-11-28T15:26:54Z</time>
      </trkpt>
      <trkpt lat="45.73631" lon="4.86464">
        <ele>178</ele>
        <time>2010-11-28T15:26:59Z</time>
      </trkpt>
      <trkpt lat="45.73655" lon="4.86478">
        <ele>178</ele>
        <time>2010-11-28T15:27:05Z</time>
      </trkpt>
      <trkpt lat="45.73662" lon="4.86481">
        <ele>178</ele>
        <time>2010-11-28T15:27:06Z</time>
      </trkpt>
      <trkpt lat="45.73673" lon="4.86489">
        <ele>178</ele>
        <time>2010-11-28T15:27:08Z</time>
      </trkpt>
      <trkpt lat="45.73691" lon="4.86497">
        <ele>179</ele>
        <time>2010-11-28T15:27:13Z</time>
      </trkpt>
      <trkpt lat="45.73706" lon="4.86513">
        <ele>179</ele>
        <time>2010-11-28T15:27:17Z</time>
      </trkpt>
      <trkpt lat="45.73719" lon="4.86521">
        <ele>180</ele>
        <time>2010-11-28T15:27:21Z</time>
      </trkpt>
      <trkpt lat="45.73726" lon="4.86535">
        <ele>180</ele>
        <time>2010-11-28T15:27:23Z</time>
      </trkpt>
      <trkpt lat="45.73744" lon="4.86559">
        <ele>180</ele>
        <time>2010-11-28T15:27:29Z</time>
      </trkpt>
      <trkpt lat="45.73757" lon="4.86557">
        <ele>179</ele>
        <time>2010-11-28T15:27:34Z</time>
      </trkpt>
      <trkpt lat="45.73774" lon="4.8656">
        <ele>179</ele>
        <time>2010-11-28T15:27:38Z</time>
      </trkpt>
      <trkpt lat="45.73783" lon="4.86563">
        <ele>179</ele>
        <time>2010-11-28T15:27:40Z</time>
      </trkpt>
      <trkpt lat="45.73821" lon="4.86575">
        <ele>178</ele>
        <time>2010-11-28T15:27:48Z</time>
      </trkpt>
      <trkpt lat="45.73847" lon="4.86588">
        <ele>178</ele>
        <time>2010-11-28T15:27:54Z</time>
      </trkpt>
      <trkpt lat="45.73859" lon="4.866">
        <ele>177</ele>
        <time>2010-11-28T15:27:58Z</time>
      </trkpt>
      <trkpt lat="45.73869" lon="4.86607">
        <ele>177</ele>
        <time>2010-11-28T15:28:01Z</time>
      </trkpt>
      <trkpt lat="45.73879" lon="4.86633">
        <ele>177</ele>
        <time>2010-11-28T15:28:07Z</time>
      </trkpt>
      <trkpt lat="45.73895" lon="4.8665">
        <ele>177</ele>
        <time>2010-11-28T15:28:12Z</time>
      </trkpt>
      <trkpt lat="45.73919" lon="4.86671">
        <ele>178</ele>
        <time>2010-11-28T15:28:17Z</time>
      </trkpt>
      <trkpt lat="45.73943" lon="4.86698">
        <ele>178</ele>
        <time>2010-11-28T15:28:22Z</time>
      </trkpt>
      <trkpt lat="45.73958" lon="4.86717">
        <ele>178</ele>
        <time>2010-11-28T15:28:26Z</time>
      </trkpt>
      <trkpt lat="45.73965" lon="4.86726">
        <ele>178</ele>
        <time>2010-11-28T15:28:30Z</time>
      </trkpt>
      <trkpt lat="45.73976" lon="4.86737">
        <ele>179</ele>
        <time>2010-11-28T15:28:34Z</time>
      </trkpt>
      <trkpt lat="45.73986" lon="4.86745">
        <ele>179</ele>
        <time>2010-11-28T15:28:38Z</time>
      </trkpt>
      <trkpt lat="45.73994" lon="4.86756">
        <ele>179</ele>
        <time>2010-11-28T15:28:42Z</time>
      </trkpt>
      <trkpt lat="45.74007" lon="4.86765">
        <ele>178</ele>
        <time>2010-11-28T15:28:46Z</time>
      </trkpt>
      <trkpt lat="45.74013" lon="4.86773">
        <ele>178</ele>
        <time>2010-11-28T15:28:48Z</time>
      </trkpt>
      <trkpt lat="45.74037" lon="4.86782">
        <ele>177</ele>
        <time>2010-11-28T15:28:53Z</time>
      </trkpt>
      <trkpt lat="45.74043" lon="4.86792">
        <ele>177</ele>
        <time>2010-11-28T15:28:55Z</time>
      </trkpt>
      <trkpt lat="45.7406" lon="4.8681">
        <ele>176</ele>
        <time>2010-11-28T15:29:00Z</time>
      </trkpt>
      <trkpt lat="45.74072" lon="4.86815">
        <ele>176</ele>
        <time>2010-11-28T15:29:03Z</time>
      </trkpt>
      <trkpt lat="45.74089" lon="4.8683">
        <ele>175</ele>
        <time>2010-11-28T15:29:07Z</time>
      </trkpt>
      <trkpt lat="45.74107" lon="4.86859">
        <ele>176</ele>
        <time>2010-11-28T15:29:13Z</time>
      </trkpt>
      <trkpt lat="45.74124" lon="4.86881">
        <ele>177</ele>
        <time>2010-11-28T15:29:17Z</time>
      </trkpt>
      <trkpt lat="45.74141" lon="4.86882">
        <ele>177</ele>
        <time>2010-11-28T15:29:21Z</time>
      </trkpt>
      <trkpt lat="45.74164" lon="4.86889">
        <ele>177</ele>
        <time>2010-11-28T15:29:26Z</time>
      </trkpt>
      <trkpt lat="45.74187" lon="4.86901">
        <ele>178</ele>
        <time>2010-11-28T15:29:31Z</time>
      </trkpt>
      <trkpt lat="45.74205" lon="4.86911">
        <ele>179</ele>
        <time>2010-11-28T15:29:37Z</time>
      </trkpt>
      <trkpt lat="45.74213" lon="4.86916">
        <ele>179</ele>
        <time>2010-11-28T15:29:41Z</time>
      </trkpt>
      <trkpt lat="45.74232" lon="4.86933">
        <ele>179</ele>
        <time>2010-11-28T15:29:46Z</time>
      </trkpt>
      <trkpt lat="45.74254" lon="4.86948">
        <ele>179</ele>
        <time>2010-11-28T15:29:52Z</time>
      </trkpt>
      <trkpt lat="45.74263" lon="4.86952">
        <ele>179</ele>
        <time>2010-11-28T15:29:56Z</time>
      </trkpt>
      <trkpt lat="45.74271" lon="4.86952">
        <ele>179</ele>
        <time>2010-11-28T15:29:58Z</time>
      </trkpt>
      <trkpt lat="45.74294" lon="4.86958">
        <ele>179</ele>
        <time>2010-11-28T15:30:04Z</time>
      </trkpt>
      <trkpt lat="45.74313" lon="4.86964">
        <ele>179</ele>
        <time>2010-11-28T15:30:10Z</time>
      </trkpt>
      <trkpt lat="45.74325" lon="4.86985">
        <ele>178</ele>
        <time>2010-11-28T15:30:14Z</time>
      </trkpt>
      <trkpt lat="45.74336" lon="4.87004">
        <ele>177</ele>
        <time>2010-11-28T15:30:19Z</time>
      </trkpt>
      <trkpt lat="45.74345" lon="4.87029">
        <ele>178</ele>
        <time>2010-11-28T15:30:23Z</time>
      </trkpt>
      <trkpt lat="45.74361" lon="4.87037">
        <ele>178</ele>
        <time>2010-11-28T15:30:28Z</time>
      </trkpt>
      <trkpt lat="45.74373" lon="4.87033">
        <ele>178</ele>
        <time>2010-11-28T15:30:31Z</time>
      </trkpt>
      <trkpt lat="45.74393" lon="4.8704">
        <ele>178</ele>
        <time>2010-11-28T15:30:37Z</time>
      </trkpt>
      <trkpt lat="45.74408" lon="4.87055">
        <ele>179</ele>
        <time>2010-11-28T15:30:42Z</time>
      </trkpt>
      <trkpt lat="45.74419" lon="4.8707">
        <ele>179</ele>
        <time>2010-11-28T15:30:47Z</time>
      </trkpt>
      <trkpt lat="45.74423" lon="4.87084">
        <ele>179</ele>
        <time>2010-11-28T15:30:51Z</time>
      </trkpt>
      <trkpt lat="45.7444" lon="4.87098">
        <ele>179</ele>
        <time>2010-11-28T15:30:56Z</time>
      </trkpt>
      <trkpt lat="45.7446" lon="4.8712">
        <ele>179</ele>
        <time>2010-11-28T15:31:02Z</time>
      </trkpt>
      <trkpt lat="45.74477" lon="4.87135">
        <ele>179</ele>
        <time>2010-11-28T15:31:07Z</time>
      </trkpt>
      <trkpt lat="45.74489" lon="4.87142">
        <ele>179</ele>
        <time>2010-11-28T15:31:11Z</time>
      </trkpt>
      <trkpt lat="45.74498" lon="4.87143">
        <ele>179</ele>
        <time>2010-11-28T15:31:15Z</time>
      </trkpt>
      <trkpt lat="45.74509" lon="4.87135">
        <ele>178</ele>
        <time>2010-11-28T15:31:21Z</time>
      </trkpt>
      <trkpt lat="45.74524" lon="4.8713">
        <ele>178</ele>
        <time>2010-11-28T15:31:25Z</time>
      </trkpt>
      <trkpt lat="45.74535" lon="4.8711">
        <ele>178</ele>
        <time>2010-11-28T15:31:30Z</time>
      </trkpt>
      <trkpt lat="45.74545" lon="4.87086">
        <ele>177</ele>
        <time>2010-11-28T15:31:34Z</time>
      </trkpt>
      <trkpt lat="45.74558" lon="4.87051">
        <ele>176</ele>
        <time>2010-11-28T15:31:40Z</time>
      </trkpt>
      <trkpt lat="45.74566" lon="4.87023">
        <ele>175</ele>
        <time>2010-11-28T15:31:44Z</time>
      </trkpt>
      <trkpt lat="45.74578" lon="4.86987">
        <ele>174</ele>
        <time>2010-11-28T15:31:49Z</time>
      </trkpt>
      <trkpt lat="45.74594" lon="4.86953">
        <ele>176</ele>
        <time>2010-11-28T15:31:54Z</time>
      </trkpt>
      <trkpt lat="45.74612" lon="4.86915">
        <ele>176</ele>
        <time>2010-11-28T15:32:01Z</time>
      </trkpt>
      <trkpt lat="45.74625" lon="4.86888">
        <ele>176</ele>
        <time>2010-11-28T15:32:06Z</time>
      </trkpt>
      <trkpt lat="45.74641" lon="4.8686">
        <ele>176</ele>
        <time>2010-11-28T15:32:11Z</time>
      </trkpt>
      <trkpt lat="45.74649" lon="4.86835">
        <ele>177</ele>
        <time>2010-11-28T15:32:17Z</time>
      </trkpt>
      <trkpt lat="45.74657" lon="4.86823">
        <ele>176</ele>
        <time>2010-11-28T15:32:21Z</time>
      </trkpt>
      <trkpt lat="45.74668" lon="4.86804">
        <ele>176</ele>
        <time>2010-11-28T15:32:26Z</time>
      </trkpt>
      <trkpt lat="45.74674" lon="4.86785">
        <ele>175</ele>
        <time>2010-11-28T15:32:30Z</time>
      </trkpt>
      <trkpt lat="45.74685" lon="4.86758">
        <ele>174</ele>
        <time>2010-11-28T15:32:35Z</time>
      </trkpt>
      <trkpt lat="45.747" lon="4.86728">
        <ele>173</ele>
        <time>2010-11-28T15:32:40Z</time>
      </trkpt>
      <trkpt lat="45.74707" lon="4.86727">
        <ele>173</ele>
        <time>2010-11-28T15:32:44Z</time>
      </trkpt>
      <trkpt lat="45.74715" lon="4.86735">
        <ele>174</ele>
        <time>2010-11-28T15:32:47Z</time>
      </trkpt>
      <trkpt lat="45.74728" lon="4.86744">
        <ele>174</ele>
        <time>2010-11-28T15:32:53Z</time>
      </trkpt>
      <trkpt lat="45.74746" lon="4.86755">
        <ele>176</ele>
        <time>2010-11-28T15:32:58Z</time>
      </trkpt>
      <trkpt lat="45.74752" lon="4.86763">
        <ele>177</ele>
        <time>2010-11-28T15:33:00Z</time>
      </trkpt>
      <trkpt lat="45.74773" lon="4.86767">
        <ele>178</ele>
        <time>2010-11-28T15:33:05Z</time>
      </trkpt>
      <trkpt lat="45.74787" lon="4.86754">
        <ele>178</ele>
        <time>2010-11-28T15:33:08Z</time>
      </trkpt>
      <trkpt lat="45.74796" lon="4.86731">
        <ele>178</ele>
        <time>2010-11-28T15:33:11Z</time>
      </trkpt>
      <trkpt lat="45.74809" lon="4.86696">
        <ele>178</ele>
        <time>2010-11-28T15:33:14Z</time>
      </trkpt>
      <trkpt lat="45.74827" lon="4.86663">
        <ele>179</ele>
        <time>2010-11-28T15:33:18Z</time>
      </trkpt>
      <trkpt lat="45.74839" lon="4.86646">
        <ele>178</ele>
        <time>2010-11-28T15:33:21Z</time>
      </trkpt>
      <trkpt lat="45.74848" lon="4.86616">
        <ele>177</ele>
        <time>2010-11-28T15:33:27Z</time>
      </trkpt>
      <trkpt lat="45.74852" lon="4.86619">
        <ele>177</ele>
        <time>2010-11-28T15:33:30Z</time>
      </trkpt>
      <trkpt lat="45.74848" lon="4.86626">
        <ele>177</ele>
        <time>2010-11-28T15:33:39Z</time>
      </trkpt>
      <trkpt lat="45.74842" lon="4.86623">
        <ele>177</ele>
        <time>2010-11-28T15:33:43Z</time>
      </trkpt>
    </trkseg>
  </trk>
</gpx>